GFSGL_prec_cloud_003.txt.gz
Cloud_Cover
100 100 100 100 100 100 100 100 100 100 92 74 82 97 93 90 93 94 100 100 80 5 5 5 5 4 2 0 0 4 78 93 49 3 42 38 5 32 96 100 100 100 100
100 100 100 100 100 100 100 100 100 96 92 99 83 72 97 81 8 6 6 5 5 5 5 5 5 3 4 0 0 5 5 61 99 5 3 5 98 36 48 5 97 100 100
100 100 100 100 100 100 100 100 100 100 74 65 45 21 5 4 4 5 5 5 13 5 5 62 67 63 7 5 0 5 5 5 5 5 0 1 44 90 100 27 5 62 100
100 100 100 100 100 100 100 100 100 100 59 22 5 5 5 3 5 5 5 38 71 100 100 100 92 75 30 6 62 36 5 35 14 5 5 5 4 0 13 34 77 100 100
100 99 96 100 100 100 100 100 100 100 89 23 5 5 1 5 5 5 12 82 97 100 100 100 100 100 100 100 100 91 81 67 12 5 5 5 5 63 45 10 41 100 100
100 100 100 100 100 100 100 100 100 49 5 5 5 4 5 5 5 5 5 96 100 100 100 100 100 100 100 100 99 95 100 78 98 100 28 64 5 0 85 75 98 92 100
100 100 100 100 100 100 100 100 100 29 5 4 5 5 5 63 36 72 5 92 100 100 100 100 100 100 100 100 100 97 97 92 85 97 81 92 73 5 12 86 72 15 88
100 100 100 100 100 100 100 100 32 5 1 5 5 21 80 97 72 11 78 100 100 100 100 100 100 100 94 100 100 100 100 94 92 95 68 67 67 10 99 100 100 100 60
98 100 100 100 100 100 100 56 5 0 2 5 17 92 99 82 86 9 78 100 100 100 100 100 100 100 100 100 100 100 100 100 100 93 39 44 91 99 5 91 92 100 100
100 100 100 100 100 100 75 6 0 5 5 8 94 97 100 90 52 85 100 100 100 100 100 100 100 95 99 100 100 100 100 92 100 100 100 75 71 100 52 100 98 100 79
100 100 100 100 99 65 3 0 0 5 5 46 84 87 90 29 77 98 100 100 100 100 100 100 100 100 100 100 100 100 99 100 100 100 100 100 72 100 100 92 89 100 98
100 100 100 100 47 4 0 0 5 25 79 100 100 86 93 99 100 100 100 100 100 100 100 100 100 100 100 100 100 100 100 100 100 100 100 100 84 96 100 81 93 100 100
100 100 95 54 5 0 0 5 5 61 100 100 99 100 97 98 100 100 100 100 100 100 100 100 100 100 100 100 100 100 100 100 100 100 100 100 100 56 100 100 96 100 88
100 82 16 5 1 0 5 5 26 100 100 100 98 100 100 100 100 100 100 100 100 98 100 100 98 100 100 100 100 100 100 100 100 100 100 100 100 99 100 100 99 100 100
95 22 5 5 5 5 10 67 82 100 100 100 100 100 100 100 100 100 100 98 100 100 100 100 100 100 100 100 100 100 100 100 99 100 100 100 100 100 100 87 100 100 100
58 55 44 5 5 38 69 76 99 98 24 43 100 100 100 100 100 100 100 100 100 100 100 100 100 100 100 100 100 100 100 99 94 100 100 100 100 100 100 100 100 100 100
62 76 5 5 26 85 97 100 100 97 100 99 100 100 100 100 100 100 100 100 100 100 100 100 100 100 100 100 100 100 100 100 100 100 100 100 73 99 100 100 100 100 100
82 9 5 5 76 100 100 100 100 100 100 92 98 100 100 100 100 100 100 100 100 100 100 100 100 100 100 100 100 100 100 100 100 100 100 100 100 100 97 97 100 100 100
26 5 5 56 99 96 100 100 100 100 100 100 100 100 100 100 100 100 100 100 100 100 100 100 100 100 100 100 100 100 100 100 100 100 100 100 100 100 100 100 100 100 99
80 22 5 79 100 100 100 100 100 100 100 100 100 100 100 100 100 100 100 100 100 100 100 100 100 100 100 100 100 100 100 100 100 100 100 100 100 100 100 100 100 100 100
99 82 48 99 100 100 100 100 100 100 100 100 100 100 100 100 100 100 100 100 100 100 100 100 100 100 100 100 100 100 100 100 100 100 100 100 100 100 100 100 100 100 98
93 97 100 100 100 100 100 100 100 100 100 100 100 100 100 100 100 100 100 100 100 100 100 100 100 100 100 100 100 100 100 100 100 100 100 100 100 100 100 100 100 100 100
100 100 98 100 100 100 100 100 100 100 100 100 100 100 100 100 100 100 100 100 100 100 100 100 100 100 100 100 100 100 100 100 100 100 100 100 100 100 100 100 100 100 100
100 100 100 100 100 100 100 100 100 100 100 100 100 100 100 100 100 100 100 100 100 100 100 100 100 100 100 100 100 100 100 100 100 100 100 100 100 100 100 100 100 100 100
100 100 100 100 100 100 100 100 100 100 100 100 100 100 100 100 100 100 100 100 100 100 100 100 100 100 100 100 100 100 100 100 100 100 100 100 100 100 100 100 100 100 100
100 100 100 100 100 100 100 100 100 100 100 100 100 100 100 100 100 100 100 100 100 100 100 100 100 100 100 100 100 100 100 100 96 100 100 100 99 100 99 100 90 100 100

GFSGL_prec_cloud_006.txt.gz
Cloud_Cover
100 100 100 100 100 100 100 99 100 100 100 100 100 100 100 100 100 90 79 42 24 50 82 94 100 100 100 100 100 100 100 85 67 5 9 56 100 24 64 100 100 100 100
100 100 100 100 100 100 100 100 100 100 100 100 100 100 100 100 100 47 29 38 5 5 5 5 5 8 20 58 94 27 51 14 5 5 5 5 6 89 5 2 86 100 100
100 99 100 100 100 100 87 95 100 100 100 100 100 100 100 100 100 92 15 5 5 3 3 2 5 5 5 2 5 5 5 8 5 76 5 5 3 5 16 5 0 21 97
100 100 98 100 100 100 89 89 100 100 100 100 100 100 100 100 54 10 3 5 6 5 10 5 32 59 93 55 5 5 31 74 85 86 18 5 5 5 5 4 0 0 0
91 86 86 93 42 98 100 98 100 100 100 100 100 100 100 16 5 4 5 5 5 5 5 5 5 5 5 5 11 11 7 37 90 100 70 38 66 12 5 5 5 0 24
78 85 98 100 100 100 100 100 100 100 100 100 100 59 5 2 2 5 5 5 5 5 16 36 5 5 33 32 24 21 8 38 86 100 100 100 87 94 28 5 5 45 5
100 100 100 100 100 100 100 100 100 100 100 100 41 3 0 2 5 5 6 11 53 6 6 62 90 90 94 97 80 88 100 98 89 96 35 69 99 89 86 90 74 5 11
100 100 100 100 100 100 100 100 100 100 100 12 2 0 3 5 5 5 5 19 14 21 18 59 86 53 79 93 94 99 87 82 100 99 49 87 69 99 100 100 100 85 54
100 100 100 100 100 100 100 100 100 95 6 0 2 0 5 5 5 5 18 81 100 87 56 63 79 90 100 100 100 100 96 94 100 100 99 85 100 100 100 100 100 99 100
100 100 100 100 100 100 100 100 76 4 0 0 0 31 5 14 5 5 94 100 100 100 99 100 100 100 100 100 100 100 100 85 90 100 100 100 100 100 100 100 86 100 100
63 97 100 100 100 100 100 40 5 1 0 5 92 16 6 99 96 94 100 100 100 100 100 100 100 100 100 100 100 100 99 98 98 94 75 82 100 100 100 100 100 80 100
100 97 100 100 100 100 27 7 0 2 8 30 5 33 48 98 86 89 99 100 100 100 100 100 100 100 100 100 100 100 96 100 100 100 100 100 100 100 100 100 100 100 100
100 100 100 100 79 39 5 0 5 5 5 9 100 97 100 97 99 100 100 100 100 100 100 99 100 100 100 99 89 99 100 100 100 100 100 100 100 100 100 100 100 99 100
100 100 100 88 62 22 2 5 5 10 8 86 93 100 100 99 100 100 100 100 100 100 100 100 100 100 99 96 98 100 100 100 100 97 100 100 100 100 100 100 100 100 100
100 97 57 54 5 4 5 40 78 85 54 100 100 100 100 100 98 100 100 100 99 100 100 98 99 100 100 100 100 100 100 100 99 100 84 100 100 100 100 100 100 100 100
93 10 6 5 5 30 10 5 22 5 82 100 100 100 100 100 100 100 100 100 100 99 100 100 83 91 100 100 100 100 91 76 100 100 27 89 100 100 100 100 100 100 100
20 16 5 5 18 5 76 5 5 13 5 78 100 100 100 100 100 100 100 100 100 100 99 100 96 94 94 99 100 100 100 100 100 100 93 100 100 100 100 100 97 100 100
91 58 46 5 5 36 15 91 84 91 82 100 100 100 100 100 100 100 100 100 100 100 100 100 100 90 100 91 98 100 100 100 100 100 100 100 100 88 84 98 100 100 100
5 27 61 8 5 45 96 97 86 46 100 100 100 100 100 100 100 100 100 100 100 100 100 100 100 98 100 100 100 90 96 100 99 100 100 100 100 100 100 100 100 95 100
88 99 80 30 49 85 92 84 87 92 100 100 100 100 100 100 100 100 100 100 100 100 100 100 100 100 100 90 94 97 96 88 95 100 100 100 100 100 100 100 99 100 97
100 97 100 98 99 94 95 58 99 98 100 100 100 100 100 100 100 100 100 100 100 100 100 100 100 100 100 100 100 91 72 87 100 96 100 100 100 100 100 100 99 80 100
96 100 98 92 97 97 100 100 100 100 100 100 100 100 100 100 100 100 100 100 100 100 100 100 100 100 100 100 100 99 97 87 79 97 100 100 100 100 100 100 100 100 100
99 91 100 90 98 84 97 98 100 100 100 100 100 100 100 100 100 100 100 100 100 100 100 100 100 100 100 100 100 100 100 100 100 100 100 100 100 100 100 100 100 100 100
99 71 94 100 99 100 100 100 100 100 100 100 100 100 100 100 100 100 100 100 100 100 100 100 100 100 100 100 100 100 100 100 100 100 100 100 100 100 100 100 100 100 100
96 95 96 98 100 100 100 100 100 100 100 100 100 100 100 100 100 100 100 100 100 100 100 100 100 100 100 100 100 100 100 100 100 100 100 100 100 100 100 100 100 100 100
99 100 92 98 100 100 97 100 100 100 100 100 100 100 100 100 100 100 100 100 100 100 100 100 100 100 100 100 100 100 100 100 100 99 100 99 93 100 97 91 97 96 92

GFSGL_prec_cloud_009.txt.gz
Cloud_Cover
100 100 100 100 100 100 100 100 100 100 100 100 100 100 100 100 100 100 100 100 99 83 63 43 36 28 67 100 100 88 72 26 8 98 100 100 100 100 100 100 100 100 100
100 100 100 100 100 100 100 100 100 100 100 100 100 100 100 100 100 100 100 93 47 99 100 100 100 100 63 12 61 84 98 23 5 5 38 100 100 100 100 100 100 100 95
100 95 100 100 100 100 100 100 100 100 100 100 100 100 100 100 100 100 100 100 100 100 100 44 40 8 5 4 5 5 5 10 5 5 26 59 75 100 100 100 100 100 96
77 92 96 100 100 99 98 57 93 98 92 99 100 100 100 100 100 100 100 100 70 5 5 29 17 5 5 5 5 5 5 5 24 18 5 16 83 46 12 5 7 64 100
96 100 63 54 9 7 69 82 98 98 72 95 94 79 91 100 100 100 42 5 5 5 5 2 4 5 5 6 5 5 5 67 91 100 95 93 99 100 77 79 91 45 5
100 100 100 100 95 100 100 100 100 100 84 88 94 100 100 100 82 5 5 5 5 5 5 5 5 5 5 5 5 12 11 92 100 100 100 100 100 100 100 100 100 98 11
100 100 100 100 100 100 100 100 100 100 100 100 100 100 90 1 3 5 5 3 5 5 5 5 5 5 5 5 5 31 72 96 90 87 100 100 100 94 87 80 59 100 100
100 98 100 100 100 100 100 100 100 100 100 100 100 20 0 5 3 3 3 5 22 5 9 5 22 33 70 88 95 76 58 90 95 67 60 64 63 46 23 69 5 39 99
13 75 59 74 100 100 100 100 100 100 100 100 9 0 5 5 5 5 46 99 74 59 77 65 76 100 100 99 100 100 90 66 96 100 60 26 10 64 100 100 100 99 61
100 100 100 83 91 100 100 100 86 82 88 5 1 5 15 16 5 5 61 100 88 54 100 100 100 100 100 100 100 100 100 100 100 72 64 57 49 99 100 100 100 100 100
100 97 100 99 99 100 99 30 42 59 5 5 5 5 5 5 5 44 100 100 100 100 100 100 92 99 100 99 100 100 96 95 98 100 85 75 82 100 100 100 100 100 100
100 95 100 100 100 100 92 51 8 4 5 5 5 5 5 5 71 74 99 89 97 100 100 92 98 99 95 93 100 100 100 100 100 100 100 100 100 100 100 100 100 99 37
100 100 100 100 100 100 31 5 5 5 5 35 5 5 5 44 100 100 85 93 100 99 100 100 100 100 100 100 92 100 94 100 100 99 100 100 100 100 100 100 88 100 78
100 100 100 100 100 34 5 5 5 49 96 8 9 87 85 95 94 100 98 100 100 100 100 100 77 76 96 100 100 100 100 100 100 100 100 100 100 100 100 75 100 100 100
100 100 100 100 10 5 5 5 5 10 39 100 100 100 100 100 100 100 100 100 100 100 100 93 48 53 100 100 100 100 100 100 100 100 100 100 100 100 100 100 100 100 100
100 97 74 8 5 5 5 5 5 24 89 89 100 100 84 96 100 100 100 100 99 100 100 66 97 92 100 100 100 100 96 100 100 100 72 70 88 96 100 100 100 100 100
46 96 55 5 5 5 5 56 93 14 8 30 100 100 100 100 100 100 100 100 100 100 100 100 90 100 98 100 100 100 100 100 100 88 89 100 83 100 100 100 100 100 100
75 56 38 9 66 15 62 100 96 87 34 15 91 100 100 100 100 100 100 100 100 100 100 100 100 100 100 100 100 100 98 100 100 100 100 74 100 95 89 95 100 100 100
74 91 100 100 100 78 100 100 50 30 16 72 96 100 100 100 100 100 100 100 100 100 100 100 100 100 100 98 98 98 100 99 99 100 100 100 100 90 98 96 68 78 100
91 100 98 100 100 100 100 100 12 57 59 93 100 100 100 100 100 100 100 100 100 100 100 100 100 100 100 100 99 97 92 96 94 86 92 99 100 95 97 93 88 97 94
73 100 100 100 98 100 100 67 87 67 74 95 100 100 100 100 100 100 100 100 100 100 100 100 100 100 100 100 100 100 88 99 98 88 91 97 100 99 99 87 73 72 79
45 100 100 98 100 100 70 100 81 98 66 100 100 100 100 100 100 100 100 100 100 100 100 100 100 100 100 100 100 100 100 98 86 85 84 85 82 86 99 98 83 81 95
25 98 99 95 100 100 99 87 87 100 72 100 100 100 100 100 100 100 100 100 100 100 100 100 100 100 100 100 100 100 100 100 100 96 98 88 84 82 77 100 93 90 100
59 98 94 98 100 100 99 99 96 98 91 99 100 100 100 100 100 100 100 100 100 100 100 100 100 100 100 100 100 100 100 100 100 98 94 100 96 91 96 93 99 100 100
93 100 99 93 94 100 100 100 83 99 91 100 100 100 100 100 100 100 100 100 100 100 100 100 100 100 100 100 100 98 100 100 100 100 100 100 100 100 100 100 100 100 100
100 100 100 89 100 100 100 97 64 100 95 100 100 100 100 100 100 100 100 100 100 100 100 100 100 100 100 100 100 100 100 100 100 100 100 100 100 100 100 99 99 96 92

GFSGL_prec_cloud_012.txt.gz
Cloud_Cover
90 100 98 25 6 5 5 40 31 92 100 100 100 100 100 100 100 100 100 100 100 100 100 100 100 100 99 86 76 86 100 47 5 5 100 100 100 100 100 100 100 100 98
61 6 1 5 5 5 5 82 93 89 95 100 100 100 100 100 100 100 100 100 100 100 100 100 96 99 98 94 50 48 96 100 33 5 5 92 100 100 100 100 100 100 100
5 5 5 5 16 7 66 94 100 100 100 100 100 100 100 100 100 100 100 100 100 100 100 100 100 100 100 100 87 5 5 5 5 5 41 42 99 100 100 100 100 100 96
5 8 18 5 88 49 71 86 96 92 100 100 100 100 100 100 100 100 100 100 100 100 92 54 20 5 5 5 5 5 5 5 5 5 23 91 94 100 100 100 100 100 100
5 24 87 88 99 100 100 90 97 98 100 98 98 78 40 48 98 100 100 99 37 5 5 2 3 1 5 5 5 5 15 5 13 13 42 97 100 100 100 99 100 100 100
51 100 100 100 100 100 100 100 100 100 100 100 100 100 100 100 100 57 7 5 5 5 4 5 5 5 5 5 5 5 5 42 82 100 100 100 96 100 99 92 70 100 100
100 100 100 100 100 100 100 100 100 100 100 100 100 100 100 100 94 5 4 3 5 5 5 5 6 5 5 17 12 7 5 16 18 55 100 99 100 100 98 92 99 98 62
32 21 10 5 85 100 100 100 100 100 100 100 100 100 98 39 3 5 5 5 5 5 6 29 89 100 100 100 100 100 100 96 56 52 92 100 98 90 93 82 99 87 54
100 27 48 94 82 100 100 100 100 100 100 100 98 45 6 5 5 5 5 5 5 58 18 9 48 96 49 93 98 100 100 98 66 13 12 89 100 100 84 99 100 100 98
13 63 79 97 97 74 68 90 100 100 86 53 5 5 5 5 5 5 19 99 93 62 84 77 82 83 76 100 100 100 100 99 100 86 77 95 97 94 100 100 100 100 100
83 98 100 100 100 100 100 100 100 62 38 5 5 5 5 5 5 5 86 100 100 100 100 100 78 64 81 100 100 100 96 74 99 100 100 97 93 89 83 90 97 100 100
100 100 100 100 100 100 100 100 75 58 25 5 8 5 5 5 5 44 99 88 96 100 100 99 100 100 89 100 100 100 91 100 100 100 100 100 100 100 100 79 83 93 99
91 100 100 100 100 100 100 100 66 9 5 5 24 5 5 5 28 90 100 83 89 100 99 92 82 30 7 76 98 100 90 97 100 100 98 92 100 100 100 90 58 100 100
93 96 100 100 100 100 92 27 5 5 5 5 5 67 87 29 71 100 95 99 100 100 100 97 63 52 79 100 97 99 100 100 100 100 100 99 100 100 100 100 93 100 100
100 100 100 98 74 28 5 5 5 5 44 75 21 100 98 78 98 100 100 100 100 100 95 95 95 74 76 89 100 89 99 99 100 100 100 100 91 97 95 96 100 100 99
95 88 84 24 5 5 5 5 5 5 5 5 76 99 65 98 100 100 100 100 100 100 100 97 84 78 100 100 100 91 46 92 95 78 85 55 48 70 58 91 100 100 100
100 90 72 83 66 89 53 6 82 5 5 5 56 90 100 100 100 100 100 100 100 100 100 100 100 98 98 100 100 100 99 100 100 100 100 100 100 99 100 100 100 100 100
34 7 82 99 96 100 95 66 69 70 80 55 13 92 100 100 100 100 100 100 100 100 100 100 100 100 100 100 100 100 99 99 98 100 100 91 84 92 99 100 100 100 100
5 81 87 100 99 99 95 100 83 69 65 88 73 72 100 100 100 100 100 100 100 100 100 100 100 100 100 100 100 100 100 100 100 94 96 100 93 92 93 92 96 100 100
67 98 99 96 94 100 99 74 93 72 73 95 93 98 100 100 100 100 100 100 100 100 100 100 100 100 100 100 100 100 99 100 93 100 89 86 90 99 100 100 95 83 100
96 100 100 100 75 99 99 73 76 83 94 100 83 100 100 100 100 100 100 100 100 100 100 100 100 100 100 100 100 100 100 100 97 100 100 86 95 94 90 96 100 77 94
85 88 97 75 78 78 98 78 94 80 95 100 86 100 100 100 100 100 100 100 100 100 100 100 100 100 100 100 100 100 100 100 97 98 93 89 87 84 80 94 86 91 76
97 94 86 88 92 100 79 71 87 100 100 86 100 100 100 100 100 100 100 100 100 100 100 100 100 100 100 100 100 100 100 100 100 100 98 78 90 92 76 90 84 93 98
100 100 99 90 87 88 95 98 76 99 93 93 100 100 100 100 100 100 100 100 100 100 100 100 100 100 100 100 100 100 100 93 78 70 60 72 80 66 56 83 98 100 100
100 100 100 88 88 99 91 100 89 99 81 98 100 100 100 100 100 100 100 100 100 100 100 100 100 100 100 100 100 100 100 100 100 100 100 94 100 86 76 52 60 97 100
100 100 100 90 84 88 81 98 79 97 86 100 100 100 100 100 100 100 100 100 100 100 100 100 100 100 100 100 100 100 100 100 100 100 100 100 100 100 86 81 77 30 35

GFSGL_prec_cloud_015.txt.gz
Cloud_Cover
73 5 5 2 4 0 2 4 5 5 5 86 92 96 100 100 100 100 100 100 100 100 100 100 100 100 81 76 88 79 42 22 5 4 6 100 100 73 88 61 8 100 100
55 5 10 42 3 0 5 5 69 94 98 100 96 77 100 100 100 100 100 100 100 100 100 100 100 100 100 99 72 14 6 5 5 5 5 33 100 100 100 85 92 100 100
8 5 5 4 5 24 61 89 100 100 100 100 96 80 89 99 99 100 90 71 97 97 100 100 100 100 100 100 100 99 76 5 5 5 33 47 97 100 100 83 96 94 100
96 75 89 98 86 100 100 100 89 100 100 100 100 100 100 100 100 100 100 100 97 99 100 100 100 90 41 9 5 3 5 5 5 5 5 47 70 96 100 100 63 100 100
100 100 100 100 100 100 98 100 100 100 100 100 100 100 100 100 100 74 47 47 96 100 100 32 4 3 5 5 36 46 88 98 100 99 100 100 100 99 83 87 42 31 100
73 79 100 100 100 100 100 100 100 100 100 100 100 100 100 100 100 100 67 96 84 8 5 5 5 5 5 5 5 5 5 92 100 100 100 100 100 100 99 97 61 6 65
65 19 13 81 61 100 100 100 100 100 100 100 100 100 100 100 100 100 92 5 5 5 5 7 15 50 83 98 84 99 89 86 93 100 100 97 79 46 28 85 99 63 20
80 94 100 98 100 100 100 100 100 100 100 100 100 100 100 100 100 82 9 5 5 5 5 6 84 69 73 73 100 100 67 45 78 85 97 99 75 66 86 68 46 66 20
100 96 89 57 79 100 100 100 100 100 100 100 100 100 100 100 99 11 5 5 5 5 11 18 74 97 61 82 100 100 100 100 92 100 98 88 78 74 67 92 100 100 98
98 100 100 88 100 100 100 100 100 100 100 100 100 100 100 93 80 5 5 75 96 99 82 90 100 99 77 79 100 100 100 100 99 100 100 100 96 85 85 100 98 100 100
84 99 100 92 76 90 94 100 100 100 94 93 96 88 20 5 5 5 52 100 97 96 90 84 81 90 100 99 100 90 100 100 100 100 100 98 90 86 100 81 100 100 100
100 90 68 76 85 80 100 100 74 24 33 29 56 18 5 5 5 5 77 81 90 100 99 100 65 91 92 97 76 75 100 100 100 100 100 100 100 95 100 100 100 100 96
96 88 91 68 61 98 59 5 5 5 6 5 41 10 5 5 5 5 5 98 100 96 100 100 100 85 96 100 98 100 100 100 100 100 100 100 100 100 100 100 100 97 100
100 100 100 100 89 17 5 5 5 5 27 6 5 60 89 53 5 18 94 100 100 100 100 100 100 87 88 100 100 100 100 100 100 100 100 100 100 100 100 100 100 100 100
100 97 49 5 5 5 5 5 5 5 60 63 16 94 100 99 77 100 100 100 100 100 100 100 97 84 100 95 93 87 89 87 100 97 84 97 98 100 99 100 100 100 99
10 5 6 11 12 12 6 5 69 22 5 5 5 99 99 91 100 100 100 100 100 100 100 100 94 98 100 100 100 93 66 99 92 100 100 97 94 89 98 67 86 100 100
5 5 5 19 71 68 33 23 77 7 5 5 5 93 99 100 100 100 100 100 100 100 100 100 100 100 100 100 100 100 100 100 99 100 100 99 100 100 100 98 95 100 100
53 28 82 79 59 66 71 90 85 85 93 98 79 93 86 100 100 100 100 100 100 100 100 100 100 100 100 100 98 100 100 100 100 100 100 98 96 100 97 100 96 99 99
9 9 43 77 79 73 81 94 75 81 74 87 96 88 81 100 100 100 100 100 100 100 100 100 100 100 98 100 100 100 100 100 100 100 100 100 99 94 93 100 100 100 100
77 81 88 95 89 92 82 86 71 83 74 98 100 94 98 100 100 100 100 100 100 100 100 100 100 100 100 100 100 100 100 100 100 100 100 100 94 100 100 100 98 99 91
96 94 100 99 96 91 66 76 83 92 100 100 99 83 100 100 100 100 100 100 100 100 100 100 100 100 100 100 100 100 100 100 100 100 100 100 92 90 85 90 83 72 79
87 84 84 91 86 95 75 89 98 91 97 100 98 95 100 100 100 100 100 100 100 100 100 100 100 100 100 100 100 100 100 100 99 100 99 90 95 86 75 64 72 79 83
93 100 100 90 83 90 85 90 91 100 96 100 98 100 100 100 100 100 100 100 100 100 100 100 100 100 100 100 100 100 100 100 100 100 100 84 89 94 96 95 85 68 76
98 100 100 96 85 93 95 100 99 100 94 95 100 100 87 100 100 100 100 100 100 100 100 100 100 100 100 100 100 100 100 100 97 99 100 100 87 56 61 78 91 86 90
100 100 100 97 89 90 85 96 100 100 99 92 90 100 100 100 100 100 100 100 100 100 100 100 100 100 100 100 100 100 100 100 100 99 100 100 100 90 50 50 64 63 61
100 100 100 97 80 82 91 99 90 84 99 90 99 100 100 100 100 100 100 100 100 100 100 100 100 100 100 100 100 100 100 100 100 100 100 100 100 96 91 77 41 31 24

GFSGL_prec_cloud_018.txt.gz
Cloud_Cover
64 13 50 14 5 5 5 5 7 51 80 17 77 100 75 100 74 67 100 100 100 100 100 100 100 100 100 100 100 99 18 5 4 1 0 1 11 16 6 69 100 82 9
65 5 75 100 82 5 65 100 100 96 84 100 99 100 100 100 100 100 100 100 100 100 100 100 100 100 100 100 100 62 5 5 5 5 5 5 4 38 33 87 100 100 42
53 97 79 24 36 73 59 99 99 75 89 100 100 100 100 100 100 100 100 100 100 100 100 100 100 100 95 98 67 34 19 5 5 5 5 5 5 5 85 100 100 100 100
92 87 82 60 96 100 100 100 100 100 100 100 100 100 100 100 100 100 100 100 100 100 100 100 100 100 91 61 22 9 5 5 8 65 56 62 77 25 20 76 100 100 100
64 98 99 98 96 100 100 84 100 100 100 98 100 100 100 100 100 100 96 60 29 45 98 86 42 5 5 6 76 94 95 99 96 100 96 98 86 100 92 5 22 100 100
66 74 96 50 93 5 62 100 100 100 100 100 100 100 100 100 100 100 100 100 100 100 100 100 12 5 5 5 49 78 85 100 100 100 100 95 100 100 100 91 13 5 64
73 59 100 90 100 100 95 94 63 88 100 100 100 100 100 100 100 100 100 100 77 100 97 10 5 5 68 85 79 94 100 100 100 100 100 100 99 98 96 100 67 20 11
55 96 100 100 100 99 97 99 100 100 100 95 100 100 100 100 100 100 100 100 100 100 12 5 18 56 100 100 100 100 94 73 83 99 91 79 69 77 100 96 76 63 53
69 11 59 71 82 100 100 100 100 100 100 100 100 100 100 100 78 64 50 100 100 88 14 91 94 100 100 100 97 99 100 100 100 69 79 85 89 84 100 100 100 100 100
65 78 62 37 30 31 41 64 81 86 76 96 82 51 36 25 26 39 88 92 88 86 100 100 88 97 99 100 100 100 100 100 100 100 100 99 99 89 90 100 100 100 100
82 99 81 88 99 87 76 32 10 44 31 5 8 26 7 5 6 5 16 92 96 100 100 99 92 99 100 88 100 90 88 99 100 100 100 100 100 100 83 97 100 100 100
89 100 100 99 38 6 5 5 5 5 5 5 5 5 5 5 5 5 57 87 100 100 100 98 99 100 92 100 82 100 100 100 100 100 100 100 87 100 100 100 98 100 93
83 92 65 6 5 5 5 5 5 5 31 39 78 27 19 6 5 5 5 85 98 100 100 100 98 100 100 52 100 98 100 100 99 99 86 100 100 100 100 100 100 100 100
8 5 5 5 5 5 5 5 5 15 67 85 64 96 93 28 5 42 97 91 100 100 100 100 100 100 86 82 93 95 100 100 100 100 99 99 83 97 100 100 100 100 100
5 5 5 5 5 5 28 14 5 5 68 91 21 82 100 84 81 100 100 100 100 100 100 100 100 100 100 84 90 92 100 87 96 100 100 100 90 70 79 85 94 98 100
5 5 7 9 17 58 33 5 15 9 5 27 5 63 99 100 100 100 100 100 100 100 100 100 100 100 84 94 100 100 89 100 100 100 100 100 91 84 88 94 94 100 97
50 6 40 28 44 60 60 96 98 5 47 6 5 67 100 100 100 100 100 100 100 100 100 100 100 100 100 100 100 100 100 100 100 100 100 99 97 86 74 77 86 88 95
74 72 72 76 82 82 91 90 94 93 100 100 95 95 100 100 100 100 100 100 100 100 100 100 100 100 100 100 100 99 87 95 95 100 100 97 100 94 98 99 95 97 96
99 70 66 94 96 83 97 66 72 85 90 76 88 96 100 100 100 100 100 100 100 100 100 100 100 100 100 100 100 98 100 100 100 100 100 100 99 100 100 94 91 100 98
94 74 38 83 94 84 92 74 68 84 86 91 83 100 100 100 100 100 100 100 100 100 100 100 100 100 100 100 100 99 88 89 97 99 100 100 80 89 92 95 96 96 96
100 78 72 89 80 93 96 95 98 91 86 100 100 100 100 100 100 100 100 100 100 100 100 100 100 100 100 100 100 100 100 98 98 100 99 100 100 88 86 82 73 67 87
100 98 100 99 89 94 91 83 93 98 98 99 100 96 99 100 100 100 100 100 100 100 100 100 100 100 100 100 100 100 100 100 100 96 97 90 95 90 63 66 64 58 57
100 99 100 91 87 96 99 86 100 100 93 91 100 98 98 100 100 100 100 100 100 100 100 100 100 100 100 100 100 100 100 100 100 100 100 73 79 91 86 93 88 72 65
100 98 99 99 100 100 100 100 100 100 99 91 100 100 100 100 100 100 100 100 100 100 100 100 100 100 100 100 100 100 100 100 100 100 76 50 26 53 28 57 96 97 74
100 100 100 100 100 100 100 97 100 100 100 100 98 86 100 100 100 100 100 100 100 100 100 100 100 100 100 100 100 100 100 100 100 100 70 34 44 30 6 32 30 36 60
100 100 100 100 98 92 95 94 99 100 100 100 100 79 100 100 100 100 100 100 100 100 100 100 100 100 100 100 100 100 100 100 100 100 70 67 55 69 43 15 42 18 5

GFSGL_prec_cloud_021.txt.gz
Cloud_Cover
80 24 8 15 9 5 25 18 100 87 94 82 99 92 94 100 100 100 96 100 100 100 100 100 100 100 100 100 100 100 100 100 96 100 100 100 95 6 4 4 5 5 5
5 100 100 96 74 5 68 100 100 92 100 96 99 100 100 100 100 100 100 100 100 100 100 100 100 100 100 78 20 16 7 5 43 49 5 5 6 5 5 5 5 5 2
100 100 100 98 36 28 21 39 100 97 100 100 100 100 100 100 100 100 100 100 100 100 100 100 100 100 100 100 100 100 98 89 32 24 5 5 5 5 5 5 5 6 5
100 92 99 41 38 51 100 100 91 74 100 100 93 98 100 100 98 96 85 81 98 100 100 100 100 100 100 100 100 100 60 26 51 80 68 45 92 92 96 89 79 99 88
100 100 28 99 77 47 46 81 96 100 27 82 100 96 99 100 100 100 100 100 99 100 100 100 50 76 100 100 100 76 100 100 100 100 100 99 100 100 100 97 100 100 98
81 24 54 100 100 100 100 66 81 94 75 34 84 61 99 100 100 100 100 60 53 68 100 100 100 91 49 60 74 96 100 100 100 100 100 100 100 100 100 100 100 100 94
74 30 38 34 56 50 46 87 61 23 5 5 27 38 46 48 5 13 47 71 84 88 54 39 88 94 91 96 100 100 100 100 100 100 100 98 100 100 100 100 100 100 100
5 5 8 5 31 5 5 5 5 5 5 5 40 19 26 46 35 46 54 68 99 97 83 99 98 99 100 100 100 100 100 100 100 100 100 99 100 100 100 100 100 100 100
22 28 5 60 100 96 99 99 32 5 5 19 50 52 33 12 3 5 40 100 100 92 99 100 100 100 98 96 100 100 100 99 100 71 82 98 96 65 67 100 100 100 100
100 100 70 93 100 100 60 2 5 5 5 5 5 5 5 5 5 5 62 99 100 100 100 100 98 88 83 100 100 100 94 97 100 100 100 98 100 100 100 100 100 100 100
17 62 40 26 38 5 3 5 5 5 5 5 5 5 5 5 5 5 71 100 100 100 100 100 100 97 98 100 86 95 98 99 98 100 100 100 100 100 100 97 96 100 100
3 5 5 5 4 2 5 5 5 5 60 25 67 89 100 98 97 11 91 99 100 100 99 100 100 92 89 81 84 100 99 88 100 100 100 100 100 100 100 100 100 97 100
5 5 5 5 5 5 5 5 58 83 99 100 100 100 100 100 100 88 91 95 100 100 100 100 100 100 100 76 96 97 94 100 100 100 100 100 100 100 100 100 100 100 100
5 5 5 5 5 11 65 82 98 100 99 100 100 100 100 100 100 100 100 100 100 100 100 100 100 100 100 85 95 99 100 100 100 100 100 89 100 100 100 100 100 100 100
25 5 5 5 5 33 21 37 93 99 90 99 100 100 100 100 100 100 100 100 100 100 100 100 100 100 100 100 100 100 100 100 100 100 100 100 100 100 100 100 100 100 100
93 5 5 5 5 6 30 87 20 6 5 5 26 94 100 100 100 100 100 100 100 100 100 100 100 100 100 100 100 100 100 100 100 100 100 100 100 100 100 100 96 97 100
85 17 82 65 5 62 71 100 100 80 5 5 5 70 100 100 100 100 100 100 100 100 100 100 100 100 100 100 100 100 100 100 100 100 100 100 100 100 100 100 100 100 100
100 98 87 81 77 74 94 87 80 98 99 100 21 91 99 100 100 100 100 100 100 100 100 100 100 100 100 100 100 100 100 100 100 100 100 100 100 100 100 97 100 100 100
100 84 74 47 89 83 86 86 98 99 100 100 99 97 83 100 100 100 100 100 100 100 100 100 100 100 100 100 100 100 100 100 100 100 100 100 100 100 100 100 99 99 100
100 97 100 98 87 84 92 98 100 100 100 100 100 100 100 100 100 100 100 100 100 100 100 100 100 100 100 100 100 100 100 100 100 100 100 100 100 100 100 100 100 98 98
100 100 100 100 98 96 97 100 100 100 100 100 100 100 100 100 100 100 100 100 100 100 100 100 100 100 100 100 100 100 100 100 100 100 100 100 100 100 100 100 100 100 100
96 90 100 100 96 96 94 99 99 99 100 100 100 99 98 100 100 100 100 100 100 100 100 100 100 100 100 100 100 100 100 100 100 100 100 100 100 100 100 100 100 100 99
100 97 100 93 85 76 93 96 94 99 99 100 100 100 100 100 100 100 100 100 100 100 100 100 100 100 100 100 100 100 100 100 100 100 100 100 100 100 100 100 100 100 100
100 100 100 100 97 90 99 100 98 53 52 96 100 100 100 100 100 100 100 100 100 100 100 100 100 100 100 100 100 100 100 100 100 100 100 98 81 81 100 100 100 100 100
100 100 100 100 94 97 100 100 100 100 81 90 100 100 100 100 100 100 100 100 100 100 100 100 100 100 100 100 100 100 100 100 100 100 100 100 99 62 48 77 100 99 95
82 99 96 94 96 99 100 100 100 100 94 94 100 100 100 98 97 100 100 100 100 100 100 100 100 100 100 100 100 100 100 100 100 100 100 92 56 45 58 61 66 91 94

GFSGL_prec_cloud_024.txt.gz
Cloud_Cover
94 85 23 62 83 100 98 91 92 99 100 100 100 100 100 100 96 100 100 100 100 100 100 100 100 100 100 100 100 100 100 100 100 99 100 100 100 88 94 79 8 5 5
36 65 83 100 100 73 99 58 46 100 100 98 100 100 100 90 100 100 100 100 100 100 100 100 100 100 100 100 100 100 100 100 100 99 100 100 100 100 100 100 85 15 8
100 100 100 100 90 100 99 98 97 90 92 80 81 100 88 62 96 94 98 94 97 100 100 100 100 100 100 100 100 100 100 85 60 35 46 37 5 5 5 5 5 5 5
100 100 100 100 100 100 100 100 100 100 100 100 96 83 74 48 75 99 100 100 98 92 91 86 98 97 100 100 100 100 100 99 75 99 76 36 80 83 93 96 92 97 97
100 100 100 100 94 100 100 100 100 100 100 90 54 7 5 5 5 19 56 81 95 97 100 100 88 48 100 90 82 92 84 73 91 100 100 96 98 100 100 100 100 100 99
100 31 100 54 56 66 98 93 44 5 5 5 5 5 5 5 5 5 5 25 75 53 23 67 99 100 100 100 76 78 85 100 100 100 100 100 100 100 100 100 100 100 100
78 82 100 94 83 70 29 70 24 37 5 5 5 5 5 32 5 5 5 5 5 62 100 100 88 66 85 100 100 100 96 100 100 100 100 98 100 100 100 100 100 100 100
41 98 100 99 91 95 14 86 47 5 5 5 5 9 31 66 5 5 5 9 95 100 100 100 100 98 100 100 99 100 100 100 100 100 100 100 100 100 92 100 100 100 100
98 100 100 100 74 13 65 5 5 5 5 5 7 78 96 96 79 6 20 100 100 100 99 100 100 100 100 100 100 100 100 100 100 100 98 99 92 86 97 100 100 100 100
79 80 13 9 61 20 5 5 5 5 9 89 88 95 99 94 99 100 92 100 100 100 100 100 100 100 97 100 100 100 100 95 100 100 99 100 98 79 100 94 100 100 100
62 7 5 73 20 5 5 5 5 68 98 98 98 100 98 100 94 96 98 100 100 100 100 100 100 100 100 100 99 100 100 98 94 100 100 100 100 100 100 100 100 100 100
34 5 5 13 5 5 5 5 78 100 100 100 100 98 100 96 100 100 76 100 100 100 100 100 100 100 100 100 100 100 100 100 100 100 100 100 100 100 100 100 100 100 100
18 50 45 5 18 81 86 90 100 100 100 100 100 100 100 100 100 100 99 99 100 100 100 100 100 100 100 100 100 100 100 100 100 100 100 100 100 100 84 98 100 100 100
98 100 49 19 96 92 85 97 99 100 100 100 100 100 100 100 100 100 100 100 100 100 100 100 100 100 100 100 100 100 100 100 97 100 100 100 100 100 100 100 100 100 100
100 100 44 99 99 91 97 96 93 100 86 100 100 100 100 100 100 98 100 100 100 100 100 100 100 100 100 100 100 100 100 100 100 100 100 100 100 100 100 100 100 100 100
100 100 99 100 100 100 100 100 100 51 13 15 49 74 100 99 100 100 100 100 100 100 100 100 100 100 100 100 100 100 100 100 100 100 100 100 100 100 100 100 100 97 99
100 100 100 100 100 100 100 100 100 100 99 80 41 56 100 100 100 100 100 100 100 100 100 100 100 100 100 100 100 100 100 100 100 100 100 100 100 100 100 100 100 100 100
100 100 100 100 100 100 100 100 100 100 100 100 100 62 89 100 100 100 100 100 100 100 100 100 100 100 100 100 100 100 100 100 100 100 100 100 100 100 100 100 100 100 100
100 100 100 100 100 98 100 100 100 100 100 100 100 100 100 100 99 99 100 100 100 100 100 100 100 100 100 100 100 100 100 100 100 100 100 100 100 100 100 100 100 100 100
100 100 100 100 100 100 100 100 100 100 100 100 100 100 100 100 100 100 100 100 100 100 100 100 100 100 100 100 100 100 100 100 100 100 100 100 100 100 100 100 100 100 100
100 100 100 100 100 100 100 100 100 100 100 100 100 100 8 100 100 100 100 100 100 100 100 100 100 100 100 100 100 100 100 100 100 100 100 100 100 100 100 100 100 100 100
100 100 100 100 100 100 100 100 100 100 100 100 100 100 37 100 100 100 100 100 100 100 100 100 100 100 100 100 100 100 100 100 100 100 100 100 100 100 100 100 100 100 100
100 100 100 100 100 100 100 100 100 100 100 100 100 100 100 100 100 100 100 100 100 100 100 100 100 100 100 100 100 100 100 100 100 100 100 100 100 100 100 100 100 100 100
100 100 100 100 100 98 100 100 100 100 100 100 100 100 100 100 100 100 100 100 100 100 100 100 100 100 100 100 100 100 100 100 100 100 100 100 100 100 100 100 100 100 100
100 97 100 100 100 100 100 100 100 100 100 100 100 100 100 100 100 100 100 100 100 100 100 100 100 100 100 100 100 100 100 100 100 100 100 100 100 74 96 96 100 100 100
100 100 100 100 100 100 100 100 100 100 100 100 100 100 100 100 100 100 100 100 100 100 100 100 100 100 100 100 100 100 100 100 100 100 98 82 54 46 34 26 68 92 99

GFSGL_prec_cloud_027.txt.gz
Cloud_Cover
45 16 10 43 92 30 8 90 100 100 100 91 63 57 16 80 100 100 93 75 76 98 100 100 100 100 100 100 100 100 100 100 100 100 100 100 100 100 100 88 5 18 95
42 89 100 99 20 84 100 100 88 54 70 80 97 99 100 81 92 91 74 99 100 99 99 100 100 100 100 100 100 100 100 100 100 100 100 100 100 100 80 80 83 68 95
100 100 100 100 100 88 42 44 77 81 82 99 100 93 73 99 92 98 58 94 61 14 5 5 8 5 35 98 100 100 100 100 100 88 100 100 100 100 100 25 66 95 50
100 96 40 11 46 97 62 11 100 95 97 100 100 99 100 100 100 100 93 23 5 5 5 5 5 46 62 73 73 86 100 100 100 100 100 100 94 87 96 92 54 64 37
58 14 35 62 100 53 55 21 57 59 92 96 100 100 82 63 86 10 0 5 5 5 5 5 31 86 22 24 35 92 82 69 98 100 100 100 100 100 45 62 92 74 20
94 5 40 83 100 92 73 84 100 99 100 98 5 5 80 92 96 5 5 2 5 5 29 60 90 100 100 100 86 25 100 100 100 100 98 100 100 100 100 100 100 89 93
5 49 71 100 97 100 100 100 100 95 8 5 5 73 99 100 91 5 5 5 5 62 100 100 100 100 100 100 98 98 99 97 83 83 98 93 99 100 100 100 95 100 100
11 72 100 99 100 89 100 100 90 5 5 5 49 66 98 100 87 5 5 31 95 99 100 100 100 85 91 73 96 100 100 100 100 91 93 82 98 98 100 96 100 100 95
48 100 83 100 100 100 100 55 5 6 21 68 86 71 69 95 100 56 65 99 100 100 100 100 100 93 100 100 100 100 96 96 100 99 88 65 59 46 43 92 91 99 99
100 100 100 100 100 100 75 5 12 63 100 67 58 84 99 97 99 87 40 99 99 100 100 100 100 100 94 92 99 100 84 100 100 100 89 87 97 99 100 99 97 100 94
100 100 96 100 100 92 70 18 94 100 85 44 38 62 92 99 99 98 97 100 99 100 100 100 100 100 100 100 98 100 100 100 100 100 100 100 99 99 100 100 100 100 100
100 100 100 100 100 99 63 98 100 100 100 39 94 90 100 100 100 100 100 67 99 100 100 99 100 100 100 100 100 100 100 100 100 100 100 100 100 100 100 100 100 100 100
99 68 100 100 100 100 86 100 100 99 99 100 100 100 100 100 100 100 88 95 100 100 100 100 100 100 100 100 100 100 100 100 100 100 100 98 100 100 100 100 100 100 100
99 91 100 100 100 100 100 100 100 100 100 100 100 100 100 100 100 100 99 100 100 100 100 100 100 100 100 100 100 100 100 100 100 100 100 100 99 100 100 98 75 99 100
80 99 100 100 100 100 100 100 99 100 78 53 76 97 100 100 99 99 100 100 100 100 100 100 100 100 100 100 100 100 100 100 100 100 100 100 100 93 100 100 88 87 91
90 100 100 100 100 100 100 99 100 58 18 5 5 14 81 74 98 100 100 100 100 100 100 100 100 100 100 100 100 100 100 100 100 100 100 100 100 100 94 93 100 97 98
100 100 100 100 100 100 100 100 100 100 94 51 77 43 38 6 99 100 100 100 100 100 100 100 100 100 100 100 100 100 100 100 100 100 100 100 100 100 100 100 96 86 95
87 80 100 100 100 100 100 100 100 100 100 99 99 76 34 59 72 100 100 100 100 100 100 100 100 100 100 100 100 100 100 100 100 100 100 100 100 100 100 100 100 100 100
100 100 100 100 100 100 100 100 100 100 100 100 100 100 99 22 86 98 100 100 100 100 100 100 100 100 100 100 100 100 100 100 100 100 100 100 100 100 100 100 100 100 100
98 97 99 100 100 100 100 100 100 100 100 100 100 100 100 54 100 100 100 100 100 100 100 100 100 100 100 100 100 100 100 100 100 100 100 100 100 100 100 100 100 100 100
100 100 100 100 100 100 100 100 100 100 100 100 100 89 5 37 100 100 100 100 100 100 100 100 100 100 100 100 100 100 100 100 100 100 100 100 100 100 100 100 100 100 100
100 100 100 100 100 100 100 100 100 100 100 100 100 100 66 99 100 100 100 100 100 100 100 100 100 100 100 100 100 100 100 100 100 100 100 100 100 100 100 100 100 100 100
100 100 100 100 100 100 100 100 100 100 100 100 100 100 100 100 100 100 100 100 100 100 100 100 100 100 100 100 100 100 100 100 100 100 100 100 100 100 100 100 100 100 100
100 100 100 100 100 100 99 100 100 100 100 100 100 100 100 100 100 100 98 100 100 100 100 100 100 100 100 100 100 100 100 100 100 100 100 100 100 100 100 100 99 100 100
94 100 100 100 100 100 100 100 100 100 100 100 100 100 100 100 100 100 100 100 100 100 100 100 100 100 100 100 100 100 100 100 100 100 100 100 100 100 100 99 73 100 90
100 100 100 100 100 100 100 100 100 100 100 100 100 100 100 100 100 100 100 100 100 98 100 100 100 100 100 100 100 100 100 100 100 100 100 100 96 69 54 86 65 92 86

GFSGL_prec_cloud_030.txt.gz
Cloud_Cover
100 86 32 6 9 9 16 38 5 5 1 12 91 22 48 100 86 75 62 23 91 34 95 88 89 93 66 95 100 100 78 99 98 100 97 100 100 90 100 100 100 100 99
17 5 57 25 43 57 11 68 48 24 97 100 97 100 99 100 100 98 11 86 30 66 100 90 94 78 98 17 25 76 92 98 68 33 95 100 100 100 100 100 100 100 91
72 98 67 27 100 100 81 6 3 5 65 59 79 84 96 65 87 76 17 98 79 6 3 0 4 5 24 70 59 57 71 23 49 69 83 79 6 94 100 100 100 94 81
92 93 100 48 59 9 5 5 5 5 5 14 57 80 78 5 5 5 29 5 5 3 0 0 0 4 5 41 72 40 5 22 17 5 37 100 100 66 8 58 73 99 93
94 70 41 5 5 3 21 23 44 5 23 60 46 31 5 5 5 75 6 5 5 0 0 0 1 5 12 84 100 76 30 16 45 6 94 82 30 9 79 27 40 5 5
5 66 54 100 59 5 21 41 9 78 75 100 6 5 45 100 55 5 1 5 4 5 0 1 5 27 25 100 97 76 90 12 49 71 60 100 100 100 100 66 8 5 5
5 62 96 55 49 19 5 58 92 75 100 9 5 6 64 39 5 5 5 5 5 5 12 64 10 10 66 98 79 94 80 95 99 66 37 42 76 93 56 10 27 89 86
4 19 18 26 5 3 39 100 99 85 23 5 5 84 59 5 2 5 5 5 5 5 59 7 14 5 5 42 55 17 30 89 91 100 97 69 97 64 100 100 99 95 100
13 100 100 100 52 5 6 100 100 88 47 40 98 100 12 3 3 65 68 10 5 5 5 22 100 98 93 92 97 70 10 13 82 100 99 99 89 79 88 83 80 92 84
32 100 61 100 100 100 16 77 100 100 70 97 100 100 6 5 67 100 100 99 91 72 6 15 88 100 100 99 91 97 83 70 76 100 100 100 99 98 100 95 63 100 99
22 100 98 87 100 100 13 85 100 100 100 100 100 28 5 44 99 99 64 81 100 98 48 76 81 100 100 100 99 95 90 100 100 100 100 100 100 100 100 99 92 100 100
4 6 100 100 100 93 95 99 100 100 100 100 17 5 9 100 99 100 98 100 98 52 100 100 100 100 100 100 100 100 100 100 100 100 100 100 100 100 100 99 100 98 100
4 11 100 100 100 99 100 97 100 100 100 43 10 28 88 50 6 86 13 63 60 99 93 100 100 100 100 100 100 100 100 100 100 100 100 100 100 100 100 96 100 90 92
5 90 87 46 97 81 100 99 99 100 41 61 96 12 5 5 5 5 42 81 100 96 100 100 100 100 100 100 100 100 100 100 100 100 100 100 100 100 98 99 90 22 8
19 85 26 68 94 65 95 72 100 27 5 55 42 5 5 5 39 100 100 100 100 100 100 100 100 100 100 100 100 100 100 100 100 100 100 100 99 90 100 96 83 94 100
98 88 33 91 86 54 11 42 66 54 5 43 5 13 10 32 94 100 100 100 100 100 100 100 100 100 100 100 100 100 100 100 100 100 99 100 99 84 82 89 89 39 77
72 30 10 37 14 45 83 99 100 76 97 43 56 78 83 78 99 100 100 100 100 100 100 100 100 100 100 100 100 100 100 100 100 100 99 87 100 82 92 95 93 88 5
91 56 76 100 100 100 99 100 100 100 100 96 91 79 100 98 20 76 100 93 89 100 100 100 100 100 100 100 100 100 100 100 100 100 100 99 100 100 100 100 100 100 100
100 100 100 100 100 100 100 100 100 100 100 100 100 100 99 20 2 94 95 94 100 100 100 100 100 100 100 100 100 100 100 100 100 100 100 100 100 100 100 100 100 100 100
57 99 99 100 100 100 100 100 100 100 100 100 100 100 86 5 5 85 96 100 100 90 100 100 100 100 100 100 100 100 100 100 100 100 100 100 100 100 100 100 100 100 100
78 97 100 100 100 100 100 100 100 100 100 100 100 100 80 18 48 85 97 100 98 44 99 100 100 100 100 100 100 100 100 100 100 100 100 100 100 100 100 100 100 100 100
70 99 100 100 100 100 100 100 96 100 100 100 100 100 72 65 100 80 64 100 100 91 73 100 100 100 100 100 100 100 100 100 100 100 100 100 100 100 100 100 100 100 100
99 100 100 100 100 100 100 100 100 100 100 100 97 100 100 100 100 100 71 78 100 100 47 92 100 100 100 100 100 100 100 100 100 100 100 100 100 100 100 100 100 100 88
99 100 100 100 100 100 100 100 100 100 100 100 100 100 98 100 100 96 62 93 21 91 64 62 100 100 100 100 100 100 100 100 100 100 100 100 100 100 100 100 100 100 100
79 100 100 100 98 100 100 99 100 100 100 100 100 100 100 96 100 99 70 95 75 16 5 49 74 100 100 100 100 100 100 100 100 100 100 100 100 100 100 100 100 100 100
47 97 100 100 100 100 100 96 100 100 100 100 100 100 99 92 93 100 32 5 24 36 5 19 76 95 100 100 100 100 100 100 100 100 100 100 100 100 100 100 98 68 65

GFSGL_prec_cloud_033.txt.gz
Cloud_Cover
88 100 97 79 100 100 96 63 5 1 3 5 12 94 100 99 100 100 100 94 98 64 81 85 13 74 66 51 27 68 81 75 60 5 5 48 100 100 100 100 100 100 100
70 38 14 96 76 64 63 5 5 5 5 5 48 99 100 100 100 100 99 99 92 44 28 90 38 99 3 0 2 39 55 39 5 5 5 5 52 100 40 58 100 65 100
34 5 32 4 5 1 0 5 3 0 5 5 52 74 29 82 96 95 67 5 7 63 99 100 86 6 0 0 0 1 1 3 5 5 9 5 5 25 91 48 100 100 96
76 14 2 0 0 0 5 5 5 1 5 10 98 92 29 5 5 3 5 56 37 22 4 3 1 0 0 1 5 5 30 25 5 0 6 21 5 5 17 70 54 89 36
5 3 0 3 1 1 5 5 4 0 5 5 58 58 88 7 5 5 5 5 5 5 5 4 1 4 48 6 100 40 20 57 5 5 5 5 49 50 41 40 16 12 7
5 93 100 95 100 100 64 64 24 12 60 5 5 88 5 0 5 5 5 5 5 5 5 5 5 5 5 69 99 82 100 100 99 100 100 80 46 8 48 6 5 5 33
5 89 96 98 30 58 100 100 100 100 98 14 37 95 5 26 5 5 5 5 5 5 5 5 0 4 5 5 18 76 97 99 100 98 99 15 6 5 89 93 41 14 6
100 45 52 20 33 98 100 96 100 100 100 100 31 28 94 100 5 5 5 5 5 5 5 5 5 5 5 26 57 39 5 5 74 89 92 17 99 64 100 83 73 72 94
1 0 6 5 94 97 100 100 99 99 99 100 98 68 79 10 5 5 5 7 26 5 5 5 12 5 5 92 89 70 50 6 76 98 100 99 92 82 100 100 100 97 99
5 7 4 0 40 100 100 100 100 98 98 100 71 96 6 5 5 7 11 28 43 16 8 90 100 82 84 99 100 99 94 52 5 8 83 81 70 100 100 90 84 100 96
5 5 3 3 5 100 100 100 97 97 49 73 99 11 5 5 5 42 91 95 100 95 100 80 94 98 95 100 99 100 91 90 99 93 100 100 100 100 100 100 100 100 100
1 1 3 6 50 91 98 100 100 84 32 5 6 5 5 5 1 6 6 26 90 100 75 98 100 100 100 100 100 100 100 100 100 100 100 100 100 100 100 100 97 100 100
5 5 5 77 90 100 100 100 89 5 5 5 5 5 18 5 5 5 5 44 51 33 53 100 100 100 100 100 100 100 100 100 100 100 100 100 100 100 100 100 100 87 82
5 5 11 5 41 96 88 99 50 5 5 5 5 7 60 5 5 7 13 42 92 32 80 100 100 100 100 100 100 100 100 100 100 100 100 100 100 100 100 97 79 82 74
13 37 100 92 100 100 98 49 5 23 5 5 5 28 56 75 37 96 100 100 100 100 86 100 100 100 100 100 100 100 100 100 100 100 100 100 100 100 100 91 57 85 95
100 37 99 84 99 80 25 5 27 15 5 5 5 26 70 74 22 95 100 100 100 100 70 100 100 100 100 100 100 100 100 100 100 100 100 100 100 89 99 76 70 78 83
88 68 56 63 95 92 90 91 94 48 13 24 90 48 87 78 46 100 100 94 12 84 66 100 100 100 100 100 100 100 100 100 100 100 100 100 98 99 89 71 91 81 65
98 100 100 100 100 100 100 100 100 100 87 53 46 7 63 79 94 53 69 5 22 19 43 98 100 100 100 100 100 100 100 100 100 100 100 100 100 100 88 72 69 89 91
100 100 100 100 100 100 100 100 100 100 100 100 86 40 69 98 95 5 5 46 69 25 25 84 100 100 100 100 100 100 100 100 100 100 100 100 100 100 100 97 77 100 70
98 88 100 100 100 100 100 98 100 100 100 100 100 76 80 96 21 55 64 63 54 23 54 60 98 100 100 100 100 100 100 100 100 100 100 100 100 100 100 100 86 88 87
91 95 100 100 100 100 99 100 100 99 100 77 70 94 92 69 12 77 88 70 58 46 15 24 81 100 100 100 100 100 100 100 100 100 100 100 100 100 100 100 100 78 82
100 100 100 100 100 100 100 100 99 89 71 79 72 81 56 52 69 83 78 68 67 28 54 24 63 97 100 100 100 100 100 100 100 100 100 100 100 100 100 100 100 59 43
100 100 100 100 100 100 100 100 100 96 100 92 97 71 69 77 91 85 92 69 68 56 35 5 37 95 100 100 100 100 100 100 100 100 100 100 100 100 100 100 100 71 63
64 100 94 100 100 100 98 100 100 94 97 98 100 84 87 82 87 87 72 56 61 54 47 5 5 59 100 100 100 100 100 100 100 100 100 100 100 100 100 100 100 94 59
100 71 38 100 100 100 100 100 100 100 100 100 100 99 88 94 80 82 20 53 52 7 27 5 5 11 98 100 100 100 100 100 100 100 100 100 100 100 100 100 100 100 71
100 96 37 72 99 100 100 100 100 92 90 100 100 100 95 70 76 98 100 82 58 37 27 5 5 5 58 98 100 100 100 100 100 100 100 100 100 100 100 100 100 94 78

GFSGL_prec_cloud_036.txt.gz
Cloud_Cover
98 76 25 36 7 5 1 0 0 0 4 0 0 5 5 5 5 10 14 30 67 77 55 68 100 37 100 91 73 42 28 1 16 5 17 5 5 5 22 79 100 100 100
5 5 5 5 1 0 0 0 0 1 5 5 0 5 4 3 5 5 5 5 5 5 6 90 100 100 64 35 5 5 0 0 1 1 5 2 5 5 5 5 6 100 100
5 2 3 4 5 0 4 1 0 4 5 44 3 9 4 39 5 5 5 5 5 10 100 100 79 28 0 0 2 5 1 1 4 66 17 5 5 2 8 86 11 13 92
4 31 5 5 5 5 10 6 47 80 98 100 100 98 74 95 73 18 4 5 5 5 5 5 5 3 5 15 59 76 44 16 7 5 5 5 5 1 2 50 89 5 6
98 26 25 5 40 61 7 55 81 100 100 100 100 100 100 96 58 2 5 5 5 11 5 5 1 2 5 58 100 100 100 88 66 72 91 89 12 5 5 2 7 100 11
74 64 81 74 27 6 6 91 31 82 100 100 100 100 100 90 0 5 5 6 5 5 5 4 4 3 1 5 5 5 98 100 91 86 95 87 5 5 5 5 5 9 81
75 17 1 0 1 3 5 5 30 100 100 100 100 100 95 5 5 5 5 5 5 5 5 5 5 5 5 5 5 5 20 28 84 99 99 69 18 5 5 9 8 24 11
5 1 0 0 4 78 46 56 27 100 100 100 100 99 20 94 5 5 5 5 5 5 5 5 5 5 5 34 77 91 99 86 58 48 73 14 5 5 76 23 23 71 66
1 0 3 5 5 2 56 85 16 100 100 100 97 82 83 16 5 5 5 11 5 5 5 5 22 50 75 100 100 92 67 100 100 75 42 45 96 97 88 94 94 100 98
0 1 5 5 3 15 98 45 45 98 100 100 71 99 5 5 5 6 37 89 69 39 62 16 12 100 100 100 100 100 100 100 98 87 22 5 5 5 6 12 84 23 93
0 5 5 5 5 92 99 83 93 100 100 99 71 5 5 5 4 5 28 5 20 99 54 31 23 100 100 100 100 100 100 100 100 99 100 100 96 88 100 100 89 95 100
5 5 5 5 5 11 21 86 98 100 100 59 5 5 5 5 5 5 5 13 50 36 64 66 94 100 100 100 100 100 100 100 100 100 100 100 100 100 100 99 98 100 100
86 37 5 27 5 81 86 90 100 100 100 8 26 46 40 5 5 5 4 47 5 46 78 100 100 100 100 100 100 100 100 100 100 100 100 100 100 100 100 100 100 100 94
80 100 43 95 99 96 100 100 100 58 21 35 16 23 69 5 5 5 29 56 5 36 73 38 60 100 100 100 100 100 100 100 100 100 100 100 100 100 100 100 100 92 75
100 100 100 100 94 100 100 83 5 32 5 5 10 31 66 82 21 73 100 100 82 97 76 53 64 99 100 100 100 100 100 100 100 100 100 100 100 100 100 97 84 49 70
100 100 100 100 100 100 100 100 100 78 5 5 42 59 44 63 41 92 100 95 14 83 36 80 65 100 100 100 100 100 100 100 100 100 100 99 98 98 96 93 58 84 94
100 100 100 100 100 100 100 100 99 30 5 5 5 5 6 66 56 92 100 20 5 5 78 84 83 73 100 100 100 100 100 100 100 100 100 100 100 98 96 91 46 30 79
100 100 100 100 100 100 100 100 100 85 100 46 8 6 5 5 16 54 15 5 16 10 57 76 98 100 90 100 100 100 100 100 100 100 100 100 100 100 87 92 87 84 90
100 100 100 100 100 100 100 100 100 99 100 100 67 24 62 76 71 5 5 55 67 51 56 66 75 89 66 91 100 100 100 100 100 100 100 100 100 100 100 100 88 96 88
100 98 99 100 100 100 100 100 100 100 100 100 78 78 80 80 13 49 84 92 71 55 67 60 67 72 73 91 92 100 100 100 100 100 100 100 100 100 100 100 100 98 65
100 100 100 100 100 100 100 100 100 100 100 95 79 73 68 14 51 62 78 99 73 65 63 54 63 66 69 96 100 96 100 100 100 100 100 100 100 100 100 100 100 95 68
31 8 62 100 100 100 100 100 100 97 94 100 98 85 97 67 92 91 92 94 69 45 24 20 53 60 55 66 100 100 100 100 100 100 100 100 100 100 100 100 100 100 100
24 93 64 45 100 98 100 100 100 100 100 95 91 87 91 88 72 81 71 49 91 81 64 58 53 40 39 54 97 100 100 100 100 100 100 100 100 100 100 100 100 100 98
98 100 100 98 100 100 100 100 98 95 78 92 89 75 95 90 74 100 82 54 91 89 80 44 52 6 5 27 86 100 100 100 100 100 100 100 100 100 100 100 100 100 100
100 96 94 100 96 88 100 100 100 100 91 85 79 99 98 93 87 76 84 82 79 88 66 28 47 24 5 5 13 90 100 100 100 100 100 100 100 100 100 100 100 100 100
100 99 76 84 79 40 40 100 100 100 96 76 85 82 86 93 81 87 60 53 61 81 88 18 39 5 5 9 5 27 99 100 100 100 100 100 100 100 100 100 100 100 99

GFSGL_prec_cloud_039.txt.gz
Cloud_Cover
6 5 17 11 5 5 1 0 0 0 3 5 5 13 5 5 3 5 6 5 5 5 2 5 8 100 92 94 40 49 8 44 5 2 2 0 0 0 0 0 0 1 5
9 8 5 5 4 0 5 5 3 5 5 83 99 33 100 100 100 75 89 20 47 5 19 91 76 51 28 31 8 5 5 5 5 5 5 5 38 6 4 0 0 0 0
5 5 4 4 5 5 5 5 23 5 88 5 5 12 84 74 93 100 100 100 98 5 4 5 5 5 27 5 5 5 6 64 96 94 17 19 69 23 5 2 0 0 5
5 5 5 9 16 5 10 8 5 4 36 6 43 100 98 100 100 100 100 98 5 5 5 5 5 5 5 5 5 5 98 100 100 100 99 100 99 16 5 5 3 5 4
5 5 5 5 4 1 0 17 9 23 5 5 93 100 100 100 100 95 30 7 5 5 5 5 5 5 5 34 29 5 20 74 99 100 87 93 92 77 17 5 5 5 5
5 5 5 5 0 0 0 0 0 0 40 73 100 100 100 100 85 79 51 5 5 5 5 5 5 5 5 21 5 5 37 84 94 99 99 95 83 5 8 5 5 13 56
5 12 5 0 0 0 0 2 2 39 76 44 97 100 100 76 36 21 5 5 5 10 24 5 5 28 5 5 5 5 10 8 58 100 100 100 96 8 6 17 5 18 59
19 5 5 3 2 0 5 18 29 84 80 71 26 62 93 100 81 5 5 5 5 5 5 5 5 21 17 100 100 98 80 96 91 91 100 99 86 100 93 38 16 100 99
5 5 5 5 5 5 34 92 100 91 87 56 94 100 97 38 5 8 6 5 5 5 5 5 83 73 86 100 88 100 100 100 86 74 72 96 91 88 94 100 100 100 94
5 5 5 5 5 5 7 22 55 5 86 100 98 74 6 5 5 5 63 31 72 34 7 5 5 99 100 100 100 100 100 100 100 100 100 87 96 8 5 9 5 84 97
2 5 66 19 23 5 8 5 34 84 100 100 87 99 5 5 5 5 5 5 5 32 63 79 6 91 100 100 100 100 100 100 100 100 100 100 100 93 86 66 72 83 98
5 62 90 8 59 5 82 100 97 100 72 80 94 6 8 5 5 5 5 68 80 58 100 83 93 99 100 100 100 100 100 100 100 100 100 100 100 100 100 100 100 100 100
25 89 100 84 5 32 95 83 100 100 86 58 64 69 30 5 5 5 5 83 28 5 76 36 92 64 100 100 100 100 100 100 100 100 100 100 100 100 100 100 100 100 100
100 100 100 70 74 100 100 100 100 94 93 46 67 67 65 5 44 5 59 97 9 8 5 5 5 37 100 100 100 100 100 100 100 100 100 100 100 100 100 100 100 100 100
35 56 99 66 99 99 100 100 100 100 87 27 13 41 84 96 48 41 100 96 9 5 24 48 28 26 84 100 100 100 100 100 100 100 100 100 100 100 100 100 100 100 100
100 100 97 73 99 100 100 99 98 100 100 97 47 34 62 45 74 73 97 38 15 5 33 91 98 90 82 100 100 100 100 100 100 100 100 100 100 100 100 100 100 100 98
100 91 95 100 100 100 100 100 100 92 98 99 5 5 5 15 5 54 48 5 5 5 59 75 100 100 93 97 100 100 100 100 100 100 100 100 100 100 100 100 93 94 100
89 90 100 100 100 100 100 100 100 100 98 59 28 5 7 5 5 5 5 5 13 5 60 75 100 100 89 92 99 100 100 100 100 100 100 100 100 100 94 93 97 97 95
100 99 100 99 100 100 100 100 100 100 100 96 63 13 79 14 51 9 18 42 59 52 55 60 76 100 82 75 92 100 100 100 100 100 100 100 100 100 100 97 89 77 78
100 100 100 100 100 100 100 100 100 100 100 100 80 70 82 82 21 65 85 100 96 60 66 61 30 74 73 75 90 87 100 100 100 100 100 100 100 100 100 99 94 97 97
100 98 80 86 59 87 100 100 100 94 100 79 64 89 79 95 84 74 70 88 90 68 58 17 61 67 65 67 73 65 100 100 100 100 100 100 100 100 100 100 100 100 100
90 73 21 50 5 51 85 100 100 100 86 84 56 65 77 90 84 78 85 82 63 39 32 12 25 57 63 30 64 58 61 100 100 100 100 100 100 100 100 100 100 100 100
100 100 97 69 79 92 76 93 98 97 100 91 75 93 98 98 96 80 69 68 66 64 63 60 66 58 57 55 62 58 61 84 100 100 100 100 100 100 100 100 100 100 100
100 100 98 94 87 96 100 91 100 84 86 100 100 97 88 90 99 84 70 76 57 74 100 63 34 5 5 47 60 61 61 53 89 100 100 100 100 100 100 100 100 100 100
100 99 99 94 98 90 94 90 56 59 98 88 100 100 100 100 99 96 80 87 56 84 79 98 45 5 5 10 29 17 27 5 38 97 100 100 100 100 100 100 100 100 100
96 98 100 93 90 80 86 83 95 65 84 100 100 100 100 100 100 100 100 100 90 64 72 60 47 5 5 39 13 17 5 5 5 25 93 100 100 100 100 100 100 100 100

GFSGL_prec_cloud_042.txt.gz
Cloud_Cover
75 5 19 73 79 74 43 5 5 1 1 5 20 82 5 14 81 100 85 82 96 58 99 77 52 26 10 31 6 5 5 14 5 3 3 3 4 5 5 12 5 4 0
27 87 76 63 22 5 5 0 1 0 4 5 22 83 5 100 100 100 100 100 99 100 100 32 3 5 5 5 5 5 5 5 47 78 51 16 5 4 81 30 4 0 0
30 5 5 5 5 3 0 0 0 3 5 2 0 1 5 100 99 97 100 100 100 51 5 5 5 3 2 5 5 5 5 10 60 91 78 63 6 69 89 90 7 1 0
5 5 5 0 0 5 5 5 5 0 0 2 5 13 94 92 100 100 100 100 12 5 5 5 5 5 5 7 30 46 36 5 38 47 39 75 58 5 98 93 73 5 0
5 5 5 5 5 5 5 5 4 0 4 5 79 88 100 100 99 100 100 5 5 5 5 5 5 14 93 100 100 99 100 73 99 99 100 96 94 92 79 99 93 26 5
5 5 5 5 5 48 18 5 0 3 33 83 100 67 7 88 87 100 82 5 5 7 29 5 5 5 5 100 98 91 99 100 100 100 100 100 92 64 8 95 100 77 39
18 21 14 95 96 24 4 0 14 61 66 68 20 5 13 44 5 70 6 5 5 5 5 5 5 40 25 23 5 49 35 96 100 100 100 100 98 78 93 98 48 54 60
60 95 100 100 49 5 5 4 5 48 95 11 72 5 5 8 83 6 5 5 5 5 5 5 48 36 9 100 95 79 100 100 100 100 100 100 92 72 100 83 86 74 27
100 100 100 80 5 5 5 5 42 49 99 89 5 5 14 20 5 5 5 5 5 5 5 5 80 77 85 100 100 86 85 100 100 100 100 100 100 100 100 100 98 100 100
100 100 51 5 43 36 5 27 62 7 93 72 81 86 30 78 5 5 6 5 33 11 5 5 6 98 100 100 98 100 100 100 100 100 100 100 100 100 100 94 77 100 100
62 71 5 5 100 100 59 74 97 91 97 100 95 74 84 5 5 5 24 60 23 83 36 77 54 93 100 100 100 95 100 100 100 100 100 100 100 100 100 100 98 75 88
5 5 17 48 93 94 7 84 100 100 97 65 68 74 6 5 5 5 5 92 99 46 12 74 22 100 100 100 100 100 100 100 100 100 100 100 100 100 100 100 100 100 100
71 70 96 97 87 56 96 84 98 98 100 86 73 74 31 5 5 10 5 71 50 5 6 27 21 13 11 56 98 100 100 100 100 100 100 100 100 100 100 100 100 100 100
100 28 60 97 81 83 100 85 96 76 76 77 73 72 66 6 55 6 29 79 19 5 5 5 5 5 5 32 100 100 100 100 100 100 100 100 100 100 100 100 100 100 100
48 68 54 64 70 50 100 87 56 100 99 82 100 48 90 94 38 21 96 95 5 5 22 36 16 14 5 40 63 98 100 100 100 100 100 100 100 100 100 100 100 100 100
100 100 98 66 70 26 30 38 79 92 94 100 100 83 76 26 18 75 91 23 5 5 5 82 100 100 91 90 100 100 100 100 100 100 100 100 100 100 100 100 100 99 97
100 100 79 100 97 54 7 38 90 88 100 100 100 62 42 9 10 44 6 5 5 5 5 45 100 100 99 57 95 97 100 100 100 100 100 100 100 100 100 99 87 86 87
99 94 90 99 95 90 100 91 77 100 100 90 99 86 28 55 18 5 5 5 5 5 5 60 78 100 99 57 96 92 83 100 100 100 100 100 100 100 100 96 93 83 79
100 100 93 92 85 86 99 90 100 98 100 100 100 96 91 93 98 80 32 22 27 53 5 5 47 77 77 38 93 97 92 88 100 100 100 100 100 100 98 100 98 73 52
100 100 100 100 70 14 77 92 87 86 78 100 100 73 100 100 94 68 79 99 97 68 54 5 5 9 68 40 94 100 62 64 96 100 100 100 100 100 100 99 98 95 87
100 100 100 100 11 22 89 98 100 96 78 91 94 90 100 94 73 97 80 83 97 89 66 16 47 47 50 61 7 71 50 81 51 100 100 100 100 100 100 100 100 100 100
84 88 100 100 97 60 41 52 49 54 62 69 71 98 99 100 95 99 95 69 60 61 58 30 21 5 5 16 20 99 64 58 31 55 99 100 100 100 100 100 100 100 100
100 96 80 100 100 98 96 78 83 98 62 67 92 78 89 100 100 100 100 100 100 77 63 64 58 48 27 55 62 34 52 5 13 70 73 100 100 100 100 100 100 100 100
100 100 99 100 96 100 93 85 100 94 82 77 100 100 100 100 100 100 100 100 100 93 89 67 58 10 15 42 67 65 5 45 28 9 66 100 100 100 100 100 100 100 100
100 100 100 100 100 100 100 100 100 100 100 100 100 100 100 100 100 100 100 100 100 100 100 100 85 32 5 5 14 17 32 8 5 5 57 65 83 100 100 100 100 100 100
100 100 100 100 100 100 100 100 100 100 100 100 100 100 100 100 100 100 100 100 100 100 100 100 100 88 34 5 6 40 5 5 5 5 54 62 84 84 100 100 100 100 100

GFSGL_prec_cloud_045.txt.gz
Cloud_Cover
92 98 6 29 92 72 42 17 14 5 5 5 2 5 4 5 5 5 63 99 100 96 70 77 24 4 5 5 5 5 5 5 5 5 5 15 57 59 68 26 5 5 5
46 34 98 49 5 5 43 5 5 0 3 5 0 5 4 82 50 79 100 49 74 100 77 5 5 5 5 5 5 5 5 6 40 52 40 56 100 100 100 100 95 100 99
5 48 21 5 5 5 5 5 5 5 5 5 9 34 54 100 100 98 100 100 91 81 53 5 5 5 5 17 60 76 100 100 100 100 99 100 100 100 100 100 100 100 100
5 5 5 5 5 5 5 5 5 5 13 25 6 31 86 100 100 100 100 97 98 63 23 5 5 43 74 91 99 100 100 100 100 100 100 100 100 100 100 100 100 100 100
5 5 5 5 8 59 98 42 15 32 34 39 91 100 97 28 79 93 98 89 32 5 15 5 8 40 58 56 68 100 100 100 100 100 100 100 100 100 100 100 100 100 100
23 32 86 41 93 99 100 100 73 5 21 47 47 22 5 42 13 5 5 5 5 5 4 0 0 5 6 88 98 100 100 100 100 100 100 100 100 100 100 100 100 100 100
93 100 100 100 100 100 79 34 5 11 7 6 9 32 9 5 5 5 5 5 5 5 1 0 3 12 83 100 100 99 91 87 100 100 100 100 100 100 100 100 100 100 100
100 100 100 100 100 57 5 5 5 52 99 100 86 5 5 5 5 5 5 5 5 5 5 5 41 99 100 100 100 100 100 100 100 100 100 100 100 100 100 100 100 100 100
100 100 100 100 70 18 5 5 11 57 97 100 100 98 44 26 5 5 5 5 5 5 32 78 99 100 100 100 100 100 100 100 100 100 100 94 100 100 100 100 100 100 100
100 100 99 59 25 28 22 5 7 5 5 5 65 82 66 14 5 5 5 95 95 99 99 96 100 98 100 100 100 100 100 100 100 100 100 100 96 100 100 100 100 100 100
100 78 23 56 98 98 43 5 22 65 88 98 99 78 7 5 5 5 5 91 97 100 99 96 100 100 100 100 100 100 100 100 100 100 100 100 100 100 100 100 100 100 100
77 49 5 5 7 100 57 5 17 97 100 90 59 34 5 5 5 6 5 36 88 100 96 100 93 72 90 85 100 100 100 100 100 100 100 100 100 100 100 100 100 100 100
37 88 8 5 31 70 67 88 79 73 91 86 81 59 19 6 47 6 5 5 67 75 73 12 5 5 5 31 71 84 100 100 100 100 100 100 100 100 100 100 100 100 100
100 86 69 59 36 83 98 79 79 65 46 78 86 94 80 36 55 82 18 94 92 52 22 5 4 5 5 5 34 78 84 91 100 100 100 100 100 100 100 100 100 100 100
100 100 100 91 89 68 54 22 23 14 9 97 86 82 92 98 89 14 35 100 97 62 5 5 3 5 5 5 5 49 88 77 100 100 100 100 100 100 100 100 100 100 100
100 100 100 100 95 73 61 66 5 6 5 69 92 94 90 100 25 45 82 98 5 5 5 5 5 5 5 5 5 5 95 86 100 100 100 100 100 100 100 100 100 100 100
100 100 100 100 97 100 100 97 97 57 5 5 28 96 100 100 38 19 84 99 6 5 44 6 65 5 5 5 5 5 28 100 100 100 100 100 100 100 100 100 100 100 100
100 100 100 100 97 85 94 100 100 100 100 97 5 26 22 98 90 98 98 97 91 74 37 55 48 66 5 5 1 5 5 22 90 100 100 100 100 100 100 100 100 100 98
100 100 100 100 99 93 48 70 85 80 98 100 90 66 69 72 68 93 100 99 95 100 100 94 73 8 5 5 5 5 5 5 52 96 100 100 100 100 100 100 100 100 100
100 100 100 100 100 95 85 86 67 92 99 100 100 97 13 81 78 97 94 96 97 89 98 100 76 51 65 5 5 14 18 5 5 22 73 100 100 100 100 100 100 100 100
100 100 97 100 67 95 90 91 61 92 93 82 66 15 29 92 97 94 100 100 100 92 95 92 100 69 69 72 5 5 6 5 5 5 8 75 87 100 100 100 100 95 99
99 100 100 100 100 97 99 100 100 90 73 32 88 47 8 87 96 100 100 100 100 100 91 94 89 80 66 25 6 5 5 7 5 5 16 95 73 94 100 100 100 100 100
100 100 100 100 100 99 99 100 97 91 84 89 74 76 93 83 84 99 100 100 100 100 100 100 95 90 72 28 39 5 5 5 5 5 23 96 73 48 100 100 100 100 100
99 100 100 95 85 100 100 100 100 100 98 100 90 100 100 100 100 100 92 100 100 100 100 100 100 80 98 40 33 8 15 78 15 5 42 99 85 5 57 88 98 85 100
100 100 100 100 100 100 100 100 100 100 100 100 100 100 100 100 100 100 100 100 100 100 100 100 100 97 100 90 21 57 9 9 5 5 31 92 96 6 58 64 85 100 100
71 96 97 100 100 100 100 100 100 100 100 100 100 100 100 100 100 100 100 100 100 100 100 100 100 100 100 100 82 76 50 5 5 5 20 10 24 5 8 76 69 99 100

GFSGL_prec_cloud_048.txt.gz
Cloud_Cover
96 100 94 94 13 57 54 6 5 5 5 40 4 5 5 5 25 14 51 76 66 99 96 87 99 100 100 100 100 100 100 100 100 66 99 89 87 100 100 100 100 100 100
100 68 7 68 79 53 5 5 5 5 5 5 5 5 5 5 28 17 57 44 79 100 100 100 100 100 100 100 100 100 100 100 100 100 99 100 100 100 100 100 100 100 100
99 76 5 5 5 5 5 26 80 81 96 41 5 5 56 71 76 98 100 95 100 100 100 100 100 89 88 100 100 100 100 100 100 100 100 100 100 100 100 100 100 100 100
11 89 35 5 49 82 98 50 60 96 53 5 5 35 97 99 83 98 77 96 100 100 99 100 74 74 95 68 40 58 76 100 100 100 100 100 100 100 100 100 100 100 100
94 59 11 62 98 95 39 74 100 36 6 14 35 100 78 85 98 100 100 94 100 98 64 28 5 5 0 6 6 30 98 100 100 100 100 100 100 100 100 100 100 100 100
91 56 60 89 84 59 99 100 91 21 81 100 81 98 100 100 5 5 5 84 80 6 5 5 5 5 5 5 80 82 50 100 100 100 100 100 100 100 100 100 100 100 100
79 81 98 100 100 100 100 77 70 64 96 94 100 100 100 100 5 5 5 8 24 5 5 5 5 12 84 100 100 67 90 98 100 100 100 100 100 100 100 100 100 100 100
100 100 100 100 100 100 91 64 55 76 100 100 100 100 100 99 5 5 5 17 50 76 79 82 81 81 100 72 100 100 100 100 100 100 100 100 100 100 100 100 100 100 100
100 100 100 100 100 100 65 26 64 97 100 100 98 100 100 100 8 5 5 67 98 92 100 100 97 96 100 42 100 100 100 100 100 100 99 91 100 96 93 100 100 100 100
100 96 100 100 100 97 98 69 86 99 100 100 94 97 87 98 47 5 5 98 100 97 100 100 100 62 16 98 100 100 100 100 100 100 100 100 100 100 88 100 100 100 100
100 100 100 100 100 91 46 76 89 90 97 100 96 98 94 94 68 5 5 57 100 99 99 98 100 53 5 90 100 100 97 100 100 100 100 100 100 100 100 100 100 100 100
100 100 100 98 89 16 82 85 96 98 100 92 100 62 100 100 91 94 72 5 38 94 96 100 76 6 5 16 91 48 66 100 100 100 100 100 100 100 100 100 100 100 100
92 83 99 100 69 85 82 82 98 100 100 100 100 98 100 100 100 100 92 5 21 89 100 38 5 5 5 10 56 20 39 98 90 100 100 100 100 100 100 100 100 100 100
91 100 100 100 70 72 94 100 100 100 100 100 100 100 100 100 100 100 100 100 100 98 100 92 27 5 5 5 78 90 73 39 83 100 100 100 100 100 100 100 100 100 100
100 95 97 100 100 100 98 97 100 98 78 58 84 97 100 100 100 96 81 90 100 92 10 98 100 95 5 5 5 46 43 6 84 99 100 100 100 100 100 100 100 100 100
76 80 100 99 100 100 100 100 100 72 10 5 5 15 52 100 93 87 67 78 94 30 68 100 100 100 100 5 5 5 5 5 45 99 100 100 100 100 100 100 100 100 100
75 84 98 100 100 100 100 100 100 91 99 80 68 11 16 77 93 89 90 94 94 76 94 100 100 100 100 71 5 5 5 5 5 85 100 100 100 100 100 100 100 100 100
42 82 73 100 100 100 100 100 100 100 100 96 100 98 79 25 5 40 87 98 100 97 83 100 100 100 99 50 5 5 6 12 5 5 80 100 100 100 100 100 100 100 100
86 100 100 100 100 98 98 100 100 100 100 100 99 100 99 57 23 5 36 96 100 100 100 100 100 100 100 100 82 89 97 100 11 7 64 93 100 100 100 100 100 100 100
97 100 100 100 100 100 100 100 100 100 100 100 100 100 100 100 89 98 95 90 100 100 100 100 100 100 100 100 100 100 95 99 74 5 8 94 97 100 100 100 100 100 100
86 100 100 100 100 98 100 100 88 100 100 100 100 100 99 88 100 100 100 100 100 100 100 100 100 100 100 100 100 98 93 88 76 6 5 56 76 93 100 100 100 100 100
89 95 100 100 100 99 94 100 100 98 100 97 93 98 99 92 99 100 97 98 97 100 100 100 100 100 100 100 100 100 100 83 87 98 5 9 65 71 79 96 100 100 100
100 100 100 100 100 100 97 85 100 100 100 100 100 100 100 100 100 100 100 94 84 94 100 100 100 100 100 99 99 95 86 99 100 34 5 8 47 69 82 98 94 100 100
100 92 95 100 100 100 100 100 100 100 100 100 100 100 100 100 100 95 100 100 100 100 100 100 100 100 99 98 99 100 70 76 96 16 5 5 16 56 32 79 55 100 100
95 99 88 94 100 100 100 100 100 100 100 100 100 100 100 100 100 100 100 100 100 100 100 100 100 100 96 97 96 93 89 70 59 22 5 33 48 7 5 46 25 57 99
89 100 100 92 82 100 100 100 100 100 100 100 100 100 100 100 100 100 100 100 100 100 100 100 100 100 100 100 99 95 100 100 86 72 23 5 11 44 36 77 48 5 15

GFSGL_prec_cloud_051.txt.gz
Cloud_Cover
99 100 73 95 96 17 17 14 5 5 5 5 5 5 5 5 5 76 100 100 99 94 52 89 95 100 99 100 100 86 100 100 38 11 11 91 97 52 86 67 24 49 11
96 100 99 98 49 6 66 8 5 5 5 5 5 5 5 5 5 53 97 94 46 99 100 100 87 100 100 100 100 100 100 100 72 58 38 90 86 65 71 65 53 100 83
91 22 86 28 19 54 5 5 19 44 8 5 6 20 5 8 21 14 33 62 76 78 93 96 98 100 100 83 52 12 16 5 10 47 47 98 96 99 64 93 94 100 100
94 99 16 39 16 62 23 86 90 69 62 41 27 24 5 99 57 78 75 97 100 96 94 100 100 71 18 5 4 5 13 67 82 89 94 100 100 100 96 99 100 100 100
53 12 24 60 89 57 79 83 91 99 60 8 49 58 100 73 99 91 76 91 90 99 100 94 54 37 4 0 2 5 98 100 100 100 100 100 100 100 100 100 100 100 100
99 98 100 68 73 82 88 100 100 41 6 66 84 98 100 100 61 65 12 20 89 100 99 51 60 43 97 5 39 69 68 44 100 100 100 100 100 100 100 100 100 100 95
100 100 82 99 100 100 100 99 63 53 28 69 94 85 56 97 27 96 93 65 34 84 100 98 91 87 89 61 55 21 91 100 100 99 96 99 100 100 100 100 86 100 100
100 100 100 100 100 100 100 98 50 22 50 93 86 99 39 100 83 100 50 5 45 100 100 100 100 98 100 5 12 47 100 100 100 100 100 100 100 100 94 89 74 55 86
100 100 100 100 100 100 100 73 42 36 99 100 70 91 93 100 71 23 6 14 90 94 100 100 98 99 92 5 5 85 100 100 100 100 100 62 64 65 59 92 92 100 100
100 100 100 100 100 100 97 100 100 100 100 90 19 100 100 94 72 6 6 24 98 100 98 99 92 5 5 5 5 98 100 100 85 99 100 100 100 100 100 96 99 100 99
100 100 100 100 100 100 98 100 100 100 62 5 96 82 82 98 97 48 92 100 100 100 99 98 96 54 5 5 9 95 94 29 40 95 100 100 100 100 100 85 64 74 95
100 100 100 100 100 100 100 100 98 95 97 98 100 40 77 98 99 71 91 100 100 100 99 98 96 12 5 5 10 31 5 27 100 100 100 100 100 100 99 98 92 71 68
100 100 100 100 100 100 100 80 93 96 100 100 98 95 100 100 100 98 100 100 100 100 98 75 6 12 5 9 19 5 7 100 97 100 100 100 100 100 99 98 100 100 100
100 100 100 100 100 98 74 79 100 100 100 100 90 66 100 100 100 100 98 100 100 100 100 98 41 10 30 48 86 100 100 100 86 98 100 100 100 100 100 100 100 100 100
100 100 100 100 80 100 100 100 93 95 100 72 64 64 88 76 99 100 87 100 100 100 63 58 100 100 100 100 100 100 100 100 100 15 98 100 100 100 100 100 100 100 100
100 97 34 82 100 100 100 100 100 100 77 22 5 5 5 5 52 90 96 100 94 75 72 100 100 100 100 100 100 100 100 100 86 29 85 100 100 100 100 100 100 100 100
21 5 25 93 100 100 100 100 100 100 100 100 81 53 40 5 5 89 100 38 45 98 96 99 100 100 100 100 100 100 100 100 24 100 92 100 100 100 100 100 100 100 100
11 39 76 100 100 100 100 100 100 100 100 100 100 99 61 30 6 18 88 89 97 100 100 99 100 100 100 100 100 100 100 100 100 100 100 100 100 100 100 100 100 100 100
66 77 68 90 100 100 100 100 100 100 100 99 100 98 100 87 58 16 32 90 97 100 100 100 100 100 100 100 100 100 100 100 85 97 100 100 100 100 100 100 100 100 99
90 99 94 99 79 94 98 100 100 100 99 98 100 100 100 100 91 97 99 97 100 96 100 100 100 100 100 100 100 100 100 100 100 100 100 100 100 100 100 100 100 100 100
92 94 8 43 81 78 96 100 100 100 100 100 100 100 100 100 98 98 100 95 98 100 100 100 100 100 100 100 100 99 100 100 100 100 100 100 100 100 100 100 100 100 100
85 32 67 71 82 100 98 100 98 100 100 100 100 100 100 100 100 100 100 100 100 100 100 100 100 100 100 97 100 100 100 100 100 100 100 91 98 100 100 100 100 97 100
100 100 86 78 87 91 95 98 98 100 100 100 100 100 100 100 100 100 100 100 100 100 100 100 100 100 100 100 99 97 100 100 100 99 99 67 99 100 98 100 100 98 90
100 100 100 100 100 99 100 95 100 100 100 100 100 100 100 100 100 100 100 100 100 100 100 100 100 100 100 100 100 98 100 100 98 96 21 5 49 91 94 100 100 90 72
100 100 100 100 100 100 100 100 98 100 100 100 100 100 100 100 100 100 100 100 100 100 100 100 100 100 100 100 100 100 100 96 65 94 82 42 62 58 29 55 78 60 53
100 100 100 100 100 100 100 100 95 92 99 100 100 100 100 100 100 100 100 100 100 100 100 100 100 100 100 100 100 100 100 100 100 100 97 77 78 100 100 100 81 50 39

GFSGL_prec_cloud_054.txt.gz
Cloud_Cover
50 63 78 100 100 95 74 38 60 6 5 5 5 5 5 5 5 5 31 89 22 5 17 10 12 44 84 89 94 23 40 40 94 5 5 5 5 5 4 0 0 0 0
86 100 100 100 98 7 86 45 5 5 5 5 5 5 5 5 6 5 5 5 5 5 5 57 88 100 97 100 45 40 69 6 5 5 1 0 3 4 5 2 0 0 0
100 100 100 86 7 97 38 7 5 5 5 5 5 19 25 62 73 20 7 25 35 40 86 59 97 70 14 79 6 4 0 0 0 3 1 0 5 5 5 3 4 5 5
96 100 94 40 72 53 79 75 62 50 55 68 93 75 85 40 98 67 88 50 5 5 69 100 100 99 21 5 5 0 0 1 3 5 4 5 5 4 5 5 71 47 11
100 98 94 43 66 82 78 87 90 90 96 95 100 88 78 68 30 83 70 72 6 76 100 100 100 47 5 2 4 2 5 5 5 5 5 5 8 67 63 39 72 42 5
100 96 84 86 100 88 100 100 100 82 88 70 99 98 100 98 100 90 100 98 56 96 100 89 5 5 58 64 5 5 5 5 5 88 97 100 77 82 100 100 94 38 5
100 100 94 100 100 100 100 100 100 100 100 100 100 92 100 100 100 75 100 99 85 98 72 5 5 5 5 5 5 4 0 0 37 99 99 100 100 88 75 51 28 31 15
99 100 100 100 100 100 100 100 100 100 100 99 100 100 100 94 18 66 100 80 91 62 5 5 14 39 5 5 0 0 0 4 11 90 100 92 60 21 88 74 47 91 24
69 100 100 100 100 100 100 100 100 100 100 100 100 100 85 55 24 79 22 47 41 32 77 61 70 99 5 5 5 5 5 4 25 80 17 6 5 72 97 99 84 100 74
100 100 100 100 100 100 100 100 100 100 100 100 100 55 5 37 66 5 85 6 19 96 100 98 99 100 15 5 5 5 5 8 5 1 5 5 50 72 100 100 100 100 100
100 100 100 100 100 100 100 100 100 94 100 84 36 18 5 43 87 86 53 26 5 87 100 100 98 100 83 5 5 5 5 5 5 11 23 5 93 100 98 95 60 29 55
100 99 96 100 100 100 100 100 100 100 83 84 100 84 10 5 7 65 44 5 5 39 100 100 100 100 10 5 3 0 5 5 29 83 5 8 58 97 100 100 100 100 100
100 100 100 100 100 100 100 100 17 65 59 5 8 18 17 15 30 77 71 69 30 63 87 100 100 100 19 5 5 5 5 5 91 5 5 5 20 81 100 93 34 100 15
100 100 100 100 100 100 43 24 12 59 100 57 39 57 98 100 33 41 89 42 100 83 97 100 100 100 28 54 7 48 84 90 91 19 37 5 5 45 54 95 80 98 100
100 100 100 75 6 5 56 92 100 97 90 98 100 100 94 23 5 12 72 100 100 100 99 100 100 100 99 92 82 97 72 74 70 55 5 5 5 6 83 96 100 100 100
100 49 6 5 5 6 83 99 92 91 93 100 99 100 56 55 5 5 5 26 84 100 78 35 100 100 97 100 89 78 92 81 62 5 39 28 67 47 76 100 100 99 100
5 5 5 5 5 5 31 97 73 5 98 100 100 94 91 89 100 79 7 47 100 100 96 25 46 65 99 100 100 86 88 58 5 49 95 14 99 6 95 100 100 93 64
4 5 5 5 5 25 76 17 79 32 24 12 5 21 34 98 100 100 100 100 97 100 89 77 82 100 100 100 100 100 95 8 34 99 14 46 100 80 23 91 100 100 93
5 5 5 5 5 24 5 5 10 25 75 34 5 5 40 100 97 100 100 100 73 84 87 97 100 100 100 100 100 100 100 79 57 62 9 86 96 100 7 61 100 100 100
5 5 63 87 5 40 58 46 77 97 98 100 81 30 100 99 96 91 100 100 100 92 100 94 83 100 100 100 100 100 100 99 90 95 100 27 90 72 16 97 46 100 100
66 67 97 100 100 100 100 100 96 82 72 95 93 98 100 100 100 100 100 100 100 100 100 100 100 100 100 100 95 85 96 100 69 93 69 25 86 6 84 22 100 53 100
30 68 89 74 100 94 100 100 98 54 100 80 69 72 100 100 100 100 100 100 100 100 100 97 100 100 100 100 100 96 94 89 91 69 47 54 5 5 99 6 100 45 47
22 84 100 100 100 67 76 94 98 100 100 100 100 100 100 100 100 100 100 100 100 100 100 100 100 100 100 100 100 87 74 74 77 58 8 5 5 15 93 21 88 27 8
45 14 96 100 84 93 100 100 100 100 100 100 100 100 99 100 100 100 100 100 100 100 100 100 100 100 100 100 100 100 96 87 85 64 21 5 5 6 90 10 61 78 70
24 48 95 100 100 100 100 100 100 100 100 100 100 100 100 100 100 100 100 100 100 100 100 100 100 100 100 100 100 100 100 100 88 97 87 62 68 69 18 6 41 48 84
100 100 100 100 100 100 100 100 100 100 98 100 100 100 100 100 100 100 100 100 100 100 100 100 100 100 100 100 100 100 100 100 100 99 84 74 88 90 94 51 70 54 47

GFSGL_prec_cloud_057.txt.gz
Cloud_Cover
100 74 100 100 100 100 96 100 92 5 25 41 69 55 64 92 90 7 5 5 6 26 90 97 6 8 81 94 99 100 83 100 61 5 1 0 4 2 0 0 0 0 0
98 100 100 100 100 98 99 99 6 5 5 5 46 69 87 93 94 45 31 62 93 86 60 31 81 14 97 93 78 79 94 10 5 5 0 0 0 0 0 0 0 0 0
100 100 100 100 95 90 100 38 70 84 62 82 65 83 100 54 11 92 100 100 100 100 80 47 5 48 33 5 5 5 5 0 0 0 0 0 0 0 0 0 0 0 0
100 100 100 88 100 100 91 89 88 76 100 100 100 100 100 55 92 100 100 100 100 100 81 5 45 50 5 5 5 5 0 0 1 5 1 3 5 1 5 5 4 4 5
93 100 100 100 89 66 46 99 100 100 100 100 100 100 100 100 100 100 100 100 100 83 88 42 13 54 5 5 5 5 5 5 5 2 5 29 55 10 48 29 100 55 4
72 85 90 100 99 100 100 100 100 100 100 98 93 100 100 100 100 100 100 77 74 100 100 99 5 5 5 5 19 71 5 5 0 5 5 97 44 85 100 73 37 5 8
33 99 100 97 100 100 100 100 100 100 97 95 93 100 100 100 100 100 99 26 47 100 92 55 18 5 82 60 72 40 5 0 0 5 5 36 99 93 51 24 5 67 96
93 100 84 100 100 100 100 100 100 100 100 100 100 100 100 100 100 48 41 15 97 25 6 5 5 35 100 100 100 100 5 0 0 4 100 77 42 5 88 100 87 92 62
59 84 100 100 100 100 100 100 100 100 100 100 100 100 100 90 13 5 9 100 34 66 7 5 5 15 100 87 100 43 4 2 3 5 1 4 5 9 100 100 96 100 64
88 100 100 100 100 100 100 100 100 100 100 100 100 96 5 14 43 8 90 98 97 78 5 5 6 82 83 99 100 32 6 4 5 5 5 2 5 5 70 99 100 100 98
100 100 100 100 100 100 100 100 100 100 100 77 37 26 12 5 5 5 67 100 40 69 5 5 5 96 88 100 100 44 5 5 5 5 5 5 5 5 5 27 70 100 100
100 100 100 100 100 100 100 100 100 54 6 73 100 100 43 4 5 5 88 34 46 86 5 5 60 17 47 100 70 14 5 5 5 5 5 5 5 5 53 8 26 41 42
100 100 100 100 100 100 96 100 49 5 5 5 40 31 5 5 5 5 5 5 5 38 7 94 42 92 67 99 100 53 5 6 5 69 37 5 5 5 35 65 53 70 59
100 100 100 100 94 37 6 5 5 5 5 5 17 96 79 99 96 86 95 88 19 24 54 98 16 34 48 71 100 100 100 77 42 29 67 5 5 5 6 96 80 94 98
100 100 100 55 5 5 2 5 5 5 5 13 6 70 85 17 72 100 88 26 88 95 93 93 84 87 49 97 100 100 100 99 46 12 5 30 5 5 5 95 80 99 100
98 78 35 5 0 0 2 5 4 2 4 5 5 62 16 43 15 90 95 13 46 31 97 84 72 63 69 94 100 100 100 100 97 63 5 5 5 27 5 11 91 95 89
6 5 5 5 5 5 5 5 5 3 4 5 5 5 5 5 5 63 100 89 89 100 100 97 79 10 88 84 100 100 100 100 100 100 98 44 18 6 9 5 96 100 100
5 4 4 0 0 4 6 31 9 5 26 5 5 5 37 82 78 98 99 100 98 99 92 100 100 64 65 79 67 95 100 100 94 84 71 21 50 84 43 11 12 100 100
5 8 27 34 32 79 95 100 100 79 100 90 92 96 42 100 100 100 100 100 100 100 100 97 100 82 39 95 88 100 100 91 62 55 39 49 64 77 6 5 10 75 100
5 5 5 15 47 93 100 99 100 100 100 100 64 80 91 92 68 86 100 100 100 100 100 100 100 99 89 93 100 100 100 99 94 77 37 76 100 23 5 6 50 91 92
84 23 64 92 52 100 100 100 100 100 100 100 24 14 99 100 99 80 100 100 100 100 100 100 100 100 98 92 100 98 100 92 80 66 49 46 64 5 5 46 82 94 9
19 39 36 19 7 6 100 100 100 100 100 50 53 100 100 99 94 100 100 100 100 100 100 100 100 100 100 100 100 100 96 99 69 48 13 37 9 5 27 63 65 97 6
68 73 84 90 81 96 86 100 100 100 100 100 100 100 100 100 99 100 100 100 100 100 100 100 100 100 100 100 100 100 100 100 100 96 26 58 15 5 37 63 5 84 44
100 100 100 100 100 85 100 100 100 100 100 100 100 100 100 100 100 100 100 100 100 100 100 100 100 100 100 100 100 100 100 100 100 100 100 78 46 21 5 35 5 42 36
100 99 97 100 100 100 100 100 100 100 100 100 100 100 97 96 100 100 100 100 100 100 100 100 100 100 100 100 100 100 100 100 100 98 88 84 97 73 64 20 14 7 24
100 94 95 100 100 100 100 100 100 100 100 100 100 100 100 100 100 100 100 100 100 100 100 100 100 100 100 100 100 100 100 100 100 100 94 84 86 81 83 81 82 99 48

GFSGL_prec_cloud_060.txt.gz
Cloud_Cover
12 4 64 76 21 100 95 100 33 77 88 100 61 54 76 98 100 78 76 46 55 69 50 66 93 100 100 100 100 100 100 88 86 6 19 1 0 0 0 0 0 0 0
100 100 100 100 100 100 100 78 100 80 86 100 5 8 86 35 42 33 65 100 100 99 100 100 100 100 100 45 5 5 5 6 5 0 0 0 0 0 0 0 0 0 0
100 99 100 100 100 100 86 89 94 9 49 5 38 69 60 73 88 94 95 77 91 100 100 100 100 100 36 5 5 5 5 5 5 5 1 0 0 0 0 0 0 1 2
100 100 100 99 100 62 100 82 24 24 13 90 61 84 100 99 95 100 100 100 100 100 100 100 100 34 5 6 14 15 14 7 48 42 5 0 3 5 5 5 47 5 5
85 17 14 84 70 89 92 97 35 98 80 92 94 98 100 100 100 100 100 100 96 100 97 96 100 99 91 81 54 10 68 100 97 5 5 5 8 12 20 85 58 5 5
5 9 100 100 12 5 5 95 75 99 94 86 100 100 100 100 100 100 100 100 100 5 48 93 100 100 100 5 5 97 100 100 96 12 5 5 5 93 84 5 5 83 96
12 98 100 56 5 30 100 90 99 100 96 100 100 89 100 100 100 100 100 36 5 5 68 68 70 39 37 15 87 100 100 53 5 5 7 10 95 10 8 21 57 100 99
100 100 95 67 81 98 96 99 100 100 100 100 100 100 100 100 83 24 5 5 24 50 88 66 92 95 16 43 92 99 100 78 50 5 5 8 5 28 80 97 100 96 86
99 64 63 99 98 98 93 97 100 100 100 100 100 100 100 11 5 5 9 18 80 98 81 100 94 74 5 82 77 100 100 96 46 5 5 5 5 5 9 82 41 100 93
78 100 100 100 100 100 95 94 95 100 84 66 100 34 5 5 54 11 32 5 18 87 100 72 35 4 5 5 54 100 100 100 84 5 5 5 3 3 0 5 86 100 100
100 88 80 83 90 100 100 99 76 62 38 25 29 18 6 91 87 5 5 12 8 95 37 11 93 6 5 5 80 100 100 100 100 77 38 5 5 5 5 5 5 73 92
93 90 92 78 99 100 100 100 88 34 5 7 15 5 15 7 20 5 5 6 8 26 46 5 36 98 5 16 98 100 100 100 100 62 37 5 5 5 5 5 5 37 5
100 100 100 100 100 92 82 40 6 5 5 5 5 5 5 5 5 65 95 97 81 79 96 34 76 98 98 6 46 83 17 89 87 67 78 5 5 5 5 5 5 56 57
90 100 99 99 99 92 18 5 5 5 5 5 5 5 5 11 21 5 98 100 100 100 100 38 89 100 98 7 21 46 5 69 72 99 100 49 9 6 5 5 5 94 72
90 100 100 100 84 62 10 1 2 5 4 5 5 5 5 5 5 5 79 75 71 83 100 100 99 100 95 100 64 84 56 100 96 100 100 64 61 10 5 5 6 20 65
100 100 100 100 80 54 90 46 5 5 3 14 11 5 5 5 5 5 12 23 87 100 95 98 100 100 100 100 100 100 66 100 83 92 72 89 100 57 58 10 5 20 50
100 100 38 28 7 5 6 65 87 5 5 38 100 100 100 99 46 5 17 92 95 99 100 90 100 100 98 92 100 100 100 90 84 99 72 100 85 54 58 9 5 5 18
84 33 5 5 5 11 42 53 98 100 90 68 75 90 100 100 71 98 95 84 100 98 97 96 100 100 100 86 100 97 98 100 77 81 91 100 70 66 64 36 14 76 47
37 12 9 9 43 59 98 64 46 100 100 86 87 100 100 100 95 100 100 100 100 97 100 100 100 100 100 100 100 100 100 100 98 98 99 99 61 62 65 7 38 31 42
5 5 5 5 7 29 11 5 10 18 86 100 100 100 99 100 100 100 68 100 82 95 100 100 100 100 100 100 100 100 100 96 76 89 100 99 89 67 55 13 50 74 14
31 73 72 80 93 90 100 100 95 100 100 100 100 100 100 100 87 100 100 99 83 100 100 100 100 100 100 100 100 100 100 100 100 100 100 60 82 63 23 54 67 79 56
100 100 96 100 100 100 100 100 100 100 100 100 100 88 90 100 100 100 100 100 100 100 100 100 100 100 100 100 100 100 100 100 100 100 100 77 67 64 50 46 8 85 7
100 89 97 100 100 99 100 100 99 100 100 100 100 100 100 100 100 100 100 100 98 100 100 100 100 100 100 100 100 100 100 100 100 100 100 100 92 64 62 33 6 34 5
90 62 100 100 100 100 100 100 100 100 100 100 100 100 100 100 100 100 100 100 100 100 100 100 100 100 100 100 100 100 100 100 100 100 100 99 87 80 52 55 35 11 7
94 54 96 100 100 100 100 100 100 97 100 100 100 97 99 100 100 100 86 91 100 100 100 100 100 100 100 100 100 100 100 100 100 100 100 99 98 94 65 65 54 44 27
99 30 73 97 100 100 100 100 100 100 100 100 100 100 100 100 100 100 100 100 99 98 100 100 100 100 100 100 100 100 100 100 100 100 93 91 79 93 88 78 77 72 42

GFSGL_prec_cloud_063.txt.gz
Cloud_Cover
0 49 90 100 35 46 21 98 100 100 100 100 100 90 8 92 90 93 98 49 61 93 79 67 94 100 100 100 100 89 87 70 44 6 5 4 0 0 0 0 0 0 0
3 5 95 94 100 55 95 100 100 100 46 100 74 48 6 85 100 89 80 48 89 99 100 100 100 100 100 100 52 5 5 5 16 5 5 3 5 5 2 0 0 0 2
80 93 85 76 81 100 100 100 51 22 46 28 93 95 51 92 55 82 86 87 83 98 100 100 100 89 13 56 67 20 74 100 94 5 5 5 5 25 5 3 2 5 5
96 79 100 100 100 100 84 84 75 46 100 77 88 89 91 86 98 98 97 99 100 100 100 54 5 58 65 89 100 100 94 100 29 5 5 12 53 53 5 5 35 5 4
46 89 97 98 100 100 33 100 100 96 94 100 76 97 96 100 100 100 100 100 84 10 5 5 5 5 74 100 100 100 100 11 11 12 90 89 66 5 14 56 43 5 5
92 71 98 13 100 100 100 100 100 100 73 69 78 99 100 100 100 100 72 18 5 5 5 5 70 8 19 91 64 80 5 11 77 71 100 82 100 7 38 8 72 100 96
100 74 30 60 100 100 100 100 99 82 99 100 100 98 99 99 79 54 23 5 5 5 5 20 37 64 5 8 71 42 53 86 40 62 92 93 84 10 32 77 92 100 100
7 31 96 100 100 100 100 98 97 99 100 100 100 100 100 93 21 5 4 5 5 5 5 100 100 98 78 84 75 28 64 56 37 43 17 5 5 5 74 73 94 50 48
71 98 100 100 100 100 100 100 100 100 100 100 100 100 78 13 22 5 6 20 14 6 9 96 100 100 75 18 5 8 17 83 27 32 5 5 5 5 5 14 6 81 94
100 100 100 100 100 100 100 100 100 80 83 100 50 6 71 71 5 5 20 86 100 71 12 77 100 97 87 72 5 5 12 88 85 75 46 5 5 5 5 5 31 85 97
100 100 100 100 100 100 100 100 100 88 46 16 5 42 61 4 5 5 19 96 100 71 20 6 20 35 100 100 57 5 5 42 89 98 64 20 65 5 5 5 5 51 99
100 100 100 100 99 77 70 92 90 49 38 21 39 42 5 5 5 5 5 84 100 100 49 54 93 100 99 91 99 23 5 5 81 95 92 100 78 29 5 5 5 5 5
100 100 94 64 48 86 86 84 37 81 26 62 27 5 5 5 5 5 5 5 47 100 86 98 100 100 100 100 96 100 30 66 64 100 99 90 48 55 31 6 5 5 5
100 69 83 97 91 79 60 11 7 10 31 73 67 8 5 5 5 5 5 5 5 87 93 100 100 100 100 100 100 100 100 100 60 99 36 56 12 7 83 16 5 5 57
34 63 52 71 90 82 96 63 37 79 63 89 93 75 17 8 5 26 56 14 5 6 41 77 100 100 100 100 100 100 100 98 84 83 72 57 25 79 81 7 11 21 67
63 61 92 95 77 97 70 41 99 57 5 5 6 85 97 74 91 99 100 85 99 100 87 85 97 100 100 100 100 100 100 100 81 85 63 47 76 97 72 49 35 74 79
45 42 37 38 88 77 30 85 97 27 21 6 2 17 7 90 88 100 100 100 100 100 100 82 81 97 100 100 100 100 100 100 100 100 79 85 100 100 74 64 59 61 52
76 35 45 52 32 5 81 16 8 9 50 5 5 47 100 100 100 100 100 100 100 99 100 95 93 64 100 100 100 100 100 100 100 100 100 99 100 100 72 68 58 73 66
63 94 92 76 80 91 88 95 100 100 100 100 97 28 95 100 100 100 100 100 100 100 100 100 100 100 100 100 100 100 100 100 100 100 100 100 100 100 76 67 45 40 56
100 100 74 87 89 100 95 83 69 98 100 100 100 100 100 100 100 100 100 95 96 98 100 100 97 100 100 100 100 100 100 100 100 100 100 100 100 98 72 67 66 68 61
99 84 9 91 100 96 100 100 100 100 100 83 100 100 100 100 100 100 100 97 100 100 100 100 100 100 100 100 100 100 100 100 100 100 100 100 100 100 75 43 61 56 67
58 31 72 100 98 100 95 100 99 100 100 100 100 100 100 100 100 100 100 100 100 100 100 100 100 100 100 100 100 100 100 100 100 100 100 100 100 100 87 58 62 56 30
33 31 75 93 94 100 86 99 95 100 100 100 100 100 100 100 100 100 100 100 100 100 100 100 100 100 100 100 100 100 100 100 100 100 100 100 100 100 100 83 62 58 26
30 35 68 92 97 100 81 100 93 76 100 100 100 100 100 100 100 100 100 100 95 98 100 100 100 100 100 100 100 100 100 100 100 100 100 100 100 100 100 100 98 62 44
76 61 66 90 100 100 89 100 81 75 89 84 100 100 100 98 100 100 100 100 100 100 100 100 100 100 100 100 100 100 100 100 100 100 100 100 100 100 100 100 100 78 49
60 64 86 93 99 88 91 100 92 83 100 100 100 100 100 100 100 100 100 100 100 100 100 100 100 96 99 100 100 100 100 100 100 100 100 100 100 100 100 94 97 80 71

GFSGL_prec_cloud_066.txt.gz
Cloud_Cover
7 0 0 0 59 100 95 95 73 64 100 100 97 16 100 100 86 83 31 63 72 98 75 65 92 72 100 54 5 5 6 100 100 6 5 5 5 3 0 3 5 5 5
0 1 5 70 45 39 98 100 100 100 100 14 30 99 38 66 63 84 92 100 71 84 100 97 100 35 5 5 5 5 7 56 54 5 5 5 4 5 4 5 23 52 5
41 6 95 88 98 99 66 100 100 91 11 51 100 90 83 85 88 89 80 84 100 93 100 70 5 5 5 5 46 95 60 100 79 49 5 5 4 5 8 50 7 5 5
82 46 84 72 82 72 89 100 89 76 94 88 100 100 100 100 97 78 95 90 100 100 92 5 5 5 5 5 69 90 100 100 93 17 8 5 5 15 5 8 52 5 5
94 55 100 100 99 95 100 94 97 100 100 100 99 95 94 100 72 71 71 96 95 21 5 5 5 5 39 76 79 80 97 86 53 62 5 5 23 49 18 24 42 5 5
100 100 100 100 100 100 100 77 100 100 98 90 78 97 100 99 63 61 76 70 5 5 5 5 5 5 26 60 13 5 5 77 74 12 5 5 26 60 5 33 63 99 94
100 100 100 100 100 99 92 86 98 99 68 80 93 66 71 100 100 73 7 5 5 6 5 5 5 5 85 70 28 6 22 75 76 82 24 47 49 65 69 97 96 100 96
100 100 100 100 98 100 100 100 85 79 100 100 96 84 100 87 40 6 7 5 30 6 5 5 5 14 74 95 79 45 5 15 50 100 53 5 5 13 64 71 8 45 5
100 100 100 86 100 93 99 87 99 99 97 48 51 61 5 96 16 5 5 55 12 7 5 5 5 5 56 93 81 5 5 5 53 72 12 5 34 32 22 25 5 10 85
100 100 100 100 94 98 100 100 99 64 87 75 47 5 32 13 5 5 53 45 94 100 100 11 5 5 5 99 84 26 63 37 35 56 5 5 5 5 5 5 5 45 83
100 89 100 100 99 100 100 83 6 43 51 40 24 29 21 6 5 43 47 7 11 100 100 66 5 36 25 77 79 80 71 88 18 7 11 81 68 5 5 5 5 5 57
98 100 95 98 98 45 54 47 30 6 24 63 34 6 10 10 50 24 5 5 5 34 100 100 60 100 100 100 100 82 100 74 100 83 90 99 36 19 69 46 58 5 5
100 90 98 55 41 74 71 40 31 73 60 5 5 5 5 52 100 96 74 49 87 16 32 100 55 80 100 100 98 100 100 87 98 100 100 100 74 99 100 90 81 5 5
98 34 42 85 81 70 29 18 45 38 9 22 38 67 50 66 67 11 5 91 99 86 63 100 100 100 92 69 100 100 100 100 86 100 100 100 100 100 89 80 22 27 66
36 60 79 72 85 34 73 82 99 100 100 100 99 83 82 8 5 58 89 99 74 100 100 88 100 100 100 88 81 100 100 100 100 100 100 100 100 93 32 93 69 63 49
56 57 57 64 59 81 84 100 100 100 100 100 99 18 5 5 7 21 33 95 100 100 100 100 100 100 100 100 83 87 100 100 100 100 100 100 100 96 84 90 49 49 49
54 30 31 61 22 86 100 99 95 97 100 100 67 82 97 100 100 100 100 100 100 100 100 100 100 100 100 100 84 99 100 100 100 100 100 100 100 100 100 79 55 61 42
5 20 65 92 95 99 100 100 95 57 12 11 8 72 40 82 79 100 97 100 100 100 100 100 100 100 100 100 96 100 100 100 100 100 100 100 100 100 100 83 52 73 45
71 100 87 94 97 100 100 92 89 100 100 100 88 19 5 84 92 100 100 100 100 100 100 99 90 100 100 100 90 100 100 100 100 100 100 100 100 100 100 94 55 74 50
100 82 61 94 100 100 100 82 100 97 100 100 100 100 99 19 60 91 100 100 100 100 100 100 98 100 100 98 99 100 100 100 100 100 100 100 100 100 100 96 64 62 58
100 79 100 100 100 100 91 100 88 99 100 100 100 100 70 100 100 100 100 100 100 100 100 100 100 100 100 100 100 100 100 100 100 100 100 100 100 100 100 89 78 86 75
85 100 100 95 90 100 78 97 82 73 100 100 94 100 90 90 100 100 100 100 100 100 100 100 100 100 100 100 100 100 100 100 100 100 100 100 100 100 100 100 100 100 95
100 100 74 37 65 81 58 56 96 56 99 91 74 100 100 100 100 100 100 100 100 100 100 100 100 100 100 100 100 100 100 100 100 100 100 100 100 100 100 100 100 100 99
94 62 50 28 71 70 78 80 97 37 62 95 76 96 100 100 100 100 100 100 100 81 86 100 100 100 100 100 100 100 100 100 100 100 100 100 100 100 100 100 100 100 98
72 58 77 100 100 100 92 74 97 35 25 82 97 82 98 100 82 99 97 55 100 90 100 100 100 100 100 100 100 100 100 100 100 100 100 100 100 100 100 100 100 100 96
31 8 42 100 100 96 60 100 100 66 31 73 88 57 98 80 74 97 100 90 100 95 99 100 100 100 100 100 100 100 100 100 100 100 100 100 100 100 100 100 100 100 90

GFSGL_prec_cloud_069.txt.gz
Cloud_Cover
100 100 100 100 75 84 100 61 95 91 100 100 100 100 76 18 86 16 5 39 61 6 5 5 5 5 5 5 5 5 5 47 58 77 93 39 5 5 5 4 0 0 5
100 95 99 90 100 100 94 100 100 100 100 100 100 100 26 59 5 57 39 5 5 5 5 5 5 5 5 5 5 5 74 90 97 94 100 66 5 5 5 4 1 5 5
100 100 100 100 100 100 99 100 100 100 97 100 86 62 27 52 58 6 6 5 5 5 5 5 5 5 5 5 5 46 93 76 94 83 100 68 6 5 5 5 4 5 5
100 100 100 100 100 99 100 100 100 100 100 100 72 90 82 72 12 5 5 5 5 5 5 5 5 5 5 5 36 85 66 100 100 100 95 97 90 42 5 5 5 34 36
100 100 100 100 97 100 100 100 100 100 62 66 62 81 71 51 48 5 5 5 5 11 21 5 5 5 5 5 30 81 100 100 100 98 100 100 100 100 58 5 5 16 78
100 100 100 100 100 100 100 100 100 68 58 100 64 92 100 94 57 5 6 15 39 19 5 5 5 5 5 5 5 88 96 94 99 100 100 100 98 100 60 5 5 61 11
96 100 100 100 100 97 100 100 9 94 93 81 100 75 49 34 5 6 28 15 39 28 6 5 5 5 5 5 5 80 8 54 19 97 86 96 96 99 8 8 79 95 73
99 100 100 100 100 100 96 50 100 98 72 71 34 5 9 5 5 24 5 5 38 5 5 5 5 5 5 5 7 84 85 27 5 29 33 98 99 45 5 82 100 98 98
95 100 100 99 100 100 100 100 26 5 19 5 29 39 5 13 24 11 5 5 5 5 5 6 5 5 5 5 11 90 81 68 24 5 9 56 5 5 6 95 100 100 100
100 100 100 100 92 66 71 30 27 72 59 30 10 5 30 58 24 6 5 5 8 7 5 5 5 5 5 6 77 94 100 54 89 47 59 91 77 26 31 59 100 100 100
100 98 54 63 94 100 56 62 48 6 35 5 24 58 37 5 41 55 6 46 100 91 87 5 5 32 5 13 84 50 74 100 93 84 100 100 100 74 100 100 100 98 100
81 99 100 100 97 16 5 5 5 14 13 31 46 70 22 56 86 30 60 78 53 100 98 90 100 60 52 83 93 10 27 99 100 100 97 100 100 100 100 100 98 63 90
100 100 100 100 62 6 5 5 13 20 25 39 42 8 52 42 5 5 14 58 5 16 82 70 100 98 100 100 94 78 100 100 100 100 99 99 100 97 92 93 81 86 96
100 100 100 53 30 5 5 26 50 20 26 16 7 6 5 14 39 19 47 33 46 91 35 86 100 100 100 100 100 100 92 88 99 100 100 100 100 100 100 99 100 100 100
100 100 80 22 5 14 61 77 35 6 5 39 72 92 94 84 89 90 99 100 100 100 100 100 100 100 92 100 100 100 100 100 100 100 100 100 100 100 100 99 100 100 100
93 69 37 29 76 90 84 46 60 54 32 5 75 72 83 94 100 100 97 85 66 99 100 100 100 100 100 100 100 100 100 100 99 100 100 100 100 100 100 100 100 100 100
68 50 59 100 79 54 77 89 87 94 47 36 62 76 93 100 100 95 96 6 80 53 97 100 100 100 100 100 100 100 100 100 100 100 100 100 100 100 100 100 100 100 100
100 90 70 66 69 93 74 89 62 62 66 57 60 76 72 72 86 100 92 6 32 81 98 98 100 100 100 100 100 100 100 100 100 100 100 100 100 100 100 100 100 100 100
85 80 58 93 76 74 82 42 77 42 66 75 21 34 78 63 64 97 100 100 100 100 100 100 100 100 100 100 100 100 99 100 100 100 100 100 100 100 100 100 99 100 99
65 78 97 76 68 32 53 69 92 81 83 98 83 95 100 56 88 99 100 100 100 100 100 100 100 100 100 100 100 100 100 100 100 100 100 100 100 100 100 100 100 99 100
89 99 85 67 82 100 82 99 100 100 100 100 100 96 98 100 100 100 100 100 100 100 100 100 100 100 100 100 100 100 100 100 100 100 100 100 100 100 100 100 100 100 99
100 100 100 100 100 100 83 99 100 100 100 100 100 90 64 100 100 100 100 100 100 100 100 100 100 100 100 100 100 100 100 100 100 100 100 100 100 100 100 100 100 100 100
100 100 100 100 100 99 100 100 100 100 99 100 100 97 90 100 100 100 100 100 100 100 100 100 100 100 100 100 100 100 100 100 100 100 100 100 100 100 100 100 100 100 100
100 100 100 100 100 100 100 97 99 51 27 60 99 100 100 100 100 100 100 100 100 100 100 100 100 100 100 100 100 100 100 100 100 100 100 100 100 100 100 100 100 100 100
100 100 100 100 100 100 97 90 96 88 81 88 98 100 100 100 100 100 100 100 100 100 100 100 100 100 100 100 100 100 100 100 100 100 100 100 100 100 100 100 100 100 100
100 100 100 100 100 99 100 100 100 96 68 66 98 100 100 100 100 100 100 100 100 100 100 100 100 100 100 100 100 100 100 100 100 100 100 100 100 100 100 100 100 100 100

GFSGL_prec_cloud_072.txt.gz
Cloud_Cover
27 95 100 100 100 100 100 100 100 94 98 100 100 100 100 100 73 24 9 5 5 5 5 5 5 5 5 6 5 32 57 84 72 5 61 90 90 100 100 100 100 5 0
34 100 100 100 100 100 100 100 100 100 100 100 100 100 100 99 69 69 78 5 5 5 5 5 5 5 10 48 63 56 78 94 100 99 91 99 96 100 100 100 100 5 0
100 100 100 100 100 100 100 100 100 100 100 100 100 100 100 100 90 66 79 64 27 5 5 14 5 5 5 5 5 59 80 100 100 100 77 99 100 100 100 100 100 16 3
100 100 100 100 100 100 100 100 100 100 100 100 100 100 100 100 53 56 95 69 23 52 73 5 5 5 5 5 5 34 67 96 84 100 100 98 100 100 100 100 100 92 5
100 100 100 100 100 100 100 100 100 100 100 100 100 99 78 73 48 9 7 61 63 65 5 5 5 5 5 5 5 5 6 76 100 100 100 99 100 100 100 100 100 83 5
100 100 100 100 100 100 100 100 100 100 100 92 100 100 100 100 100 79 100 78 41 5 5 5 5 5 5 5 5 5 5 10 89 100 100 100 100 100 100 100 100 99 5
100 99 100 100 100 100 100 98 100 100 98 99 100 100 100 100 66 66 44 69 31 5 5 6 5 5 10 79 82 51 17 6 65 78 99 100 100 100 100 100 100 100 94
93 82 83 66 98 100 100 52 100 100 100 100 100 100 100 51 11 80 87 41 5 8 17 5 5 14 59 22 23 90 99 100 98 54 92 100 100 100 100 100 100 100 99
42 36 79 100 100 79 64 100 99 100 100 100 100 98 6 26 100 92 8 5 5 35 13 12 6 60 77 54 12 75 86 100 100 84 28 77 59 95 100 100 98 100 100
100 100 94 66 70 100 90 100 100 100 100 100 96 7 46 72 20 5 6 8 23 26 13 5 63 93 84 84 98 84 97 98 100 100 98 19 53 86 89 100 100 100 100
100 100 100 100 95 100 91 94 100 100 96 26 13 32 7 7 14 58 42 14 5 5 5 5 5 72 100 38 100 100 81 100 100 99 100 100 100 100 100 100 100 100 100
100 100 100 100 100 100 100 100 95 94 99 81 86 10 5 50 76 71 77 24 15 40 5 5 6 5 18 76 99 100 100 100 100 95 100 100 100 100 100 100 100 100 100
91 100 100 100 100 100 100 96 61 35 64 69 80 65 22 81 82 15 45 5 19 83 93 59 5 5 5 65 100 100 100 100 100 100 100 100 100 100 100 100 100 100 100
70 91 98 97 92 98 56 46 47 99 83 19 33 30 50 5 65 97 95 78 82 33 96 50 37 52 25 30 100 100 100 100 100 100 100 100 100 100 100 100 100 100 100
89 100 100 100 100 100 94 94 85 81 34 15 18 33 84 81 100 100 97 88 85 93 92 40 91 97 95 99 100 100 100 100 100 100 100 100 100 100 100 100 100 100 100
100 97 100 100 100 90 53 96 91 11 5 5 58 72 76 96 98 98 89 35 63 5 64 84 78 88 93 100 100 100 100 100 100 100 100 95 100 100 100 100 100 100 100
85 93 96 100 100 100 100 100 64 54 7 18 11 54 100 91 84 88 77 19 69 27 90 100 100 100 95 98 100 100 100 100 100 100 100 100 100 100 100 100 100 100 100
97 100 100 100 100 100 95 80 44 46 58 73 80 91 81 79 78 96 90 21 41 86 100 100 100 100 100 100 100 95 100 100 100 100 100 100 100 100 100 100 100 100 100
100 100 100 100 100 92 90 78 69 86 100 94 63 71 93 54 83 100 100 100 100 100 100 100 100 100 100 100 100 100 100 100 100 100 100 100 100 100 100 100 100 100 100
100 99 100 100 97 88 74 94 80 78 75 93 94 100 100 62 100 100 100 100 100 100 100 100 100 100 100 100 100 100 100 100 100 100 100 100 100 100 100 100 100 100 100
100 100 100 100 80 85 79 77 95 100 100 100 100 100 55 96 100 100 100 100 100 100 100 100 100 100 100 100 100 100 100 100 100 100 100 100 100 100 100 100 100 100 100
100 100 100 100 95 100 97 91 96 100 100 100 100 100 93 100 100 100 100 100 100 100 100 100 100 100 100 100 100 100 100 100 100 100 100 100 100 100 100 100 100 100 100
100 100 100 100 98 97 100 100 100 100 100 100 100 100 100 100 100 100 100 100 100 100 100 100 100 100 100 100 100 100 100 100 100 100 100 100 100 100 100 100 100 100 100
100 100 99 100 100 100 100 100 100 100 100 100 100 100 100 100 100 100 100 100 100 100 100 100 100 100 100 100 100 100 100 100 100 100 100 100 100 100 100 100 100 100 100
100 100 100 100 100 100 100 100 100 100 100 100 100 100 100 100 100 100 100 100 100 100 100 100 100 100 100 100 100 100 100 100 100 100 100 100 100 100 100 100 100 100 100
100 100 100 100 100 100 100 100 100 100 100 100 100 100 100 100 100 100 100 100 100 100 100 100 100 100 100 100 100 100 100 100 100 100 100 100 100 100 100 100 100 100 100

GFSGL_prec_cloud_075.txt.gz
Cloud_Cover
92 99 100 100 100 100 100 100 100 100 100 100 100 98 100 100 100 100 100 100 100 100 100 100 100 11 5 5 5 5 2 34 44 5 83 23 68 8 96 100 78 96 63
27 96 100 100 88 100 100 100 100 100 100 100 100 100 100 100 100 100 100 98 98 93 100 98 19 5 5 5 5 5 5 10 86 8 4 5 75 61 58 92 53 100 88
100 98 98 98 100 100 100 100 100 100 100 100 100 100 100 100 100 100 100 100 71 98 84 21 7 10 20 5 6 5 5 10 27 32 12 10 78 6 65 97 41 81 63
54 87 100 100 100 100 100 100 100 100 100 100 100 100 100 100 100 100 100 100 100 90 100 100 100 59 52 27 5 5 12 55 56 67 26 97 20 5 44 68 79 100 92
100 100 100 100 100 100 100 100 100 100 100 100 100 100 100 100 100 99 100 100 100 100 100 100 69 69 14 5 5 5 5 5 5 45 15 96 5 15 82 97 100 77 100
100 100 100 100 100 100 100 100 100 100 100 100 100 100 100 100 100 100 100 100 100 100 100 81 25 15 5 7 98 78 5 5 5 5 5 5 5 98 100 98 69 100 84
100 100 100 100 100 100 100 100 100 100 100 100 100 96 96 100 100 100 100 100 100 100 99 87 8 20 33 5 5 76 93 91 92 100 44 5 5 86 100 87 27 85 97
100 100 100 100 100 95 75 93 84 90 100 96 90 100 100 100 100 100 100 100 100 100 49 6 17 56 35 82 83 23 15 7 98 69 70 64 87 78 99 98 100 92 31
100 100 100 100 100 100 100 100 100 99 100 100 100 100 100 100 100 100 100 93 93 80 61 61 22 5 5 5 8 58 5 5 71 100 12 83 97 100 80 99 67 99 36
62 97 100 100 100 98 95 96 67 100 100 100 100 100 100 100 93 87 100 100 57 78 7 5 5 5 5 5 5 7 89 71 49 100 88 22 92 71 54 71 88 97 67
5 62 68 78 57 76 87 60 86 97 99 100 100 100 100 89 99 100 100 17 5 5 5 13 5 5 5 5 5 6 57 41 53 90 100 100 100 100 64 86 63 46 100
49 58 62 55 82 82 90 98 83 81 100 100 100 100 100 100 100 100 92 8 11 18 18 6 11 5 5 5 5 5 5 38 99 100 100 100 100 100 100 95 100 65 66
15 65 100 57 10 16 64 78 99 100 100 100 100 100 100 100 65 55 44 94 88 11 5 6 5 5 5 5 18 9 6 96 100 100 98 98 100 100 100 100 94 100 100
47 12 13 24 85 95 90 100 99 100 100 81 77 95 100 99 66 97 97 45 57 29 9 42 5 10 73 67 18 47 55 100 100 88 100 100 100 100 100 99 100 100 99
18 5 52 89 70 83 99 100 100 100 71 64 84 100 91 99 94 62 65 56 46 40 7 5 65 73 63 63 58 98 74 100 98 96 100 100 100 100 93 97 96 100 100
67 41 75 100 100 100 96 100 82 20 11 71 90 67 54 49 73 74 81 73 16 49 37 75 100 100 100 100 95 60 100 98 100 100 100 100 100 80 92 99 77 100 100
97 100 100 100 100 100 100 99 100 100 98 58 66 52 92 81 74 80 87 39 5 23 88 99 100 100 100 100 100 100 83 98 100 100 100 100 100 100 100 99 100 100 100
100 100 100 100 100 100 100 100 100 96 56 81 94 98 84 100 54 64 95 42 87 98 100 100 100 100 100 100 100 100 100 99 99 100 100 100 99 100 98 97 100 100 100
100 100 100 100 100 100 100 100 100 100 100 100 100 97 100 99 77 89 96 100 100 100 100 100 100 100 100 100 100 100 100 100 100 100 100 100 100 100 100 100 100 100 100
100 100 100 100 100 100 100 100 100 100 100 100 100 100 100 99 95 100 100 100 100 100 100 100 100 100 100 100 100 100 100 100 100 100 100 100 100 100 100 100 100 100 100
100 100 100 100 100 100 100 100 100 100 100 100 100 100 98 100 100 100 100 100 100 100 100 100 100 100 100 100 100 100 100 100 100 100 100 100 100 92 100 100 100 100 100
100 100 100 100 100 100 100 100 100 100 100 100 100 100 100 92 100 100 100 100 100 100 100 100 100 100 100 100 100 100 100 100 100 100 100 100 100 100 100 100 100 100 100
100 100 100 100 100 100 100 100 100 100 100 100 100 100 100 100 100 100 100 100 100 100 100 100 100 100 100 100 100 100 100 100 100 100 100 100 100 100 100 100 100 100 100
100 100 100 100 100 100 100 100 100 100 100 100 100 100 100 100 100 100 100 100 100 100 100 100 100 100 100 100 100 100 100 100 100 100 100 100 100 100 100 100 100 100 100
100 100 100 100 100 100 100 100 100 100 100 100 100 100 100 100 100 100 100 100 100 100 100 100 100 100 100 100 100 100 100 100 100 100 100 100 100 100 100 100 100 100 100
100 100 100 100 100 100 100 100 100 100 100 100 100 100 100 100 100 100 100 100 100 100 100 100 100 100 100 100 100 100 100 100 100 100 100 100 100 100 100 100 100 100 100

GFSGL_prec_cloud_078.txt.gz
Cloud_Cover
6 5 5 5 68 100 96 93 94 100 100 100 100 100 100 100 100 100 100 100 100 100 100 100 100 98 100 99 97 100 57 33 5 5 5 5 5 5 4 5 70 71 100
56 86 12 39 80 100 100 99 100 99 91 100 100 100 100 100 100 100 100 100 100 100 100 100 100 100 100 100 100 55 94 97 36 5 5 50 64 96 99 100 43 67 63
89 97 55 68 100 100 100 100 100 100 100 100 99 98 100 100 100 100 100 100 100 100 100 100 100 100 100 100 100 100 100 94 46 96 5 5 17 72 100 54 8 92 4
54 39 72 100 99 100 100 100 100 100 100 100 100 100 100 100 100 100 100 100 100 100 100 100 100 100 100 100 100 100 61 33 14 5 5 5 52 16 5 5 3 5 86
14 78 100 100 100 100 100 100 100 100 100 99 100 100 100 100 100 100 100 100 100 100 100 100 100 100 100 100 71 73 98 40 37 11 41 5 15 3 4 3 5 46 55
100 100 100 100 100 100 100 100 98 100 100 100 100 100 100 99 100 100 98 100 100 100 100 100 100 100 100 100 100 93 33 8 16 72 98 81 41 91 35 5 78 100 96
100 100 100 100 100 100 100 100 100 100 100 100 100 100 95 100 99 92 100 100 100 100 100 97 100 100 100 100 93 82 44 70 70 99 99 82 66 38 98 5 5 95 75
100 100 100 100 100 100 100 100 100 100 100 100 100 100 100 80 42 89 100 63 100 100 100 100 100 100 100 90 20 17 65 16 19 98 95 73 72 6 100 32 16 30 5
100 100 100 100 100 100 100 100 100 100 100 100 79 76 82 11 37 99 95 98 100 100 100 100 100 100 66 45 34 16 5 7 5 5 17 8 22 11 100 88 79 94 5
100 100 100 100 100 100 100 100 100 100 100 70 92 61 59 80 100 96 53 62 58 100 100 100 100 60 58 42 8 5 5 5 5 10 5 42 64 97 100 73 96 26 52
100 100 100 100 100 100 100 100 75 100 96 31 46 58 100 97 32 18 94 98 67 73 69 64 60 56 11 5 5 5 5 13 23 8 20 82 100 100 99 25 95 100 100
100 100 100 100 100 100 100 99 99 96 6 72 100 100 99 95 50 54 100 95 39 5 16 11 5 9 8 18 5 5 5 94 96 100 88 85 68 65 100 100 91 64 100
98 98 100 65 100 100 100 100 23 76 98 96 100 100 100 100 98 98 92 97 92 50 5 5 5 8 17 12 11 37 70 50 99 100 84 100 44 68 100 100 100 100 99
100 100 84 100 99 100 100 94 100 100 100 100 100 100 100 100 100 100 100 99 24 43 16 6 9 55 66 17 36 65 41 78 100 93 100 94 92 100 100 100 100 99 98
100 100 100 91 85 82 96 100 100 100 100 100 100 100 100 100 100 100 100 99 47 42 62 59 96 99 86 82 66 81 87 91 80 100 100 65 36 100 100 100 100 73 99
100 100 100 100 100 100 100 100 100 100 100 100 100 100 100 100 100 100 100 100 71 79 97 100 97 84 72 59 100 100 91 90 99 100 98 100 100 100 100 100 100 98 80
100 100 100 100 100 100 100 100 100 100 100 100 100 100 100 100 100 82 94 100 100 100 100 100 96 57 97 74 97 98 100 100 100 100 71 100 100 100 100 100 100 100 96
100 100 100 100 100 100 100 100 100 100 100 100 100 100 100 100 100 100 100 100 100 100 100 74 99 97 50 66 68 100 100 100 100 96 100 100 100 100 100 100 100 100 83
100 100 100 100 100 100 100 100 100 100 100 100 100 100 100 100 100 100 100 100 100 100 92 100 100 58 86 99 100 100 100 100 100 100 92 100 100 100 100 100 100 99 100
100 100 100 100 100 100 100 100 100 100 100 100 100 100 100 100 100 100 100 100 100 100 100 97 91 96 100 100 100 100 100 100 100 100 93 98 100 100 100 100 100 100 100
100 100 100 100 100 100 100 100 100 100 100 100 100 100 100 100 100 100 100 100 100 100 99 65 100 100 100 100 100 100 100 100 100 100 100 100 100 100 100 100 100 100 100
100 100 100 100 100 100 100 100 100 100 100 100 100 100 100 98 100 100 100 100 100 100 100 100 100 100 100 100 100 100 100 100 100 100 100 100 100 100 100 100 100 100 100
100 100 100 100 100 100 100 100 100 100 100 100 95 95 100 100 100 100 100 100 100 100 100 99 99 100 100 100 100 100 100 100 100 100 99 98 100 100 100 100 100 100 100
100 100 100 100 100 100 100 100 100 100 100 100 100 100 100 100 100 100 100 100 100 100 100 100 100 94 46 100 100 100 100 100 100 100 100 100 100 99 100 100 100 100 100
98 100 100 100 100 100 100 100 100 100 100 100 100 100 100 100 100 100 100 100 100 100 100 97 17 63 100 92 87 95 100 100 100 100 100 74 99 82 100 100 100 100 100
100 100 98 100 100 100 100 100 100 100 100 100 100 100 100 100 100 100 100 98 98 100 55 39 91 97 81 70 99 100 100 100 100 100 100 100 100 100 100 100 100 100 100

GFSGL_prec_cloud_081.txt.gz
Cloud_Cover
93 70 8 2 5 96 44 9 12 85 100 100 100 100 100 99 99 73 100 100 100 100 100 100 100 100 100 100 100 100 100 100 100 100 100 98 53 27 82 12 61 92 100
89 38 99 24 4 79 100 100 100 100 100 100 100 74 74 100 100 43 100 100 100 100 100 100 100 100 100 100 100 100 100 100 89 63 94 55 72 100 70 12 25 100 100
5 11 8 31 41 95 100 100 100 100 100 100 100 100 100 100 97 100 100 100 100 100 100 100 100 100 100 100 99 49 6 31 76 31 17 5 6 77 88 100 63 7 5
33 100 41 58 77 100 100 100 100 100 100 97 63 100 100 100 100 100 100 100 100 100 90 98 63 43 75 10 5 33 83 98 100 100 76 5 5 5 11 7 5 44 5
40 76 96 99 100 100 100 100 98 100 93 100 90 100 100 100 100 100 93 100 55 20 31 27 5 5 5 5 5 5 5 7 18 71 12 9 72 39 48 5 85 29 3
100 100 100 100 100 100 100 100 100 100 100 100 100 100 100 100 100 100 100 86 97 98 90 39 5 5 5 5 5 6 97 15 41 5 6 5 5 7 77 100 98 100 51
100 100 100 100 100 100 100 100 100 100 100 100 100 100 100 100 100 96 20 95 97 91 64 5 51 47 39 6 65 86 76 85 82 5 5 44 64 35 81 87 59 65 10
100 100 100 100 100 100 100 100 100 100 100 100 100 100 100 95 42 63 84 87 98 96 95 98 92 99 90 77 95 100 100 100 14 5 5 5 5 5 14 52 9 43 24
100 100 100 100 100 100 100 100 100 100 100 100 100 93 55 86 99 94 96 100 99 100 100 100 100 100 100 100 96 100 100 92 22 5 5 5 5 5 32 100 100 100 92
100 100 100 100 100 100 100 100 100 100 100 100 100 84 99 96 94 98 100 100 100 99 100 100 100 100 100 100 100 100 88 11 5 5 36 89 6 5 50 100 98 100 100
100 100 100 100 100 100 100 100 100 100 100 91 59 81 100 85 100 100 99 100 100 100 100 100 100 100 100 100 100 100 67 85 81 96 86 99 98 100 100 100 100 100 96
54 95 100 100 100 100 100 100 100 100 100 100 94 100 40 64 95 100 100 100 100 100 100 100 100 100 100 100 100 100 99 81 59 99 100 100 100 100 100 95 91 89 81
73 92 100 100 100 100 100 100 100 100 100 100 100 97 80 93 100 100 100 100 100 100 100 100 100 100 100 100 100 82 62 96 99 100 100 100 100 100 71 85 90 100 99
99 100 100 100 100 100 100 100 100 100 100 100 100 100 100 100 100 100 100 100 100 100 100 100 100 100 100 100 100 100 100 100 100 100 100 100 88 100 80 98 100 100 100
100 100 100 100 100 100 100 100 100 100 100 100 100 100 100 100 100 100 100 100 100 100 100 100 100 100 100 100 100 100 100 100 100 100 100 99 88 100 98 99 100 100 100
100 100 100 100 100 100 100 100 100 100 100 100 100 100 100 100 100 100 100 100 100 100 100 100 100 100 100 100 100 100 100 100 100 92 98 96 100 100 100 100 100 100 100
100 100 100 100 100 100 100 100 100 100 100 100 100 100 100 100 100 100 100 100 100 100 100 100 100 100 100 100 100 100 100 95 21 100 71 100 100 100 100 100 100 96 100
100 100 100 100 100 100 100 100 100 100 100 100 100 100 100 100 100 100 100 100 100 100 100 100 100 100 100 100 100 88 38 87 81 81 62 100 100 100 95 100 100 100 100
100 100 100 100 100 100 100 100 100 100 100 100 100 100 100 100 100 100 100 100 100 100 100 100 100 99 97 66 80 72 78 76 55 53 6 99 100 100 100 100 100 100 100
100 100 100 100 100 100 100 100 100 100 100 100 100 100 100 100 100 100 100 100 100 100 100 100 100 97 76 93 85 79 16 47 87 5 65 100 100 100 100 100 100 100 100
100 100 100 100 100 100 100 100 100 100 100 100 100 100 100 100 100 100 100 100 91 92 100 100 94 69 61 72 85 70 52 62 43 37 100 98 100 100 100 100 100 100 100
100 100 100 100 100 100 100 100 100 100 100 100 100 100 100 100 96 96 100 100 100 100 100 99 92 87 69 100 89 81 74 85 100 96 60 50 84 100 100 99 100 100 100
100 100 100 98 100 100 100 100 100 100 98 99 99 88 80 84 78 89 100 100 100 98 100 99 90 90 52 48 42 83 100 97 79 91 100 100 94 87 97 100 100 100 100
100 100 97 97 100 100 95 78 81 92 100 100 100 100 95 85 99 97 89 88 82 94 98 100 69 42 65 88 95 65 81 100 100 100 100 90 93 94 100 100 100 100 100
100 81 67 54 42 72 80 75 96 99 100 100 100 99 99 90 65 43 69 57 37 88 48 5 27 5 5 8 6 74 100 100 100 100 100 100 100 94 100 100 100 100 100
6 7 45 69 94 98 96 98 100 96 93 100 98 99 91 91 86 74 17 87 78 76 41 5 5 5 5 15 60 89 100 94 93 100 100 100 100 100 100 100 100 100 100

GFSGL_prec_cloud_084.txt.gz
Cloud_Cover
98 29 5 12 60 100 74 6 6 60 100 100 100 100 100 100 48 100 93 100 100 100 100 100 100 100 100 100 100 100 100 79 61 99 94 94 18 5 14 30 44 53 72
100 100 31 4 5 89 90 100 100 100 100 100 100 100 100 84 97 98 100 100 58 94 100 100 100 100 100 100 100 82 74 16 9 61 76 5 5 8 6 63 29 69 28
98 95 92 21 16 40 67 100 100 100 100 100 100 100 100 100 100 100 98 100 100 100 100 100 100 90 100 71 18 32 10 5 5 3 5 5 5 43 12 5 5 5 5
41 72 85 99 77 48 99 100 100 100 100 100 100 100 100 100 100 99 97 100 100 100 100 100 100 88 7 13 64 10 5 5 5 21 5 8 53 91 8 5 5 5 5
0 77 100 100 100 100 100 100 100 100 100 100 100 100 100 100 100 100 100 100 100 100 100 100 68 68 70 50 5 5 19 58 98 100 84 35 80 14 6 5 5 7 5
1 93 100 100 100 100 100 100 100 100 100 100 100 100 100 100 100 100 100 100 100 100 100 96 100 100 82 5 61 90 100 99 99 73 5 5 5 7 28 75 100 68 76
100 100 100 100 100 100 100 100 100 100 100 100 100 100 100 100 100 100 100 100 100 100 80 98 100 99 79 89 76 83 100 100 83 9 6 83 100 100 100 82 11 34 90
100 100 100 100 100 100 100 100 100 100 100 100 100 100 100 100 100 100 100 100 94 89 96 100 100 100 100 93 73 86 100 100 100 91 97 100 100 100 60 17 56 98 81
100 100 100 100 100 100 100 100 100 100 100 100 100 100 100 100 86 100 100 81 96 100 82 97 96 95 98 82 96 100 100 100 100 100 100 100 100 100 100 83 100 100 100
100 100 100 100 100 100 100 100 100 100 100 100 100 100 100 100 100 100 100 100 100 100 99 83 82 85 100 100 100 100 91 81 100 100 100 100 100 100 100 100 100 100 100
100 98 100 100 100 100 100 100 100 100 100 100 100 100 100 100 100 100 100 100 100 100 100 100 100 100 100 100 100 100 86 100 100 100 100 100 100 100 100 100 100 100 100
99 98 100 100 100 100 100 100 100 100 100 100 100 100 100 100 100 100 100 100 100 100 100 100 100 100 100 100 100 100 100 100 100 100 100 100 100 100 100 100 100 100 100
78 100 100 100 100 100 100 100 100 100 100 100 100 100 100 100 100 100 100 100 99 100 100 100 100 100 100 100 100 100 100 100 100 100 100 100 100 100 100 100 100 100 100
100 100 100 100 100 100 100 100 100 100 100 100 100 100 100 100 100 98 100 100 100 100 100 100 100 100 100 100 100 100 100 100 100 100 100 100 100 100 100 100 85 97 98
99 100 100 100 100 100 100 100 100 100 100 100 100 100 100 100 100 100 100 100 100 100 100 100 100 100 100 100 100 100 100 100 100 100 100 100 100 81 100 77 100 87 100
100 100 100 100 100 100 100 100 100 100 100 100 100 100 100 100 100 100 100 100 100 100 100 100 100 100 100 100 100 100 100 100 100 100 100 67 99 100 100 90 95 99 100
100 100 100 100 100 100 100 100 100 100 100 100 100 100 100 100 100 100 100 100 100 100 100 100 100 100 100 100 100 100 100 96 92 47 57 14 98 100 100 100 100 100 100
100 100 100 100 100 100 100 100 100 100 100 100 100 100 100 100 100 100 100 100 100 100 100 100 100 100 100 100 94 96 90 63 38 79 35 37 89 100 100 100 100 100 100
100 100 100 100 100 100 100 100 100 100 100 100 100 100 100 100 100 100 100 100 100 100 100 100 100 100 100 100 96 99 100 78 76 98 42 75 100 88 100 100 100 100 100
99 100 100 100 100 100 100 100 100 100 100 100 100 100 100 100 100 100 100 100 100 100 100 100 100 95 87 76 90 100 92 82 76 88 87 97 41 48 100 100 100 100 100
100 100 100 100 100 100 100 100 100 100 100 100 99 100 100 100 100 100 100 100 100 100 100 100 96 89 85 100 99 99 87 100 74 86 86 8 78 100 99 100 93 100 100
100 100 100 100 100 100 100 100 100 100 100 100 100 100 100 100 100 100 99 100 100 100 100 100 100 100 100 96 62 91 100 99 99 70 85 87 97 97 97 98 100 100 100
100 100 100 100 100 100 100 100 100 98 90 100 100 100 100 100 100 100 100 100 97 99 100 96 98 91 55 47 92 87 100 87 20 94 100 100 98 100 85 100 100 100 100
100 100 100 100 100 100 85 96 78 78 96 91 85 94 100 100 100 98 68 70 70 91 98 72 63 57 6 25 28 5 23 81 99 100 100 100 100 100 100 100 100 100 100
100 100 100 100 96 86 82 89 99 98 89 94 99 100 100 100 100 92 56 93 76 59 28 41 5 8 56 67 55 43 93 98 82 88 100 100 100 100 100 100 100 100 100
100 100 98 60 73 76 86 86 89 92 100 100 100 100 100 100 98 100 99 76 64 21 5 83 70 20 47 24 60 83 65 59 77 88 100 100 100 100 100 100 96 100 100

GFSGL_prec_cloud_087.txt.gz
Cloud_Cover
100 32 19 5 5 5 5 4 8 8 5 67 81 100 100 100 100 100 92 100 96 100 100 100 100 100 100 100 100 100 100 100 93 6 5 5 5 49 83 82 41 48 84
100 100 96 5 2 5 16 20 34 22 52 100 100 100 100 100 100 100 100 100 100 100 100 100 100 100 100 100 100 100 100 100 41 5 5 39 81 92 100 100 100 100 100
96 100 100 93 62 22 6 26 27 82 100 100 100 100 100 100 100 100 100 100 100 100 100 100 100 100 100 100 100 100 100 51 5 5 5 9 80 100 100 100 98 100 97
0 0 2 60 9 7 70 76 94 100 100 100 100 100 100 100 100 100 100 100 100 100 100 100 100 100 100 100 100 100 18 6 15 15 11 9 22 80 52 83 72 18 5
0 0 2 1 5 28 84 93 100 100 100 100 100 100 100 100 100 100 100 100 100 100 100 100 100 100 100 100 100 40 61 85 84 51 10 6 65 99 98 80 11 11 23
5 5 31 55 63 78 91 100 100 100 100 100 100 100 100 100 100 100 100 100 100 100 100 100 100 100 97 100 100 100 100 98 97 58 78 90 100 100 99 87 7 5 24
67 100 100 100 100 100 100 100 100 100 100 100 100 100 100 100 100 100 100 100 100 100 100 100 100 100 87 82 100 100 100 100 76 66 59 98 99 99 86 44 13 23 70
100 100 100 100 100 100 100 100 100 100 100 100 100 100 100 100 100 100 100 100 100 100 100 100 100 100 94 100 100 95 97 100 98 55 45 100 70 67 71 36 95 100 100
100 100 100 100 100 100 100 100 100 100 100 100 100 100 100 100 100 100 100 100 100 100 100 90 100 100 100 99 100 98 100 100 100 100 100 99 100 100 100 95 100 100 100
100 100 100 100 100 100 100 100 100 100 100 100 100 100 100 100 100 100 100 100 100 100 100 100 100 100 100 100 100 100 100 100 100 100 100 100 100 100 100 100 100 100 100
100 100 100 100 100 100 100 100 100 100 100 100 100 100 100 100 100 100 100 100 100 100 100 97 100 100 100 100 100 100 100 100 100 100 100 100 100 100 100 100 100 100 100
100 100 100 100 100 100 100 100 100 100 100 100 100 100 100 100 100 100 100 100 100 100 100 100 100 100 100 100 100 100 100 100 100 100 100 100 100 100 100 100 100 100 100
100 100 100 100 100 100 100 100 100 100 100 100 100 100 100 100 100 100 100 100 100 100 100 100 100 100 100 100 100 100 100 100 100 100 100 100 100 100 100 100 100 100 100
100 100 100 100 100 100 100 100 100 100 100 100 100 100 100 100 100 100 100 100 100 100 100 100 100 100 100 100 100 100 100 100 100 100 100 100 100 100 100 100 100 100 100
88 93 100 100 100 100 100 100 100 100 100 100 100 100 100 100 100 100 100 100 100 100 100 100 100 100 100 100 100 100 100 100 100 100 100 100 100 100 95 95 90 96 100
99 100 100 100 100 100 100 100 100 100 100 100 100 100 100 100 100 100 100 100 100 100 100 100 100 100 100 100 100 100 100 100 100 100 100 73 13 86 100 87 51 100 100
100 100 100 100 100 100 100 100 100 100 100 100 100 100 100 100 100 100 100 100 100 100 100 100 100 100 100 100 100 100 100 100 96 69 90 9 51 99 100 98 99 100 100
100 100 100 100 100 100 100 100 100 100 100 100 100 100 100 100 100 100 100 100 100 100 100 100 100 100 100 100 100 100 100 85 34 59 66 56 81 100 57 75 96 100 100
100 100 100 100 100 100 100 100 94 90 100 100 100 100 100 100 100 100 100 100 100 100 100 100 100 100 100 100 99 97 100 98 65 100 90 99 92 71 100 100 100 100 100
100 100 100 100 100 100 97 70 76 88 100 100 100 100 100 100 100 100 100 100 100 100 100 100 98 87 78 84 100 100 95 98 61 99 100 100 91 96 100 100 100 100 100
100 100 100 100 100 64 100 69 54 100 100 100 100 100 100 100 100 96 95 86 86 93 81 97 85 84 80 95 80 84 79 99 98 100 100 67 97 100 69 100 100 100 100
100 100 93 89 71 76 97 98 100 100 100 100 100 100 100 97 96 93 89 97 100 81 87 100 99 100 99 100 98 100 97 89 82 99 94 93 93 91 86 100 100 100 100
90 70 86 82 77 96 100 100 100 99 100 100 87 77 60 65 100 92 99 100 53 88 95 100 100 100 92 77 64 81 98 68 61 100 100 100 100 98 99 100 100 100 100
48 31 71 100 100 100 100 95 100 99 82 84 93 92 94 96 94 89 78 98 100 77 86 100 98 71 7 5 25 30 65 100 100 100 100 100 100 100 100 100 100 100 100
93 100 100 100 100 100 63 77 98 99 63 94 87 94 100 79 72 84 76 75 79 14 5 5 5 5 5 51 69 82 93 100 100 100 99 100 100 100 100 100 100 100 98
100 99 86 71 86 96 100 100 100 100 100 99 85 68 64 64 46 84 52 59 94 80 8 5 5 5 16 58 66 86 84 100 95 100 100 100 100 100 100 100 100 100 100

GFSGL_prec_cloud_093.txt.gz
Cloud_Cover
37 40 40 66 67 89 99 100 100 78 98 68 9 6 44 37 80 95 93 91 100 100 100 98 100 100 100 100 100 100 100 100 95 100 100 71 92 60 100 100 100 100 100
25 23 12 6 100 100 87 7 19 98 98 64 16 14 80 100 100 100 100 100 100 100 100 100 100 100 100 100 100 100 100 100 100 100 100 100 100 100 100 100 100 100 100
58 99 72 45 82 100 95 100 100 100 19 5 7 52 48 100 100 100 100 100 100 100 100 100 100 100 100 100 100 100 100 100 100 100 100 100 100 100 100 100 100 100 100
0 0 24 41 20 77 69 41 100 71 5 5 5 33 82 100 100 100 100 100 100 100 100 99 100 100 100 100 100 100 100 100 100 100 100 100 100 100 100 90 100 100 100
2 0 0 0 0 0 0 0 0 0 37 92 47 93 94 100 98 100 100 100 100 100 100 100 100 100 100 100 100 100 100 100 100 100 100 100 100 100 100 100 100 100 100
0 0 0 0 0 0 0 1 25 34 84 99 100 100 100 100 100 100 100 100 100 100 100 100 100 100 100 100 100 100 100 100 100 100 100 100 100 100 100 100 100 100 100
0 0 0 5 5 5 5 99 100 59 71 79 99 100 100 100 100 100 100 100 100 100 100 100 100 100 100 100 100 100 100 100 100 100 100 100 100 100 100 100 100 87 100
6 33 25 20 56 84 92 80 94 100 100 100 100 100 100 100 100 100 100 100 100 100 100 100 100 100 100 100 100 100 100 100 100 100 100 100 100 100 100 100 100 97 91
100 100 100 98 100 100 100 100 100 100 100 100 100 100 100 100 100 100 100 100 100 100 100 100 100 100 100 100 100 100 100 100 100 100 100 100 100 100 100 100 100 100 100
100 100 100 100 100 100 100 100 100 100 100 100 100 100 100 100 100 100 100 100 100 100 100 100 100 100 100 100 100 100 100 100 100 100 100 100 100 100 100 100 100 100 100
100 100 100 100 100 100 100 100 100 100 100 100 100 100 100 100 100 100 100 100 100 100 100 100 100 100 100 100 100 100 100 100 100 100 100 100 100 100 100 100 100 100 100
100 100 100 100 100 100 100 100 100 100 100 100 100 100 100 100 100 100 100 100 100 100 100 100 100 100 100 100 100 100 100 100 100 100 100 100 100 100 100 100 100 100 100
100 100 100 100 100 100 100 100 100 100 100 100 100 100 100 100 100 100 100 100 100 100 100 100 100 100 100 100 100 100 100 100 100 100 100 100 100 100 100 100 100 100 100
100 100 100 100 100 100 100 100 100 100 100 100 100 100 100 100 100 100 100 100 100 100 100 100 100 100 100 100 100 100 100 100 100 100 100 100 100 100 100 100 100 100 100
92 100 100 100 100 100 100 100 100 100 99 95 100 100 100 99 100 91 100 100 100 99 100 98 100 100 100 100 100 100 100 100 100 100 100 100 100 100 100 100 100 100 99
99 100 100 92 100 100 100 100 100 100 100 80 85 85 94 99 100 100 100 100 100 100 100 100 100 100 100 100 100 100 100 100 100 100 100 100 100 100 100 100 100 100 100
100 100 100 100 100 89 98 100 100 100 100 100 100 100 100 100 100 100 100 100 100 100 100 100 100 100 100 100 100 100 100 100 100 100 100 100 100 100 100 100 100 100 100
100 100 100 100 94 99 100 98 100 100 100 100 100 100 100 100 100 100 100 100 100 100 100 100 100 100 100 100 100 100 100 100 100 100 100 100 100 100 100 100 100 100 100
100 100 100 100 100 81 90 100 100 99 100 100 100 100 100 100 100 100 100 100 100 100 100 100 100 100 100 100 100 100 100 100 100 100 100 100 100 100 100 100 100 100 100
100 100 100 100 100 100 100 100 100 100 100 100 100 100 93 93 98 100 100 100 100 100 100 100 100 100 100 100 100 100 100 100 100 100 100 100 100 100 100 100 100 100 100
100 100 100 100 100 100 100 100 78 99 100 100 100 95 99 79 100 100 100 100 100 100 100 100 100 100 100 100 100 100 100 100 100 100 100 100 100 100 100 100 100 100 100
100 100 100 100 100 97 75 58 78 77 79 84 100 100 71 100 100 100 100 100 100 100 100 100 100 100 100 100 100 100 100 100 100 100 100 100 100 100 100 100 100 100 100
100 100 100 100 61 32 5 42 68 74 89 99 100 100 100 100 100 100 100 100 100 100 100 100 100 100 100 100 100 100 100 100 100 100 100 100 100 100 100 100 100 100 100
100 100 90 47 9 8 24 76 77 37 76 90 83 96 100 100 100 100 100 100 100 100 100 100 100 100 94 98 100 100 100 100 100 100 100 100 100 100 100 100 100 100 100
96 88 76 35 98 78 62 59 62 53 7 30 68 90 96 100 100 100 100 100 100 100 100 100 100 100 99 96 96 100 100 100 100 100 100 100 100 100 100 100 100 100 100
78 29 70 100 50 46 16 5 5 24 71 97 100 100 100 100 100 100 100 100 100 100 100 100 100 100 100 100 100 100 100 100 100 100 100 100 100 100 100 100 100 100 100

GFSGL_prec_cloud_096.txt.gz
Cloud_Cover
86 100 100 100 100 100 100 100 100 100 100 100 100 100 100 100 100 86 22 90 96 94 100 100 100 100 99 100 100 100 100 100 100 100 100 100 100 100 79 96 73 51 77
5 9 7 31 61 27 92 100 100 99 100 59 99 30 27 7 9 21 86 88 100 100 100 100 100 99 100 100 100 100 100 100 100 100 100 100 100 100 100 100 100 100 100
1 23 16 17 5 36 89 54 75 13 15 20 13 15 5 5 55 7 9 37 94 99 100 100 98 100 100 100 100 100 100 100 100 100 100 100 100 99 100 100 100 100 100
0 2 24 22 5 5 48 30 12 10 50 12 5 5 5 5 5 27 85 87 100 95 92 86 93 100 100 100 100 100 100 100 100 100 100 100 100 100 100 100 100 100 100
0 0 0 0 0 0 4 5 5 49 85 81 33 5 20 46 28 49 61 84 100 100 100 100 100 100 100 100 100 100 100 100 100 100 100 100 100 100 100 100 100 100 100
0 1 0 0 0 0 0 2 0 0 0 0 1 18 19 49 100 100 100 100 100 100 100 100 100 100 100 100 100 100 100 100 100 100 100 100 100 100 100 100 100 100 100
5 0 2 1 5 5 13 39 75 73 86 56 80 100 100 100 100 100 100 100 100 100 100 100 100 100 100 100 100 100 100 100 100 100 100 100 100 100 100 100 100 100 100
37 12 4 6 25 52 89 100 100 100 100 100 100 100 100 100 100 100 100 100 100 100 100 100 100 100 100 100 100 100 100 100 100 100 100 100 100 100 100 100 100 100 100
100 100 98 95 99 98 100 100 100 100 100 100 100 100 100 100 100 100 100 100 100 100 100 100 100 100 100 100 100 100 100 100 100 100 100 100 100 100 100 100 100 100 100
100 100 100 100 100 100 100 100 100 100 100 100 100 100 100 100 100 100 100 100 100 100 100 100 100 100 100 100 100 100 100 100 100 100 100 100 100 100 100 100 100 100 100
100 100 100 100 100 100 100 100 100 100 100 100 100 100 100 100 100 100 100 100 100 100 100 100 100 100 100 100 100 100 100 100 95 100 100 100 100 100 100 100 100 100 100
100 100 100 100 100 100 100 100 100 100 100 100 100 100 100 100 100 100 100 100 100 100 100 100 100 100 93 93 100 100 100 100 100 100 100 100 100 100 100 100 100 100 100
100 100 100 100 100 100 100 100 100 100 100 100 100 100 100 100 100 100 100 100 100 100 84 76 71 50 68 85 88 90 96 100 100 100 100 100 100 100 100 100 100 100 100
100 100 100 100 100 100 100 100 100 100 100 100 100 100 100 100 100 100 100 100 99 93 99 98 99 98 57 75 94 100 100 100 100 100 100 100 100 100 100 100 100 100 100
100 100 100 100 100 100 99 100 100 100 100 100 100 100 100 100 100 100 100 100 100 82 100 100 100 100 100 100 100 100 100 100 100 100 100 100 100 100 100 100 100 100 100
100 100 100 100 100 100 100 100 100 100 100 100 100 100 100 100 100 100 100 100 98 97 100 100 100 100 100 100 100 100 100 100 100 100 100 100 100 100 100 100 100 100 100
100 100 100 100 100 100 100 100 100 100 100 100 100 100 100 100 100 100 100 91 100 51 98 100 100 100 100 100 100 100 100 100 100 100 100 100 100 100 100 100 100 100 100
100 100 100 100 100 100 100 100 100 100 100 100 100 100 100 100 100 100 100 100 60 64 76 100 100 100 100 100 100 100 100 100 100 100 100 100 100 100 100 100 100 100 100
100 100 99 100 100 100 100 100 100 100 100 100 100 97 98 90 75 81 95 72 92 99 100 100 100 100 100 100 100 100 100 100 100 100 100 100 100 100 100 100 100 100 100
100 100 100 100 100 100 100 100 100 100 100 100 82 80 59 92 100 100 100 100 100 100 100 100 100 100 100 100 100 100 100 100 100 100 100 100 100 100 100 100 100 100 100
100 100 100 100 100 100 100 100 100 100 88 99 100 86 18 100 100 100 100 100 100 100 100 100 100 100 100 100 100 100 100 100 100 100 100 100 100 100 100 100 100 100 100
100 100 100 100 100 100 100 100 100 100 100 96 100 91 92 100 100 100 100 100 100 100 100 100 100 100 100 100 100 100 100 100 100 100 100 100 100 100 100 100 100 100 100
100 100 100 100 100 100 100 100 100 100 100 100 100 100 100 100 100 100 100 100 100 100 100 100 100 100 100 100 100 100 100 100 100 100 100 100 100 100 100 100 100 100 100
100 97 95 97 100 98 100 100 74 66 90 100 100 100 100 100 100 100 100 100 100 100 100 100 100 100 100 100 100 100 100 100 100 100 100 100 100 100 100 100 100 100 100
97 100 88 100 100 94 100 100 100 100 100 100 100 100 100 100 100 100 100 100 100 100 100 100 100 100 100 100 100 100 100 100 100 100 100 100 100 100 100 100 100 100 100
100 98 100 100 100 99 100 100 100 100 100 100 100 100 100 100 100 100 100 100 100 100 100 100 100 100 100 100 100 100 100 100 100 100 100 100 100 100 100 100 100 100 100

GFSGL_prec_cloud_099.txt.gz
Cloud_Cover
2 96 100 100 100 100 100 100 100 100 100 100 100 100 100 100 100 100 100 100 100 100 84 93 83 97 92 94 100 100 100 100 100 100 100 98 100 100 100 100 100 100 100
0 1 32 100 100 100 100 100 100 100 100 100 100 100 100 100 100 100 100 100 100 98 100 8 56 93 100 100 100 100 100 100 100 100 100 100 100 100 100 100 100 100 100
0 0 2 22 90 100 100 100 100 100 100 100 100 100 100 100 100 100 86 29 4 5 41 69 64 82 100 99 100 100 100 100 100 100 100 100 100 100 100 100 100 100 100
0 0 0 0 5 14 35 41 23 62 60 54 59 64 44 32 44 41 73 26 3 5 77 97 89 91 100 100 100 100 97 100 100 100 100 100 100 100 100 100 100 100 100
0 0 0 0 7 18 37 43 46 48 28 35 30 29 58 77 60 30 49 48 89 100 100 100 100 100 100 100 100 100 100 100 100 100 100 100 100 100 100 100 100 100 100
4 0 0 0 1 15 10 15 44 60 85 88 100 96 100 100 100 100 100 100 100 100 100 100 100 100 100 100 100 100 100 100 100 100 100 100 100 100 100 100 100 100 100
25 5 5 3 13 40 70 100 100 100 100 100 100 100 100 100 100 98 100 100 100 100 100 100 100 100 100 100 100 100 100 100 100 100 100 100 100 100 100 100 100 100 100
100 100 22 27 41 82 100 100 100 100 100 100 100 100 100 100 100 100 100 100 100 100 100 100 100 100 100 100 100 100 100 100 100 100 100 100 100 100 100 100 100 100 100
96 100 100 100 100 100 100 100 100 100 100 100 100 100 100 100 100 100 100 100 100 100 100 100 100 100 100 100 98 100 100 100 100 100 100 100 100 100 100 100 100 100 100
100 100 100 100 100 100 100 100 100 100 100 100 100 100 100 100 100 100 100 100 100 100 100 100 100 100 100 100 100 100 100 100 96 100 100 100 100 100 100 100 100 100 100
100 100 100 100 100 100 100 100 100 100 100 100 100 100 100 100 100 100 100 100 100 100 92 89 100 100 100 100 100 100 100 100 100 100 100 100 93 99 100 100 100 100 100
100 100 100 100 100 100 100 100 100 100 100 100 100 100 100 100 100 100 100 100 100 100 100 100 100 100 100 100 100 100 100 100 100 100 100 100 100 100 100 95 98 97 99
100 100 100 100 100 100 100 100 100 100 100 100 100 100 100 100 100 100 100 100 100 100 100 100 100 100 100 100 100 100 100 100 100 100 100 100 100 100 100 100 100 100 100
100 100 100 100 100 100 100 100 100 100 100 100 100 100 100 100 100 100 100 100 100 100 100 100 100 100 100 100 100 100 100 100 100 100 100 100 100 100 100 100 100 100 100
100 100 100 100 100 100 100 100 100 100 100 100 100 100 100 100 100 100 100 100 100 100 100 100 100 100 100 100 99 99 100 100 100 100 100 100 100 100 100 100 100 100 100
100 100 100 100 100 100 100 100 100 100 100 100 100 100 100 100 100 100 100 100 100 100 100 100 100 100 100 100 100 100 100 100 100 100 100 100 100 100 100 100 100 100 100
100 100 100 100 100 100 100 100 100 100 100 100 100 100 100 100 100 100 100 98 100 100 96 100 100 100 100 100 100 100 100 100 100 100 100 100 100 100 100 100 100 100 100
100 100 100 100 100 100 100 100 100 100 100 100 100 100 100 95 64 20 50 66 35 59 31 80 100 100 100 100 100 100 100 100 100 100 100 100 100 100 100 100 100 100 100
100 100 100 100 100 100 100 100 100 100 100 100 100 100 100 100 100 96 94 87 86 98 91 100 100 100 100 100 100 100 100 100 100 100 100 100 100 100 100 100 100 100 100
100 100 100 100 100 100 100 100 100 100 100 100 100 100 100 98 100 100 100 100 100 100 100 100 100 100 100 100 100 100 100 100 100 100 100 100 100 100 100 100 100 100 100
100 100 100 100 100 100 100 100 100 100 100 100 100 98 93 100 100 100 100 100 100 100 100 100 100 100 100 100 100 100 100 100 100 100 100 100 100 100 100 100 100 100 100
100 100 100 100 100 100 100 100 100 100 100 100 100 94 95 100 100 100 100 100 100 100 100 100 100 100 100 100 100 100 100 100 100 100 100 100 100 100 100 100 100 100 100
100 100 100 100 100 100 100 100 100 100 100 100 100 100 100 100 100 100 100 100 100 100 100 100 100 100 100 100 100 100 100 100 100 100 100 100 100 100 100 100 100 100 100
100 100 100 100 100 100 99 100 100 100 100 100 100 100 100 100 100 100 100 100 100 100 100 100 100 100 100 100 100 100 100 100 100 100 100 100 100 100 100 100 100 100 100
100 100 100 100 100 100 100 100 100 100 100 100 100 100 100 100 100 100 100 100 100 100 100 100 100 100 100 100 100 100 100 100 100 100 100 100 100 100 100 100 100 100 100
100 100 100 100 100 100 100 100 100 100 100 100 100 100 100 100 100 100 100 100 100 100 100 100 100 100 100 100 100 100 100 100 100 100 100 100 100 100 100 100 100 100 100

GFSGL_prec_cloud_102.txt.gz
Cloud_Cover
100 100 100 100 100 100 100 100 100 100 100 100 100 100 100 100 100 100 100 100 100 100 100 100 100 100 100 100 100 100 81 68 86 100 92 100 100 53 100 100 100 100 100
1 100 100 100 100 100 100 100 100 100 100 100 100 100 100 100 100 100 100 100 100 100 100 100 100 100 100 100 100 93 53 94 100 100 100 100 100 100 100 100 100 100 100
0 0 69 40 97 100 100 100 100 100 100 100 100 100 100 100 100 100 100 100 100 100 100 100 100 100 93 100 98 100 100 100 100 100 100 100 100 100 100 100 100 100 100
0 0 0 20 4 1 81 100 100 100 100 100 100 100 100 100 100 100 100 100 100 100 100 100 100 93 98 83 100 100 100 100 100 100 100 100 100 100 100 100 100 100 100
4 0 0 0 0 11 20 32 100 100 100 100 100 100 100 100 100 100 100 100 100 100 100 90 99 100 100 100 100 100 100 100 98 100 100 100 100 100 100 100 100 100 100
0 0 0 0 0 1 30 0 0 19 96 100 100 100 100 100 100 100 100 100 100 100 100 100 100 100 100 95 100 100 87 100 99 100 100 100 100 100 100 100 100 100 100
4 1 5 6 0 8 20 37 96 100 100 100 100 100 100 100 100 100 100 100 100 100 100 100 100 100 100 100 100 100 90 100 99 100 99 100 100 100 100 100 100 100 100
98 4 6 19 62 96 92 100 100 100 100 100 100 100 100 100 100 100 100 100 100 100 100 100 100 100 100 100 99 100 94 100 78 97 96 100 100 100 100 100 100 100 100
19 79 40 83 84 100 100 100 100 100 100 100 100 100 100 100 100 100 100 100 100 100 100 100 100 100 100 100 100 100 95 96 97 52 77 86 91 100 100 100 100 100 100
97 100 82 51 100 100 100 100 100 100 100 100 100 100 100 100 100 100 100 100 100 100 100 100 100 100 100 99 62 54 93 52 84 100 100 100 100 100 100 100 100 100 100
100 100 98 100 100 100 100 100 100 100 100 100 100 100 100 100 100 100 100 100 100 100 100 100 98 96 80 94 75 100 100 38 90 100 100 100 100 100 100 100 100 100 97
100 100 100 100 100 100 100 100 100 100 100 100 100 100 100 100 100 100 100 100 100 100 100 100 100 89 94 100 84 75 91 100 100 100 100 100 100 100 100 100 93 69 99
100 100 100 100 100 100 100 100 100 100 100 100 100 100 100 100 100 100 100 72 96 100 85 86 100 94 96 88 82 96 100 100 100 100 100 100 100 100 98 8 5 7 8
100 100 100 100 100 100 100 100 100 100 100 100 93 98 100 100 97 100 100 100 100 100 100 100 100 97 100 100 100 98 95 90 97 94 84 83 48 5 5 5 5 5 5
100 100 100 100 100 100 100 100 100 100 100 100 100 100 100 100 97 100 94 94 91 82 98 100 100 72 44 39 33 28 5 5 5 5 5 5 5 5 5 5 6 5 5
100 100 100 100 100 100 100 100 100 100 100 100 100 100 100 100 100 100 100 89 100 96 80 95 12 34 28 9 5 5 5 5 5 5 5 5 32 5 28 74 38 85 97
100 100 100 100 100 100 100 100 100 100 100 100 100 100 100 100 100 100 100 100 100 100 100 36 5 5 5 5 5 5 5 5 16 5 61 78 73 97 72 75 93 7 5
100 100 100 100 100 100 100 100 100 100 100 100 100 100 100 100 100 100 100 100 100 100 100 18 67 98 10 5 5 12 22 97 42 90 96 79 37 21 78 96 23 65 78
100 100 100 100 100 100 100 100 100 100 100 100 100 100 100 100 100 100 100 92 48 76 100 99 100 40 5 41 66 100 91 80 66 5 57 8 87 98 21 34 96 99 100
100 100 100 100 100 100 100 100 100 100 100 100 100 100 100 100 100 100 100 100 83 67 97 100 47 64 96 83 76 71 36 9 43 51 82 83 64 20 76 99 97 100 100
100 100 100 100 100 100 100 100 100 100 100 100 100 100 100 100 100 98 81 5 20 25 5 33 65 100 72 66 5 5 5 26 75 100 82 74 72 96 96 100 100 100 100
100 100 100 100 100 100 100 100 100 100 100 100 100 100 100 99 91 32 37 52 19 32 81 72 100 88 100 65 33 34 100 95 100 99 98 60 86 91 100 96 80 100 97
100 100 100 100 100 100 100 100 100 100 100 100 100 100 100 85 43 42 87 30 89 100 98 100 100 100 100 41 95 100 99 91 100 100 100 100 100 100 88 100 100 70 84
100 100 100 100 100 100 100 100 100 100 95 100 100 88 59 83 86 88 93 86 98 99 100 100 100 100 74 100 71 15 97 100 99 100 99 98 100 100 99 97 98 100 100
100 100 100 100 100 100 100 100 93 100 100 99 85 84 99 92 100 92 100 100 64 5 6 100 100 100 99 52 64 100 100 100 86 98 100 100 100 100 100 100 100 100 86
100 100 100 100 100 100 100 100 100 100 100 100 100 93 100 100 97 68 100 99 6 58 100 83 99 65 36 100 100 100 98 100 100 98 97 100 100 100 100 99 87 99 100

GFSGL_prec_cloud_105.txt.gz
Cloud_Cover
84 81 92 100 100 100 100 100 100 100 100 100 100 100 100 100 100 100 100 100 100 100 100 100 100 100 100 100 100 100 100 100 100 100 100 100 98 86 79 100 100 100 100
62 55 3 100 100 100 100 100 100 100 100 100 100 100 100 100 100 100 100 100 100 100 100 100 100 100 100 100 100 100 100 100 100 100 100 100 100 100 99 98 100 76 97
75 98 26 34 99 100 100 100 100 100 100 100 100 100 100 100 100 100 100 100 100 100 100 100 100 100 100 100 100 100 100 100 100 100 100 100 100 100 100 100 100 100 100
0 26 100 100 0 73 100 100 100 100 100 100 100 100 100 100 100 100 100 100 100 100 100 100 100 100 100 100 100 100 100 100 96 100 97 100 90 98 100 100 100 100 100
0 0 6 79 0 0 14 89 100 100 100 100 100 100 100 100 100 100 100 100 100 100 100 100 100 100 100 100 100 100 100 100 100 100 100 100 81 99 100 95 97 100 100
0 0 0 0 0 1 0 0 10 88 100 100 100 100 100 100 100 100 100 100 100 100 100 100 100 100 100 100 100 100 100 100 100 100 100 100 100 100 100 100 100 100 100
5 1 1 36 4 2 2 7 22 99 100 100 100 100 100 100 100 100 100 100 100 100 100 100 100 100 100 100 100 100 100 100 100 100 100 100 100 100 100 85 74 100 100
5 5 5 15 5 11 88 100 100 100 100 100 100 100 100 100 100 100 100 100 100 100 100 100 100 100 100 100 100 100 100 100 100 58 100 98 42 93 86 92 94 46 67
48 45 6 5 23 50 100 100 100 100 100 100 100 100 100 100 100 100 100 100 100 100 100 100 100 100 100 100 100 100 100 93 97 9 39 69 94 95 99 54 34 39 51
42 100 100 100 100 100 100 100 100 100 100 100 100 100 100 100 100 100 100 100 100 100 100 100 100 100 100 100 100 100 99 76 38 20 27 49 96 99 96 78 77 100 100
100 100 100 100 100 100 100 100 100 100 100 100 100 100 100 100 100 100 100 100 100 100 100 100 100 100 100 100 100 100 99 95 63 74 24 5 5 5 5 5 10 5 77
100 100 100 100 100 100 100 100 100 100 100 100 100 100 100 100 100 100 100 100 100 100 100 100 90 88 99 76 41 13 5 5 5 5 5 9 40 8 5 3 4 2 1
100 100 100 100 100 100 100 100 100 100 100 100 100 100 100 100 100 100 100 100 100 100 100 80 83 97 51 46 86 5 5 5 5 77 79 26 5 5 0 5 0 5 4
100 100 100 100 100 100 100 100 100 100 100 100 100 100 100 100 100 100 100 100 100 100 100 100 73 80 76 79 54 44 5 7 5 5 5 5 12 5 5 5 5 5 5
100 100 100 100 100 100 100 100 100 100 100 100 100 100 100 100 100 100 100 100 100 100 100 100 99 100 99 74 37 9 5 5 5 5 5 31 5 5 5 5 5 5 10
100 100 100 100 100 100 100 100 100 100 100 100 100 100 100 100 100 100 100 100 100 100 100 100 100 93 87 94 62 20 97 63 5 5 5 7 42 5 28 32 24 5 74
100 100 100 100 100 100 100 100 100 100 100 100 100 100 100 100 100 100 100 100 100 100 100 100 100 77 100 100 100 100 100 62 5 5 5 5 53 92 88 9 51 98 100
100 100 100 100 100 100 100 100 100 100 100 100 100 100 100 100 100 100 100 100 100 100 100 100 100 98 93 100 100 95 27 5 5 5 5 5 8 30 6 50 100 100 100
100 100 100 100 100 100 100 100 100 100 100 100 100 100 100 100 100 100 100 100 100 100 100 100 87 100 100 100 61 6 5 20 9 30 7 46 18 14 82 100 100 100 100
100 100 100 100 100 100 100 100 100 100 100 100 100 100 100 100 100 100 100 100 100 95 100 100 98 67 30 5 6 12 41 57 58 92 85 64 42 14 100 100 100 100 100
100 100 100 100 100 100 100 100 100 100 100 100 100 100 100 100 100 100 100 100 100 92 38 100 28 72 100 51 42 50 76 70 43 60 74 61 12 97 100 100 100 100 100
100 100 100 100 100 100 100 100 100 100 100 100 100 100 98 97 79 56 84 83 95 99 51 58 86 77 52 5 48 100 73 78 83 100 100 93 89 100 94 100 100 100 100
100 100 100 100 100 100 100 100 100 100 100 100 100 100 100 100 100 100 95 82 31 73 84 60 8 54 5 8 21 14 77 100 100 98 39 84 100 95 89 100 100 100 100
100 100 100 100 100 100 100 100 100 100 67 79 55 35 81 100 100 100 100 94 80 39 10 11 91 100 62 24 17 85 100 100 51 45 87 100 100 100 100 100 100 100 100
100 100 100 100 100 100 100 100 100 100 100 100 100 100 100 100 99 78 78 34 5 5 26 99 92 22 6 59 51 80 52 63 83 99 75 91 100 98 100 100 100 100 99
100 100 100 100 100 100 100 100 100 100 100 100 100 100 100 70 73 96 53 5 5 5 9 5 5 53 99 6 6 62 100 87 27 5 30 100 100 100 100 100 100 100 100

GFSGL_prec_cloud_108.txt.gz
Cloud_Cover
100 100 100 79 60 100 98 100 100 100 100 100 100 100 100 100 100 100 100 100 100 100 100 100 100 100 100 100 100 100 100 100 100 100 100 100 100 100 100 100 100 100 81
71 100 100 81 53 100 100 100 100 100 100 100 100 100 100 100 100 100 100 100 100 100 100 100 100 100 100 100 100 100 100 100 100 100 100 100 100 100 100 100 100 100 100
6 87 100 100 57 86 100 100 100 100 100 100 100 100 100 100 100 100 100 100 100 100 100 100 100 100 100 100 100 100 100 100 100 100 100 100 100 100 100 100 52 100 100
21 53 99 87 55 29 33 100 100 100 100 100 100 100 100 100 100 100 100 100 100 100 100 100 100 100 100 100 100 100 100 100 100 100 100 100 100 100 100 100 96 100 85
18 78 59 9 2 0 16 22 100 100 100 100 100 100 100 100 100 100 100 100 100 100 100 100 100 100 100 100 100 100 100 100 100 100 100 100 100 100 100 100 100 54 98
5 5 41 51 67 0 0 2 2 7 99 100 100 100 100 100 100 100 100 100 100 100 100 100 100 100 100 100 100 100 100 100 100 100 100 100 100 100 100 100 100 99 96
5 11 5 2 58 15 4 42 73 21 51 86 100 100 100 100 100 100 100 100 100 100 100 100 100 100 100 100 100 100 100 100 100 100 100 100 100 100 100 100 100 100 100
97 100 96 24 11 18 75 100 100 92 80 100 100 100 100 100 100 100 100 100 100 100 100 100 100 100 100 100 100 100 100 100 100 100 100 100 100 100 100 100 100 96 46
100 100 100 100 98 98 99 100 100 100 100 100 100 100 100 100 100 100 100 100 100 100 100 100 100 100 100 100 100 100 100 99 100 100 100 100 100 100 57 7 50 45 47
100 100 100 100 100 100 100 100 100 100 100 100 100 100 100 100 100 100 100 100 100 100 100 100 100 100 100 100 100 100 99 100 98 100 47 5 5 5 5 7 38 39 35
100 100 100 100 100 100 100 100 100 100 100 100 100 100 100 100 100 100 100 100 100 100 100 100 100 100 100 100 100 100 87 75 84 23 8 5 5 5 5 4 2 5 5
100 100 100 100 100 100 100 100 100 100 100 100 100 100 100 100 100 100 100 100 100 100 100 100 100 100 100 100 100 100 100 99 94 88 11 5 83 52 5 5 0 5 2
100 100 100 100 100 100 100 100 100 100 100 100 100 100 100 100 100 100 100 100 100 100 100 100 100 100 100 96 99 100 100 100 100 72 95 100 100 19 5 5 5 9 5
100 100 100 100 100 100 100 100 100 100 100 100 100 100 100 100 100 100 100 100 100 100 100 100 100 100 100 100 100 100 100 83 93 100 100 100 97 86 70 24 5 5 5
100 100 100 100 100 100 100 100 100 100 100 100 100 100 100 100 100 100 100 100 100 100 100 100 100 100 100 100 100 100 100 100 100 100 100 50 55 58 30 5 5 12 100
100 100 100 100 100 100 100 100 100 100 100 100 100 100 100 100 100 100 100 100 100 100 100 100 100 100 100 100 100 97 82 100 100 100 84 89 59 67 17 5 29 99 100
100 100 100 100 100 100 100 100 100 100 100 100 100 100 100 100 100 100 100 100 100 100 100 100 100 100 100 100 100 100 100 100 100 51 41 58 14 5 7 61 100 100 100
100 100 100 100 100 100 100 100 100 100 100 100 100 100 100 100 100 100 100 100 100 100 100 100 100 100 100 100 100 100 97 18 13 32 19 10 16 5 44 99 100 100 100
100 100 100 100 100 100 100 100 100 100 100 100 100 100 100 100 100 100 100 100 100 100 100 100 100 100 100 100 86 57 62 83 88 100 57 49 64 65 92 100 100 100 98
100 100 100 100 100 100 100 100 100 100 100 100 100 100 100 100 100 100 100 100 100 100 100 100 100 100 86 58 67 93 98 75 50 69 100 98 46 86 100 100 100 100 100
100 100 100 100 100 100 100 100 100 100 100 100 100 100 100 100 100 100 100 100 100 100 100 74 96 100 75 96 51 68 54 96 88 80 90 61 95 64 53 74 76 100 100
100 100 100 100 100 100 100 100 100 100 100 100 100 100 100 100 100 100 100 100 100 100 100 100 70 42 24 6 29 99 73 100 89 96 99 99 89 88 87 100 100 100 100
100 100 100 100 100 100 100 100 100 100 100 100 100 100 100 100 100 100 100 100 100 99 84 84 99 97 49 48 40 81 100 92 100 100 100 100 100 100 100 100 100 100 100
100 100 100 100 100 100 100 100 100 100 100 100 100 100 100 100 100 100 100 100 100 96 68 99 90 66 5 11 23 21 92 100 92 90 98 99 100 100 100 100 100 100 100
100 100 100 100 100 100 100 100 100 100 100 100 99 95 84 91 87 60 100 42 54 91 31 5 5 5 5 17 13 23 100 97 13 5 5 75 100 100 100 100 100 100 100
100 100 100 100 100 100 100 100 100 100 100 100 100 100 90 100 100 62 24 5 9 43 51 5 5 5 5 5 54 100 58 5 5 5 16 98 100 100 100 100 100 100 100

GFSGL_prec_cloud_111.txt.gz
Cloud_Cover
96 100 58 100 100 100 100 100 100 100 100 100 100 100 100 100 100 100 100 100 100 100 100 100 100 100 100 100 100 100 100 100 100 100 100 95 100 100 100 100 100 100 100
2 71 71 56 100 100 100 100 100 100 100 100 100 100 100 100 100 100 100 100 100 100 100 100 100 100 100 100 100 100 100 100 100 100 100 100 100 100 100 100 100 100 100
4 88 100 100 96 100 100 98 100 100 100 100 100 100 100 100 100 100 100 100 100 100 100 100 100 100 100 100 100 100 100 100 100 100 100 100 100 100 100 100 100 100 100
5 93 100 100 100 100 100 100 98 100 100 100 100 100 100 100 100 100 100 100 100 100 100 100 100 100 100 100 100 100 100 100 100 100 100 100 100 100 100 100 100 100 100
65 33 100 100 100 93 100 75 100 98 100 100 100 100 100 100 100 100 100 100 100 100 100 100 100 100 100 100 100 100 100 100 100 100 100 100 100 100 100 100 100 100 100
56 100 100 100 100 100 88 79 77 100 87 98 100 100 100 100 100 100 100 100 100 100 100 100 100 100 100 100 100 100 100 100 100 100 100 100 100 100 100 100 100 100 97
51 93 100 98 98 45 47 68 100 99 100 100 100 100 100 100 100 100 100 100 100 100 100 100 100 100 100 100 100 100 100 100 100 100 100 100 100 100 100 100 100 100 100
96 93 100 100 81 85 76 87 100 100 100 100 100 100 100 100 100 100 100 100 100 100 100 100 100 100 100 100 100 100 100 100 100 100 100 99 96 100 100 100 100 100 100
100 100 76 96 100 100 100 100 100 100 100 100 100 100 100 100 100 100 100 100 100 100 100 100 100 100 100 100 100 100 100 100 100 100 100 100 100 100 100 100 100 64 48
100 100 100 100 100 100 100 100 100 100 100 100 100 100 100 100 100 100 100 100 100 100 100 100 100 100 100 100 100 100 100 79 100 100 94 100 100 100 28 28 22 62 61
100 100 100 100 100 100 100 100 100 100 100 100 100 100 100 100 100 100 100 100 100 100 100 100 100 100 100 100 98 80 100 95 98 84 100 100 100 100 77 16 14 62 96
100 100 100 100 100 100 100 100 100 100 100 100 100 100 100 100 100 100 100 100 100 100 100 100 100 100 100 100 100 100 100 100 100 100 100 100 100 98 62 80 70 14 42
100 100 100 100 100 100 100 100 100 100 100 100 100 100 100 100 100 100 100 100 100 100 100 100 100 100 100 100 100 100 100 100 100 100 100 100 100 10 90 98 100 100 42
100 100 100 100 100 100 100 100 100 100 100 100 100 100 100 100 100 100 100 100 100 100 100 100 100 100 100 100 100 100 100 100 100 100 100 24 67 100 100 60 61 89 28
100 100 100 100 100 100 100 100 100 100 100 100 100 100 100 100 100 100 100 100 100 100 100 100 100 100 100 100 100 100 100 100 100 100 100 100 100 29 25 10 64 35 99
100 100 100 100 100 100 100 100 100 100 100 100 100 100 100 100 100 100 100 100 100 100 100 100 100 100 100 100 100 100 100 100 100 95 88 100 100 88 83 31 14 95 100
100 100 100 100 100 100 100 100 100 100 100 100 100 100 100 100 100 100 100 100 100 100 100 100 100 100 100 100 100 94 100 100 100 100 100 100 54 51 100 58 70 96 100
100 100 100 100 100 100 100 100 100 100 100 100 100 100 100 100 100 100 100 100 100 100 100 100 100 100 100 100 100 100 100 100 100 100 100 100 97 67 40 62 86 100 100
100 100 100 100 100 100 100 100 100 100 100 100 100 100 100 100 100 100 100 100 100 100 100 100 100 100 100 100 100 100 95 100 100 100 100 90 65 81 47 75 100 79 90
100 100 100 100 100 100 100 100 100 100 100 100 100 100 100 100 100 100 100 100 100 100 100 100 100 100 100 100 100 100 100 100 100 100 96 99 74 90 87 100 100 100 100
100 100 100 100 100 100 100 100 100 100 100 100 100 100 100 100 100 100 100 100 100 100 100 100 100 100 100 100 100 100 93 99 66 72 100 89 95 98 69 100 99 80 100
100 100 100 100 100 100 100 100 100 100 100 100 100 100 100 100 100 100 100 100 100 100 100 100 100 100 100 63 47 99 98 100 100 100 99 99 74 79 97 98 74 81 100
100 100 100 100 100 100 100 100 100 100 100 100 100 100 100 100 100 100 100 100 100 100 100 100 100 100 60 28 72 92 100 96 100 100 100 100 100 100 99 100 100 100 100
100 100 100 100 100 100 100 100 100 100 100 100 100 100 100 100 100 100 100 100 100 97 96 79 62 58 26 47 53 22 75 94 95 55 51 100 100 100 100 100 100 100 100
100 100 100 100 100 100 100 100 100 100 100 100 100 100 100 100 100 100 97 48 64 100 36 46 51 20 40 15 22 93 83 94 9 5 6 86 100 100 95 100 100 100 100
100 100 100 100 100 100 97 99 100 100 100 100 100 100 100 100 100 100 95 99 88 79 90 32 11 21 17 12 89 64 12 41 5 5 60 98 100 99 97 100 100 100 100

GFSGL_prec_cloud_114.txt.gz
Cloud_Cover
32 52 100 100 100 100 82 48 100 100 100 100 100 100 100 100 100 100 100 100 100 100 100 100 100 100 100 100 100 100 100 100 100 100 100 100 100 100 100 100 100 100 100
100 100 100 100 100 100 97 99 100 100 100 100 100 100 100 100 100 100 100 100 100 100 100 100 100 100 100 100 100 100 100 100 100 100 100 100 100 100 100 100 100 100 100
26 95 100 100 100 100 100 99 100 100 100 100 100 100 100 100 100 100 100 100 100 100 100 100 100 100 100 100 100 100 100 100 100 100 100 100 100 100 100 100 100 100 100
75 93 100 100 100 100 100 99 100 99 100 100 100 100 100 100 100 100 100 100 100 100 100 100 100 100 100 100 100 100 100 100 100 100 100 100 100 100 100 100 100 100 100
69 90 100 100 100 100 100 100 100 100 100 100 100 100 100 100 100 100 100 100 100 100 100 100 100 100 100 100 100 100 100 100 100 100 100 100 100 100 100 100 100 100 100
83 100 100 100 100 100 100 100 100 100 100 100 100 100 100 100 100 100 100 100 100 100 100 100 100 100 100 100 100 100 100 100 100 100 100 100 100 100 100 100 100 100 100
95 100 100 100 100 100 100 100 100 100 100 100 100 100 100 100 100 100 100 100 100 100 100 100 100 100 100 100 100 100 100 100 100 100 100 100 100 100 99 99 92 97 45
100 100 100 100 100 100 100 100 100 100 100 100 100 100 100 100 100 100 100 100 100 100 100 100 100 100 100 100 100 100 100 100 100 100 100 100 100 100 90 96 99 100 100
100 98 97 94 100 100 100 100 100 100 100 100 100 100 100 100 100 100 100 100 100 100 100 100 100 100 100 100 100 100 100 100 100 100 100 100 100 100 87 98 100 98 79
100 100 100 100 100 100 100 100 100 100 100 100 100 100 100 100 100 100 100 100 100 100 100 100 100 100 100 100 100 100 100 100 100 100 100 100 100 100 100 100 100 100 99
100 100 100 100 100 100 100 100 100 100 100 100 100 100 100 100 100 100 100 100 100 100 100 100 100 100 100 100 100 100 100 100 100 100 100 100 100 100 100 99 86 100 100
100 100 100 100 100 100 100 100 100 100 100 100 100 100 100 100 100 100 100 100 100 100 100 100 100 100 100 100 100 100 100 100 100 100 100 100 100 100 100 95 100 100 92
100 100 100 100 100 100 100 100 100 100 100 100 100 100 100 100 100 100 100 100 100 100 100 100 100 100 100 100 100 100 100 100 100 100 100 100 100 100 100 100 100 100 99
100 100 100 100 100 100 100 100 100 100 100 100 100 100 100 100 100 100 100 100 100 100 100 100 100 100 100 100 100 100 100 100 100 100 100 100 100 100 100 100 100 100 99
100 100 100 100 100 100 100 100 100 100 100 100 100 100 100 100 100 100 100 100 100 100 100 100 100 100 100 100 100 100 100 100 100 100 100 100 100 100 100 100 100 100 100
100 100 100 100 100 100 100 100 100 100 100 100 100 100 100 100 100 100 100 100 100 100 100 100 100 100 100 100 100 100 100 100 100 100 100 100 100 100 95 100 24 76 71
100 100 100 100 100 100 100 100 100 100 100 100 100 100 100 100 100 100 100 100 100 100 100 100 100 100 100 100 100 100 100 100 100 100 100 100 100 99 100 100 100 100 99
100 100 100 100 100 100 100 100 100 100 100 100 100 100 100 100 100 100 100 100 100 100 100 100 100 100 100 100 100 100 100 100 100 100 100 100 100 100 100 100 50 72 95
100 100 100 100 100 100 100 100 100 100 100 100 100 100 100 100 100 100 100 100 100 100 100 100 100 100 100 100 100 100 100 100 100 99 100 100 100 100 100 100 96 35 74
100 100 100 100 100 100 100 100 100 100 100 100 100 100 100 100 100 100 100 100 100 100 100 100 100 100 100 100 100 100 100 96 58 94 94 99 74 41 60 64 80 99 99
100 100 100 100 100 100 100 100 100 100 100 100 100 100 100 100 100 100 98 98 100 100 100 100 100 100 100 100 100 100 46 99 90 86 96 66 78 64 55 84 100 100 100
100 100 100 100 100 100 100 100 100 100 100 100 100 100 100 100 100 100 100 100 100 100 100 100 100 100 100 53 78 100 100 100 100 100 97 48 22 30 53 96 93 100 100
100 100 100 100 100 100 100 100 100 100 100 100 100 100 100 100 100 100 100 100 100 100 100 100 100 100 100 100 100 100 100 100 100 99 88 91 67 63 79 100 100 100 100
100 100 100 100 100 100 100 100 100 100 100 100 100 100 100 100 100 100 100 100 100 100 100 100 99 100 100 71 70 61 94 100 72 5 11 80 98 92 99 100 100 100 100
100 100 100 100 100 100 100 100 100 100 100 100 100 100 100 98 100 97 100 100 85 92 84 88 75 54 46 62 71 93 28 83 9 5 5 70 100 100 96 100 94 100 82
99 100 99 100 100 100 100 100 100 100 100 100 100 100 100 97 94 100 100 93 90 80 81 45 46 47 43 48 84 67 6 5 5 5 42 93 100 98 87 96 87 100 100

GFSGL_prec_cloud_120.txt.gz
Cloud_Cover
100 100 100 100 100 96 60 84 93 72 98 100 100 100 100 100 100 100 100 100 100 100 100 100 100 100 100 100 100 100 100 100 100 100 100 100 100 100 100 100 100 100 100
100 100 100 100 100 100 80 100 100 100 67 100 100 100 100 100 100 100 100 100 100 100 100 100 100 100 100 100 100 100 100 100 100 100 100 100 100 100 100 100 100 100 100
100 100 100 100 100 92 100 83 100 85 88 99 100 100 100 100 100 100 100 100 100 100 100 100 100 100 100 100 100 100 100 100 100 100 100 100 100 100 100 100 100 100 100
100 100 100 100 100 100 100 67 100 100 100 100 100 100 100 100 100 100 100 100 100 100 100 100 100 100 100 100 100 100 100 100 100 100 100 100 100 100 100 100 100 100 100
100 100 100 100 100 100 100 47 85 68 93 100 100 99 100 100 100 100 100 100 100 100 100 100 100 100 100 100 100 100 100 100 100 100 100 100 100 100 100 100 100 100 100
100 100 100 100 100 100 90 58 100 100 100 100 100 100 100 100 100 100 100 100 100 100 100 100 100 100 100 100 100 100 100 100 100 100 100 100 100 100 100 100 100 100 100
100 100 100 100 100 100 92 92 100 100 100 100 100 100 100 100 100 100 100 100 100 100 100 100 100 100 100 100 100 100 100 100 100 100 100 100 100 100 100 100 100 100 100
100 100 100 100 100 100 100 100 100 100 100 100 100 100 100 100 100 100 100 100 100 100 100 100 100 100 100 100 100 100 100 100 100 100 100 100 100 100 100 100 100 100 100
100 100 100 100 100 100 100 100 100 100 100 100 100 100 100 100 100 100 100 100 100 100 100 100 100 100 100 100 100 100 100 100 100 100 100 100 100 100 100 100 100 100 100
100 100 100 100 100 100 100 100 100 100 100 100 100 100 100 100 100 100 100 100 100 100 100 100 100 100 100 100 100 100 100 100 100 100 100 100 100 100 100 100 100 100 100
100 100 100 100 100 100 100 100 100 100 100 100 100 100 100 100 100 100 100 100 100 100 100 100 100 100 100 100 100 100 100 100 100 100 100 100 100 100 100 100 100 92 100
100 100 100 100 100 100 100 100 100 100 100 100 100 100 100 100 100 100 100 100 100 100 100 100 100 100 100 100 100 100 100 100 100 100 100 100 100 100 100 100 100 100 100
100 100 100 100 100 100 100 100 100 100 100 100 100 100 100 100 100 100 100 100 100 100 100 100 100 100 100 100 100 100 100 100 100 100 100 100 100 100 100 100 100 100 100
100 100 100 100 100 100 100 100 100 100 100 100 100 100 100 100 100 100 100 100 100 100 100 100 100 100 100 100 100 100 100 97 100 100 100 100 100 100 100 100 100 100 100
100 100 100 100 100 100 100 100 100 100 100 100 100 100 100 100 100 100 100 100 100 100 100 100 100 100 100 78 100 100 100 97 100 100 100 100 100 100 100 100 100 100 100
100 100 100 100 100 100 100 100 100 100 100 100 100 100 100 100 100 100 100 100 100 100 100 100 100 100 99 95 98 92 100 100 100 100 100 100 100 100 100 100 100 100 100
100 100 100 100 100 100 100 100 100 100 100 100 100 100 100 100 100 100 100 100 100 100 100 100 100 100 100 100 100 100 100 100 100 100 100 100 100 88 100 100 100 94 36
100 100 100 100 100 100 100 100 100 100 100 100 100 100 100 100 100 100 100 100 100 100 100 100 100 100 100 100 100 100 100 90 74 99 100 100 100 100 93 61 76 92 67
100 100 100 100 100 100 100 100 100 100 100 100 100 100 100 100 100 100 100 100 100 100 100 100 100 100 100 99 100 100 92 93 95 100 100 100 100 91 94 88 100 93 64
100 100 100 100 100 100 100 100 100 100 100 100 100 100 100 100 100 100 100 100 100 100 100 100 100 100 70 74 97 95 95 99 100 100 100 100 100 100 100 100 100 100 100
100 100 100 100 100 100 100 100 100 100 100 100 100 100 100 100 100 100 100 100 100 100 100 100 100 99 100 100 98 95 100 98 99 95 99 94 100 100 100 100 100 100 100
100 100 100 100 100 100 100 100 100 100 100 100 100 100 100 100 100 100 100 100 100 100 100 100 96 100 100 100 99 100 100 100 100 100 94 53 77 100 100 100 100 100 100
100 100 100 100 100 100 100 100 100 100 100 100 100 100 100 100 100 100 100 100 100 100 100 100 100 100 100 100 100 100 100 100 100 100 100 98 93 100 100 100 100 100 100
100 100 100 100 100 100 100 100 100 100 100 100 100 100 100 100 100 100 100 100 100 100 100 100 100 100 100 100 100 100 100 100 100 100 82 96 94 95 100 100 100 100 100
100 100 100 100 100 100 99 100 100 100 100 100 100 100 100 100 100 100 100 100 100 100 100 100 100 96 83 95 95 94 68 89 71 49 79 100 100 100 100 100 100 100 100
100 100 100 100 94 87 83 98 100 100 100 100 100 100 100 100 100 100 100 100 100 100 100 100 100 96 96 98 97 100 91 67 61 81 7 92 100 100 100 100 100 100 100

GFSGL_prec_cloud_123.txt.gz
Cloud_Cover
100 97 94 100 100 100 100 100 83 100 88 100 100 100 100 100 100 100 100 100 100 100 100 100 100 100 100 100 100 100 100 100 100 100 100 100 100 100 100 100 100 100 100
100 80 100 100 100 100 100 100 99 100 84 80 100 100 100 100 100 100 100 100 100 100 100 100 100 100 100 100 100 100 100 100 100 100 100 100 100 100 100 100 100 100 100
68 99 100 100 100 100 100 100 95 99 99 57 29 100 100 100 100 100 100 100 100 100 100 100 100 100 100 100 100 100 100 100 100 100 100 100 100 100 100 100 100 100 100
30 100 100 100 100 100 100 100 100 100 99 91 96 99 100 100 100 100 100 100 100 100 100 100 100 100 100 100 100 100 100 100 100 100 100 100 100 100 100 100 100 100 100
24 100 100 100 100 100 100 100 100 100 100 90 87 83 100 100 100 100 100 100 100 100 100 100 100 100 100 100 100 100 100 100 100 100 100 100 100 100 100 100 100 100 100
93 100 100 100 100 100 100 100 100 100 98 91 100 100 100 100 100 100 100 100 100 100 100 100 100 100 100 100 100 100 100 100 100 100 100 100 100 100 100 100 100 100 100
100 100 100 100 100 100 100 100 100 100 100 100 100 100 100 100 100 100 100 100 100 100 100 100 100 100 100 100 100 100 100 100 100 100 100 100 100 100 100 100 100 100 100
99 100 100 100 100 100 100 100 100 100 100 100 100 100 100 100 100 100 100 100 100 100 100 100 100 100 100 100 100 100 100 100 100 100 100 100 100 100 100 100 100 100 100
100 100 100 100 100 100 100 100 100 100 100 100 100 100 100 100 100 100 100 100 100 100 100 100 100 100 100 100 100 100 100 100 100 100 100 100 100 100 100 100 100 100 100
73 100 100 100 100 100 100 100 100 100 100 100 100 100 100 100 100 100 100 100 100 100 100 100 100 100 100 100 100 100 100 100 100 100 100 100 100 100 100 100 100 100 100
96 100 100 100 100 100 100 100 100 100 100 100 100 100 100 100 100 100 100 100 100 100 100 100 100 100 100 100 100 100 100 100 100 100 100 100 100 100 100 100 100 100 100
100 99 100 100 100 100 100 100 100 100 100 100 100 100 100 100 100 100 100 100 100 100 100 100 100 100 100 100 100 100 100 100 100 100 100 100 100 100 100 100 99 96 98
100 100 100 100 100 100 100 100 100 100 100 100 100 100 100 100 100 100 100 100 100 100 100 100 100 100 100 100 100 100 100 100 100 100 100 100 100 95 100 100 100 100 100
100 100 100 100 100 100 100 100 100 100 100 100 100 100 100 100 100 100 100 100 100 100 100 100 100 100 100 100 100 100 100 100 100 97 75 86 95 88 100 98 100 100 100
100 100 100 100 100 100 100 100 100 100 100 100 100 100 100 100 100 100 100 100 100 100 100 100 100 100 100 100 100 100 100 99 100 100 100 99 100 90 91 100 100 100 84
100 100 100 100 100 100 100 100 100 100 100 100 100 100 100 100 100 100 100 100 100 100 100 100 100 100 100 100 91 100 100 100 100 100 100 73 100 100 100 100 82 85 60
100 100 100 100 100 100 100 100 100 100 100 100 100 100 100 100 100 100 100 100 100 100 100 100 100 100 100 100 99 90 99 100 100 99 100 100 100 100 100 84 66 18 5
100 100 100 100 100 100 100 100 100 100 100 100 100 100 100 100 100 100 100 100 100 100 100 100 100 100 100 98 96 100 100 100 100 100 100 100 100 100 98 77 85 92 80
100 100 100 100 100 100 100 100 100 100 100 100 100 100 100 100 100 100 100 100 100 100 100 100 100 100 100 100 100 100 100 100 98 100 100 98 100 100 99 95 100 91 49
100 100 100 100 100 100 100 100 100 100 100 100 100 100 100 100 100 100 100 100 100 100 100 100 100 100 100 100 100 100 100 100 100 100 100 100 100 100 100 100 100 100 100
100 100 100 100 100 100 100 100 100 100 100 100 100 100 100 100 100 100 100 100 100 100 100 100 100 100 100 100 100 100 100 100 100 100 100 100 100 100 100 100 100 100 100
100 100 100 100 100 100 100 100 100 100 100 100 100 100 100 100 100 100 100 100 100 100 100 100 100 100 100 100 100 100 100 100 100 100 100 88 100 100 100 100 100 100 100
100 100 100 100 100 100 100 100 100 100 100 100 100 100 100 100 100 100 100 100 100 100 100 100 100 100 100 100 100 100 100 100 100 100 100 100 100 100 100 100 100 100 100
100 100 100 100 100 100 100 100 100 100 100 100 100 100 100 100 100 100 100 100 100 100 100 100 100 100 100 100 100 100 100 100 100 100 99 90 96 94 100 100 100 100 100
100 100 100 100 100 100 100 100 100 100 100 100 100 100 100 100 100 100 100 100 100 100 100 100 100 100 97 96 100 99 81 100 100 69 88 100 100 100 100 100 100 100 100
100 100 100 100 100 100 100 100 100 100 100 100 100 100 100 100 100 100 100 100 100 100 100 100 100 100 98 100 100 100 88 60 74 75 60 65 100 100 100 100 100 100 100

GFSGL_prec_cloud_126.txt.gz
Cloud_Cover
100 100 100 98 100 100 100 100 100 73 25 99 40 100 100 100 100 100 100 100 100 100 100 100 100 100 100 100 100 100 100 100 100 100 100 100 100 100 100 100 100 100 100
100 79 100 100 100 100 100 100 100 100 75 100 83 100 100 100 100 100 100 100 100 100 100 100 100 100 100 100 100 100 100 100 100 100 100 100 100 100 100 100 100 100 100
100 100 50 100 100 100 100 100 100 100 100 100 97 100 100 94 100 100 100 100 100 100 100 100 100 100 100 100 100 100 100 100 100 100 100 100 100 100 100 100 100 100 100
100 100 100 100 100 100 100 100 100 100 99 100 73 99 100 100 100 100 100 100 100 100 100 100 100 100 100 100 100 100 100 100 100 100 100 100 100 100 100 100 100 100 100
100 100 100 100 100 100 100 100 100 100 100 100 100 100 100 100 100 100 100 100 100 100 100 100 100 100 100 100 100 100 100 100 100 100 100 100 100 100 100 100 100 100 100
100 100 100 100 100 100 100 100 100 100 100 100 100 96 94 98 100 100 100 100 100 100 100 100 100 100 100 100 100 100 100 100 100 100 100 100 100 100 100 100 100 100 100
100 100 100 100 100 100 100 100 100 100 100 100 100 100 100 100 100 100 100 100 100 100 100 100 100 100 100 100 100 100 100 100 100 100 100 100 100 100 100 100 100 100 100
100 100 100 94 100 100 100 100 100 100 100 100 100 100 100 100 100 100 100 100 100 100 100 100 100 100 100 100 100 100 100 100 100 100 100 100 100 100 100 100 100 100 100
100 100 100 100 100 100 100 100 100 100 100 100 100 100 100 100 100 100 100 100 100 100 100 100 100 100 100 100 100 100 100 100 100 100 100 100 100 100 100 100 100 100 100
100 93 95 100 100 100 100 100 100 100 100 100 100 100 100 100 100 100 100 100 100 100 100 100 100 100 100 100 100 100 100 100 100 100 100 100 100 100 100 100 100 100 100
96 81 98 98 100 100 100 100 100 100 100 100 100 100 100 100 100 100 100 100 100 100 100 100 100 100 100 100 100 100 100 100 100 100 100 100 100 100 100 100 100 100 100
100 91 100 100 100 100 100 100 100 100 100 100 100 100 100 100 100 100 100 100 100 100 100 100 100 100 100 100 100 100 100 100 100 100 100 100 100 100 100 100 100 100 100
100 100 100 100 100 100 100 100 100 100 100 100 100 100 100 100 100 100 100 100 100 100 100 100 100 100 100 100 100 100 100 100 100 100 100 100 100 100 100 100 100 100 100
100 100 100 100 100 100 100 100 100 100 100 100 100 100 100 100 100 100 100 100 100 100 100 100 100 100 100 100 100 100 100 100 100 100 100 100 100 100 100 100 100 100 100
100 100 100 100 100 100 100 100 100 100 100 100 100 100 100 100 100 100 100 100 100 100 100 100 100 100 100 100 100 100 100 100 100 100 100 100 100 100 100 100 97 54 52
100 100 100 100 100 100 100 100 100 100 100 100 100 100 100 100 100 100 100 100 100 100 100 100 100 100 100 100 100 100 100 100 100 100 100 100 100 100 82 74 78 94 100
100 100 100 100 100 100 100 100 100 100 100 100 100 100 100 100 100 100 100 100 100 100 100 100 100 100 100 100 100 100 100 100 100 100 100 100 100 99 97 50 100 76 42
100 100 100 100 100 100 100 100 100 100 100 100 100 100 100 100 100 100 100 100 100 100 100 100 100 100 100 100 100 100 100 99 100 86 100 100 100 97 100 98 57 100 90
100 100 100 100 100 100 100 100 100 100 100 100 100 100 100 100 100 100 100 100 100 100 100 100 100 100 100 100 100 100 100 99 100 75 100 99 90 100 100 92 97 66 55
100 100 100 100 100 100 100 100 100 100 100 100 100 100 100 100 100 100 100 100 100 100 100 100 100 100 100 100 100 100 100 100 100 100 100 100 100 100 100 100 100 91 100
100 100 100 100 100 100 100 100 100 100 100 100 100 100 100 100 100 100 100 100 100 100 100 100 100 100 100 100 100 100 100 100 100 100 100 100 100 74 100 100 100 100 68
100 100 100 100 100 100 100 100 100 100 100 100 100 100 100 100 100 100 100 100 100 100 100 100 100 100 100 100 100 100 100 100 100 100 100 100 100 100 100 100 76 86 95
100 100 100 100 100 100 100 100 100 100 100 100 100 100 100 100 100 100 100 100 100 100 100 100 100 100 100 100 100 100 100 100 100 100 100 100 100 100 100 85 100 100 20
100 100 100 100 100 100 100 100 100 100 100 100 100 100 100 100 100 100 100 100 100 100 100 100 100 100 100 100 100 100 100 100 100 100 100 100 99 95 71 58 30 86 5
100 100 100 100 100 100 100 100 100 100 100 100 100 100 100 100 100 100 100 100 100 100 100 100 100 100 100 100 100 100 100 100 100 100 100 100 98 76 85 28 76 33 17
100 100 100 100 100 100 100 100 100 100 100 100 100 100 100 100 100 100 100 100 100 100 100 100 100 100 100 100 100 100 100 100 100 100 99 91 99 100 84 78 44 5 17